[[{"header":{"parameterUnit":"m.s-1","parameterCategory":1,"la1":31.0,"la2":29.5877,"lo1":-88.7671,"lo2":-86.6584,"dy":0.0162,"dx":0.0185,"nx":115,"ny":88,"refTime":"2024-09-05T00:00:00:Z","depth":0,"parameterNumber":2,"parameterNumberName":"U-component_of_WINDS"},"data":[0.0,0.0,0.0,0.0,0.0,0.0,0.0,0.0,0.0,0.0,0.0,0.0,0.0,0.0,0.0,0.0,0.0,0.0,0.0,0.0,0.0,0.0,0.0,0.0,0.0,0.0,0.0,0.0,0.0,0.0,0.0,0.0,0.0,0.0,0.0,0.0,0.0,0.0,0.0,0.0,0.0,0.0,0.0,0.0,0.0,0.0,0.0,0.0,0.0,0.0,0.0,0.0,0.0,0.0,0.0,0.0,0.0,0.0,0.0,0.0,0.0,0.0,0.0,0.0,0.0,0.0,0.0,0.0,0.0,0.0,0.0,0.0,0.0,0.0,0.0,0.0,0.0,0.0,0.0,0.0,0.0,0.0,0.0,0.0,0.0,0.0,0.0,0.0,0.0,0.0,0.0,0.0,0.0,0.0,0.0,0.0,0.0,0.0,0.0,0.0,0.0,0.0,0.0,0.0,0.0,0.0,0.0,0.0,0.0,0.0,0.0,0.0,0.0,0.0,0.0,0.0,0.0,0.0,0.0,0.0,0.0,0.0,0.0,0.0,0.0,0.0,0.0,0.0,0.0,0.0,0.0,0.0,0.0,0.0,0.0,0.0,0.0,0.0,0.0,0.0,0.0,0.0,0.0,0.0,0.0,0.0,0.0,0.0,0.0,0.0,0.0,0.0,0.0,0.0,0.0,0.0,0.0,0.0,0.0,0.0,0.0,0.0,0.0,0.0,0.0,0.0,0.0,0.0,0.0,0.0,0.0,0.0,0.0,0.0,0.0,0.0,0.0,0.0,0.0,0.0,0.0,0.0,0.0,0.0,0.0,0.0,0.0,0.0,0.0,0.0,0.0,0.0,0.0,0.0,0.0,0.0,0.0,0.0,0.0,0.0,0.0,0.0,0.0,0.0,0.0,0.0,0.0,0.0,0.0,0.0,0.0,0.0,0.0,0.0,0.0,0.0,0.0,0.0,0.0,0.0,0.0,0.0,0.0,0.0,0.0,0.0,0.0,0.0,0.0,0.0,0.0,0.0,0.0,0.0,0.0,0.0,0.0,0.0,0.0,0.0,0.0,0.0,0.0,0.0,0.0,0.0,0.0,0.0,0.0,0.0,0.0,0.0,0.0,0.0,0.0,0.0,0.0,0.0,0.0,0.0,0.0,0.0,0.0,0.0,0.0,0.0,0.0,0.0,0.0,0.0,0.0,0.0,0.0,0.0,0.0,0.0,0.0,0.0,0.0,0.0,0.0,0.0,0.0,0.0,0.0,0.0,0.0,0.0,0.0,0.0,0.0,0.0,0.0,0.0,0.0,0.0,0.0,0.0,0.0,0.0,0.0,0.0,0.0,0.0,0.0,0.0,0.0,0.0,0.0,0.0,0.0,0.0,0.0,0.0,0.0,0.0,0.0,0.0,0.0,0.0,0.0,0.0,0.0,0.0,0.0,0.0,0.0,0.0,0.0,0.0,0.0,0.0,0.0,0.0,0.0,0.0,0.0,0.0,0.0,0.0,0.0,0.0,0.0,0.0,0.0,0.0,0.0,0.0,0.0,0.0,0.0,0.0,0.0,0.0,0.0,0.0,0.0,0.0,0.0,0.0,0.0,0.0,0.0,0.0,0.0,0.0,0.0,0.0,0.0,0.0,0.0,0.0,0.0,0.0,0.0,0.0,0.0,0.0,0.0,0.0,0.0,0.0,0.0,0.0,0.0,0.0,0.0,0.0,0.0,0.0,0.0,0.0,0.0,0.0,0.0,0.0,0.0,0.0,0.0,0.0,0.0,0.0,0.0,0.0,0.0,0.0,0.0,0.0,0.0,0.0,0.0,0.0,0.0,0.0,0.0,0.0,0.0,0.0,0.0,0.0,0.0,0.0,0.0,0.0,0.0,0.0,0.0,0.0,0.0,0.0,0.0,0.0,0.0,0.0,0.0,0.0,0.0,0.0,0.0,0.0,0.0,0.0,0.0,0.0,0.0,0.0,0.0,0.0,0.0,0.0,0.0,0.0,0.0,0.0,0.0,0.0,0.0,0.0,0.0,0.0,0.0,0.0,0.0,0.0,0.0,0.0,0.0,0.0,0.0,0.0,0.0,0.0,0.0,0.0,0.0,0.0,0.0,0.0,0.0,0.0,0.0,0.0,0.0,0.0,0.0,0.0,0.0,0.0,0.0,0.0,0.0,0.0,0.0,0.0,0.0,0.0,0.0,0.0,0.0,0.0,0.0,0.0,0.0,0.0,0.0,0.0,0.0,0.0,0.0,0.0,0.0,0.0,0.0,0.0,0.0,0.0,0.0,0.0,0.0,0.0,0.0,0.0,0.0,0.0,0.0,0.0,0.0,0.0,0.0,0.0,0.0,0.0,0.0,0.0,0.0,0.0,0.0,0.0,0.0,0.0,0.0,0.0,0.0,0.0,0.0,0.0,0.0,0.0,0.0,0.0,0.0,0.0,0.0,0.0,0.0,0.0,0.0,0.0,0.0,0.0,0.0,0.0,0.0,0.0,0.0,0.0,0.0,0.0,0.0,0.0,0.0,0.0,0.0,0.0,0.0,0.0,0.0,0.0,0.0,0.0,0.0,0.0,0.0,0.0,0.0,0.0,0.0,0.0,0.0,0.0,0.0,0.0,0.0,0.0,0.0,0.0,0.0,0.0,0.0,0.0,0.0,0.0,0.0,0.0,0.0,0.0,0.0,0.0,0.0,0.0,0.0,0.0,0.0,0.0,0.0,0.0,0.0,0.0,0.0,0.0,0.0,0.0,0.0,0.0,0.0,0.0,0.0,0.0,0.0,0.0,0.0,0.0,0.0,0.0,0.0,0.0,0.0,0.0,0.0,0.0,0.0,0.0,0.0,0.0,0.0,0.0,0.0,0.0,0.0,0.0,0.0,0.0,0.0,0.0,0.0,0.0,0.0,0.0,0.0,0.0,0.0,0.0,0.0,0.0,0.0,0.0,0.0,0.0,0.0,0.0,0.0,0.0,0.0,0.0,0.0,0.0,0.0,0.0,0.0,0.0,0.0,0.0,0.0,0.0,0.0,0.0,0.0,0.0,0.0,0.0,0.0,0.0,0.0,0.0,0.0,0.0,0.0,0.0,0.0,0.0,0.0,0.0,0.0,0.0,0.0,0.0,0.0,0.0,0.0,0.0,0.0,0.0,0.0,0.0,0.0,0.0,0.0,0.0,0.0,0.0,0.0,0.0,0.0,0.0,0.0,0.0,0.0,0.0,0.0,0.0,0.0,0.0,0.0,0.0,0.0,0.0,0.0,0.0,0.0,0.0,0.0,0.0,0.0,0.0,0.0,0.0,0.0,0.0,0.0,0.0,0.0,0.0,0.0,0.0,0.0,0.0,0.0,0.0,0.0,0.0,0.0,0.0,0.0,0.0,0.0,0.0,0.0,0.0,0.0,0.0,0.0,0.0,0.0,0.0,0.0,0.0,0.0,0.0,0.0,0.0,0.0,0.0,0.0,0.0,0.0,0.0,0.0,0.0,0.0,0.0,0.0,0.0,0.0,0.0,0.0,0.0,0.0,0.0,0.0,0.0,0.0,0.0,0.0,0.0,0.0,0.0,0.0,0.0,0.0,0.0,0.0,0.0,0.0,0.0,0.0,0.0,0.0,0.0,0.0,0.0,0.0,0.0,0.0,0.0,0.0,0.0,0.0,0.0,0.0,0.0,0.0,0.0,0.0,0.0,0.0,0.0,0.0,0.0,0.0,0.0,0.0,0.0,0.0,0.0,0.0,0.0,0.0,0.0,0.0,0.0,0.0,0.0,0.0,0.0,0.0,0.0,0.0,0.0,0.0,0.0,0.0,0.0,0.0,0.0,0.0,0.0,0.0,0.0,0.0,0.0,0.0,0.0,0.0,0.0,0.0,0.0,0.0,0.0,0.0,0.0,0.0,0.0,0.0,0.0,0.0,0.0,0.0,0.0,0.0,0.0,0.0,0.0,0.0,0.0,0.0,0.0,0.0,0.0,0.0,0.0,0.0,0.0,0.0,0.0,0.0,0.0,0.0,0.0,0.0,0.0,0.0,0.0,0.0,0.0,0.0,0.0,0.0,0.0,0.0,0.0,0.0,0.0,0.0,0.0,0.0,0.0,0.0,0.0,0.0,0.0,0.0,0.0,0.0,0.0,0.0,0.0,0.0,0.0,0.0,0.0,0.0,0.0,0.0,0.0,0.0,0.0,0.0,0.0,0.0,0.0,0.0,0.0,0.0,0.0,0.0,0.0,0.0,0.0,0.0,0.0,0.0,0.0,0.0,0.0,0.0,0.0,1.8409,0.0,0.0,0.0,0.0,0.0,0.0,0.0,0.0,0.0,0.0,0.0,0.0,0.0,0.0,0.0,0.0,0.0,0.0,0.0,0.0,0.0,0.0,0.0,0.0,0.0,0.0,0.0,0.0,0.0,0.0,0.0,0.0,0.0,0.0,0.0,0.0,0.0,0.0,0.0,0.0,0.0,0.0,0.0,0.0,0.0,0.0,0.0,0.0,0.0,0.0,0.0,0.0,0.0,0.0,0.0,0.0,0.0,0.0,0.0,0.0,0.0,0.0,0.0,0.0,0.0,0.0,0.0,0.0,0.0,0.0,0.0,0.0,0.0,0.0,0.0,0.0,0.0,0.0,0.0,0.0,0.0,0.0,0.0,0.0,0.0,0.0,0.0,0.0,0.0,0.0,0.0,0.0,0.0,0.0,0.0,0.0,0.0,0.0,0.0,0.0,0.0,0.0,0.0,0.0,0.0,0.0,0.0,0.0,0.0,0.0,2.4528,2.3514,2.2515,2.0617,1.7657,0.0,0.0,0.0,0.0,0.0,0.0,0.0,0.0,0.0,0.0,0.0,0.0,0.0,0.0,0.0,0.0,0.0,0.0,0.0,0.0,0.0,0.0,0.0,0.0,0.0,0.0,0.0,0.0,0.0,0.0,0.0,0.0,0.0,0.0,0.0,0.0,0.0,0.0,0.0,0.0,0.0,0.0,0.0,0.0,0.0,0.0,0.0,0.0,0.0,0.0,0.0,0.0,0.0,0.0,0.0,0.0,0.0,0.0,0.0,0.0,0.0,0.0,0.0,0.0,0.0,0.0,0.0,0.0,0.0,0.0,0.0,0.0,0.0,0.0,0.0,0.0,0.0,0.0,0.0,0.0,0.0,0.0,0.0,0.0,0.0,0.0,0.0,0.0,0.0,0.0,0.0,0.0,0.0,0.0,0.0,0.0,0.0,0.0,0.0,0.0,0.0,0.0,0.0,0.0,0.0,0.0,0.0,0.0,0.0,0.0,0.0,0.0,2.2817,2.0595,1.7441,0.0,0.0,0.0,0.0,0.0,0.0,0.0,0.0,0.0,0.0,0.0,0.0,0.0,0.0,0.0,0.0,0.0,0.0,0.0,0.0,0.0,0.0,0.0,0.0,0.0,0.0,0.0,0.0,0.0,0.0,0.0,0.0,0.0,0.0,0.0,0.0,0.0,0.0,0.0,0.0,0.0,0.0,0.0,0.0,0.0,0.0,0.0,0.0,0.0,0.0,0.0,0.0,0.0,0.0,0.0,0.0,0.0,0.0,0.0,0.0,0.0,0.0,0.0,0.0,0.0,0.0,0.0,0.0,0.0,0.0,0.0,0.0,0.0,0.0,0.0,0.0,0.0,0.0,0.0,0.0,0.0,0.0,0.0,0.0,0.0,0.0,0.0,0.0,0.0,0.0,0.0,0.0,0.0,0.0,0.0,0.0,0.0,0.0,0.0,0.0,0.0,0.0,0.0,0.0,0.0,0.0,0.0,0.0,0.0,0.0,2.4303,2.5701,2.3588,0.0,1.8727,0.0,0.0,0.0,0.0,0.0,0.0,0.0,0.0,0.0,0.0,0.0,0.0,0.0,0.0,0.0,0.0,0.0,0.0,0.0,0.0,0.0,0.0,0.0,0.0,0.0,0.0,0.0,0.0,0.0,0.0,0.0,0.0,0.0,0.0,0.0,0.0,0.0,0.0,0.0,0.0,0.0,0.0,0.0,0.0,0.0,0.0,0.0,0.0,0.0,0.0,0.0,0.0,0.0,0.0,0.0,0.0,0.0,0.0,0.0,0.0,0.0,0.0,0.0,0.0,0.0,0.0,0.0,0.0,0.0,0.0,0.0,0.0,0.0,0.0,0.0,0.0,0.0,0.0,0.0,0.0,0.0,0.0,0.0,0.0,0.0,0.0,0.0,0.0,0.0,0.0,0.0,0.0,0.0,0.0,0.0,0.0,0.0,0.0,0.0,0.0,0.0,0.0,0.0,0.0,0.0,0.0,0.0,0.0,0.0,0.0,2.4673,2.4832,2.1716,1.8965,0.0,0.0,0.0,0.0,0.0,0.0,0.0,0.0,0.0,0.0,0.0,0.0,0.0,0.0,0.0,0.0,0.0,0.0,0.0,0.0,0.0,0.0,0.0,0.0,0.0,0.0,0.0,0.0,0.0,0.0,0.0,0.0,0.0,0.0,0.0,0.0,0.0,0.0,0.0,0.0,0.0,0.0,0.0,0.0,0.0,0.0,0.0,0.0,0.0,0.0,0.0,0.0,0.0,0.0,0.0,0.0,0.0,0.0,0.0,0.0,0.0,0.0,0.0,0.0,0.0,0.0,0.0,0.0,0.0,0.0,0.0,0.0,0.0,0.0,0.0,0.0,0.0,0.0,0.0,0.0,0.0,0.0,0.0,0.0,0.0,0.0,0.0,0.0,0.0,0.0,0.0,0.0,0.0,0.0,0.0,0.0,0.0,0.0,0.0,0.0,0.0,0.0,0.0,0.0,0.0,0.0,0.0,0.0,0.0,0.0,2.5094,2.4402,2.3481,2.0386,1.7644,1.5496,0.0,0.0,0.0,0.0,0.0,0.0,0.0,0.0,0.0,0.0,0.0,0.0,0.0,0.0,0.0,0.0,0.0,0.0,0.0,0.0,0.0,0.0,0.0,0.0,0.0,0.0,0.0,0.0,0.0,0.0,0.0,0.0,0.0,0.0,0.0,0.0,0.0,0.0,0.0,0.0,0.0,0.0,0.0,0.0,0.0,0.0,0.0,0.0,0.0,0.0,0.0,0.0,0.0,0.0,0.0,0.0,0.0,0.0,0.0,0.0,0.0,0.0,0.0,0.0,0.0,0.0,0.0,0.0,0.0,0.0,0.0,0.0,0.0,0.0,0.0,0.0,0.0,0.0,0.0,0.0,0.0,0.0,0.0,0.0,0.0,0.0,0.0,0.0,0.0,0.0,0.0,0.0,0.0,0.0,0.0,0.0,0.0,0.0,0.0,0.0,0.0,0.0,0.0,0.0,0.0,0.0,0.0,0.0,0.0,2.4667,2.3076,2.249,2.037,1.8316,0.0,0.0,0.0,0.0,0.0,0.0,0.0,0.0,0.0,0.0,0.0,0.0,0.0,0.0,0.0,0.0,0.0,0.0,0.0,0.0,0.0,0.0,0.0,0.0,0.0,0.0,0.0,0.0,0.0,0.0,0.0,0.0,0.0,0.0,0.0,0.0,0.0,0.0,0.0,0.0,0.0,0.0,0.0,0.0,0.0,0.0,0.0,0.0,0.0,0.0,0.0,0.0,0.0,0.0,0.0,0.0,0.0,0.0,0.0,0.0,0.0,0.0,0.0,0.0,0.0,0.0,0.0,0.0,0.0,0.0,0.0,0.0,0.0,0.0,0.0,0.0,0.0,0.0,0.0,0.0,0.0,0.0,0.0,0.0,0.0,0.0,0.0,0.0,0.0,0.0,0.0,0.0,0.0,0.0,0.0,0.0,0.0,0.0,0.0,0.0,0.0,0.0,0.0,0.0,0.0,0.0,0.0,0.0,0.0,2.301,2.2362,2.2481,2.332,2.0093,1.7723,0.0,0.0,0.0,0.0,0.0,0.0,0.0,0.0,0.0,0.0,0.0,0.0,0.0,0.0,0.0,0.0,0.0,0.0,0.0,0.0,0.0,0.0,0.0,0.0,0.0,0.0,0.0,0.0,0.0,0.0,0.0,0.0,0.0,0.0,0.0,0.0,0.0,0.0,0.0,0.0,0.0,0.0,0.0,0.0,0.0,0.0,0.0,0.0,0.0,0.0,0.0,0.0,0.0,0.0,0.0,0.0,0.0,0.0,0.0,0.0,0.0,0.0,0.0,0.0,0.0,0.0,0.0,0.0,0.0,0.0,0.0,0.0,0.0,0.0,0.0,0.0,0.0,0.0,0.0,0.0,0.0,0.0,0.0,0.0,0.0,0.0,0.0,0.0,0.0,0.0,0.0,0.0,0.0,0.0,0.0,0.0,0.0,0.0,0.0,0.0,0.0,0.0,0.0,0.0,0.0,0.0,0.0,0.0,0.0,2.1545,0.0,2.29,0.0,2.0359,1.7774,0.0,0.0,0.0,0.0,0.0,0.0,0.0,0.0,0.0,0.0,0.0,0.0,0.0,0.0,0.0,0.0,0.0,0.0,0.0,0.0,0.0,0.0,0.0,0.0,0.0,0.0,0.0,0.0,0.0,0.0,0.0,0.0,0.0,0.0,0.0,0.0,0.0,0.0,0.0,0.0,0.0,0.0,0.0,0.0,0.0,0.0,0.0,0.0,0.0,0.0,0.0,0.0,0.0,0.0,0.0,0.0,0.0,0.0,0.0,0.0,0.0,0.0,0.0,0.0,0.0,0.0,0.0,0.0,0.0,0.0,0.0,0.0,0.0,0.0,0.0,0.0,0.0,0.0,0.0,0.0,0.0,0.0,0.0,0.0,0.0,0.0,0.0,0.0,0.0,0.0,0.0,0.0,0.0,0.0,0.0,0.0,0.0,0.0,0.0,0.0,0.0,0.0,0.0,0.0,0.0,0.0,0.0,0.0,2.0146,2.3032,2.4621,2.423,2.1868,2.1087,1.8575,0.0,0.0,0.0,0.0,0.0,0.0,0.0,0.0,0.0,0.0,0.0,0.0,0.0,0.0,0.0,0.0,0.0,0.0,0.0,0.0,0.0,0.0,0.0,0.0,0.0,0.0,0.0,0.0,0.0,0.0,0.0,0.0,0.0,0.0,0.0,0.0,0.0,0.0,0.0,0.0,0.0,0.0,0.0,0.0,0.0,0.0,0.0,0.0,0.0,0.0,0.0,0.0,0.0,0.0,0.0,0.0,0.0,0.0,0.0,0.0,0.0,0.0,0.0,0.0,0.0,0.0,0.0,0.0,0.0,0.0,0.0,0.0,0.0,0.0,0.0,0.0,0.0,0.0,0.0,0.0,0.0,0.0,0.0,0.0,0.0,0.0,0.0,0.0,0.0,0.0,0.0,0.0,0.0,0.0,0.0,0.0,0.0,0.0,0.0,0.0,0.0,0.0,0.0,0.0,0.0,0.0,0.0,0.0,0.0,2.1773,2.202,2.3019,2.4679,1.9889,1.7648,0.0,0.0,0.0,0.0,0.0,0.0,0.0,0.0,0.0,0.0,0.0,0.0,0.0,0.0,0.0,0.0,0.0,0.0,0.0,0.0,0.0,0.0,0.0,0.0,0.0,0.0,0.0,0.0,0.0,0.0,0.0,0.0,0.0,0.0,0.0,0.0,0.0,0.0,0.0,0.0,0.0,0.0,0.0,0.0,0.0,0.0,0.0,0.0,0.0,0.0,0.0,0.0,0.0,0.0,0.0,0.0,0.0,0.0,0.0,0.0,0.0,0.0,0.0,0.0,0.0,0.0,0.0,0.0,0.0,0.0,0.0,0.0,0.0,0.0,0.0,0.0,0.0,0.0,0.0,0.0,0.0,0.0,0.0,0.0,0.0,0.0,0.0,0.0,0.0,0.0,0.0,0.0,0.0,0.0,0.0,0.0,0.0,0.0,0.0,0.0,0.0,0.0,0.0,0.0,0.0,0.0,0.0,0.0,0.0,2.1428,2.1754,2.2739,2.4455,1.9845,1.7793,1.8766,0.0,0.0,0.0,0.0,0.0,0.0,0.0,0.0,0.0,0.0,0.0,0.0,0.0,0.0,0.0,0.0,0.0,0.0,0.0,0.0,0.0,0.0,0.0,0.0,0.0,0.0,0.0,0.0,0.0,0.0,0.0,0.0,0.0,0.0,0.0,0.0,0.0,0.0,0.0,0.0,0.0,0.0,0.0,0.0,0.0,0.0,0.0,0.0,0.0,0.0,0.0,0.0,0.0,0.0,0.0,0.0,0.0,0.0,0.0,0.0,0.0,0.0,0.0,0.0,0.0,0.0,0.0,0.0,0.0,0.0,0.0,0.0,0.0,0.0,0.0,0.0,0.0,0.0,0.0,0.0,0.0,0.0,0.0,0.0,0.0,0.0,0.0,0.0,0.0,0.0,0.0,0.0,0.0,0.0,0.0,0.0,0.0,0.0,0.0,0.0,0.0,0.0,0.0,0.0,0.0,0.0,0.0,0.0,2.1687,2.3278,2.33,2.1675,2.0662,1.8822,0.0,0.0,0.0,0.0,0.0,0.0,0.0,0.0,0.0,0.0,0.0,0.0,0.0,0.0,0.0,0.0,0.0,0.0,0.0,0.0,0.0,0.0,0.0,0.0,0.0,0.0,0.0,0.0,0.0,0.0,0.0,0.0,0.0,0.0,0.0,0.0,0.0,0.0,0.0,0.0,0.0,0.0,0.0,0.0,0.0,0.0,0.0,0.0,0.0,0.0,0.0,0.0,0.0,0.0,0.0,0.0,0.0,0.0,0.0,0.0,0.0,0.0,0.0,0.0,0.0,0.0,0.0,0.0,0.0,0.0,0.0,0.0,0.0,0.0,0.0,0.0,0.0,0.0,0.0,0.0,0.0,0.0,0.0,0.0,0.0,0.0,0.0,0.0,0.0,0.0,0.0,0.0,0.0,0.0,0.0,0.0,0.0,0.0,0.0,0.0,0.0,0.0,0.0,0.0,0.0,0.0,0.0,0.0,0.0,2.1316,2.197,2.2802,2.3675,2.0271,1.8318,0.0,0.0,0.0,0.0,0.0,0.0,0.0,0.0,0.0,0.0,0.0,0.0,0.0,0.0,0.0,0.0,0.0,0.0,0.0,0.0,0.0,0.0,0.0,0.0,0.0,0.0,0.0,0.0,0.0,0.0,0.0,0.0,0.0,0.0,0.0,0.0,0.0,0.0,0.0,0.0,0.0,0.0,0.0,0.0,0.0,0.0,0.0,0.0,0.0,0.0,0.0,0.0,0.0,0.0,0.0,0.0,0.0,0.0,0.0,0.0,0.0,0.0,0.0,0.0,0.0,0.0,0.0,0.0,0.0,0.0,0.0,0.0,0.0,0.0,0.0,0.0,0.0,0.0,0.0,0.0,0.0,0.0,0.0,0.0,0.0,0.0,0.0,0.0,0.0,0.0,0.0,0.0,0.0,0.0,0.0,0.0,0.0,0.0,0.0,0.0,0.0,0.0,0.0,0.0,0.0,0.0,0.0,0.0,2.0303,2.1117,2.1658,2.2429,2.354,2.0396,1.8488,0.0,0.0,0.0,0.0,0.0,0.0,0.0,0.0,0.0,0.0,0.0,0.0,0.0,0.0,0.0,0.0,0.0,0.0,0.0,0.0,0.0,0.0,0.0,0.0,0.0,0.0,0.0,0.0,0.0,0.0,0.0,0.0,0.0,0.0,0.0,0.0,0.0,0.0,0.0,0.0,0.0,0.0,0.0,0.0,0.0,0.0,0.0,0.0,0.0,0.0,0.0,0.0,0.0,0.0,0.0,0.0,0.0,0.0,0.0,0.0,0.0,0.0,0.0,0.0,0.0,0.0,0.0,0.0,0.0,0.0,0.0,0.0,0.0,0.0,0.0,0.0,0.0,0.0,0.0,0.0,0.0,0.0,0.0,0.0,0.0,0.0,0.0,0.0,0.0,0.0,0.0,0.0,0.0,0.0,0.0,0.0,0.0,0.0,0.0,0.0,0.0,0.0,0.0,0.0,0.0,0.0,0.0,0.0,2.0426,2.1179,2.2011,2.2325,2.2011,2.0869,1.9165,0.0,0.0,0.0,0.0,0.0,0.0,0.0,0.0,0.0,0.0,0.0,0.0,0.0,0.0,0.0,0.0,0.0,0.0,0.0,0.0,0.0,0.0,0.0,0.0,0.0,0.0,0.0,0.0,0.0,0.0,0.0,0.0,0.0,0.0,0.0,0.0,0.0,0.0,0.0,0.0,0.0,0.0,0.0,0.0,0.0,0.0,0.0,0.0,0.0,0.0,0.0,0.0,0.0,0.0,0.0,0.0,0.0,0.0,0.0,0.0,0.0,0.0,0.0,0.0,0.0,0.0,0.0,0.0,0.0,0.0,0.0,0.0,0.0,0.0,0.0,0.0,0.0,0.0,0.0,0.0,0.0,0.0,0.0,0.0,0.0,0.0,0.0,0.0,0.0,0.0,0.0,0.0,0.0,0.0,0.0,0.0,0.0,0.0,0.0,0.0,0.0,0.0,0.0,0.0,0.0,0.0,0.0,0.0,2.0618,2.1501,2.2385,2.2625,2.2331,2.0962,1.9446,0.0,0.0,0.0,0.0,0.0,0.0,0.0,0.0,0.0,0.0,0.0,0.0,0.0,0.0,0.0,0.0,0.0,0.0,0.0,0.0,0.0,0.0,0.0,0.0,0.0,0.0,0.0,0.0,0.0,0.0,0.0,0.0,0.0,0.0,0.0,0.0,0.0,0.0,0.0,0.0,0.0,0.0,0.0,0.0,0.0,0.0,0.0,0.0,2.331,0.0,0.0,0.0,0.0,0.0,0.0,0.0,0.0,0.0,0.0,0.0,0.0,0.0,0.0,0.0,0.0,0.0,0.0,0.0,0.0,0.0,0.0,0.0,0.0,0.0,0.0,0.0,0.0,0.0,0.0,0.0,0.0,0.0,0.0,0.0,0.0,0.0,0.0,0.0,0.0,0.0,0.0,0.0,0.0,0.0,0.0,0.0,0.0,0.0,0.0,0.0,0.0,0.0,0.0,0.0,0.0,0.0,0.0,0.0,2.1069,2.1944,2.2692,2.2933,2.2605,2.147,2.0027,0.0,0.0,0.0,0.0,0.0,0.0,0.0,0.0,0.0,0.0,0.0,0.0,0.0,0.0,0.0,0.0,0.0,0.0,0.0,0.0,0.0,0.0,0.0,0.0,0.0,0.0,0.0,0.0,0.0,0.0,0.0,0.0,0.0,0.0,0.0,0.0,0.0,0.0,0.0,0.0,0.0,0.0,0.0,0.0,0.0,0.0,0.0,0.0,0.0,0.0,0.0,0.0,0.0,0.0,0.0,0.0,0.0,0.0,0.0,0.0,0.0,0.0,0.0,0.0,0.0,0.0,0.0,0.0,0.0,0.0,0.0,0.0,0.0,0.0,0.0,0.0,0.0,0.0,0.0,0.0,0.0,0.0,0.0,0.0,0.0,0.0,0.0,0.0,0.0,0.0,0.0,0.0,0.0,0.0,0.0,0.0,0.0,0.0,0.0,0.0,0.0,0.0,0.0,0.0,0.0,0.0,0.0,2.0629,2.151,2.2458,2.3033,2.316,2.2799,2.2097,2.0635,1.8577,0.0,0.0,0.0,0.0,0.0,0.0,0.0,0.0,0.0,0.0,0.0,0.0,0.0,0.0,0.0,0.0,0.0,0.0,0.0,0.0,0.0,0.0,0.0,0.0,0.0,0.0,0.0,0.0,0.0,0.0,0.0,0.0,0.0,0.0,0.0,0.0,0.0,0.0,1.9705,2.0348,0.0,0.0,0.0,0.0,0.0,0.0,0.0,0.0,2.4712,0.0,0.0,0.0,0.0,0.0,0.0,0.0,0.0,0.0,0.0,0.0,0.0,0.0,0.0,0.0,0.0,0.0,0.0,0.0,0.0,0.0,0.0,0.0,0.0,0.0,0.0,0.0,0.0,0.0,0.0,0.0,0.0,0.0,0.0,0.0,0.0,0.0,0.0,0.0,0.0,0.0,0.0,0.0,0.0,0.0,0.0,0.0,0.0,0.0,0.0,0.0,0.0,0.0,0.0,0.0,0.0,2.0483,2.0705,2.141,2.2759,2.314,2.306,2.2505,2.2111,2.0835,1.8604,0.0,0.0,0.0,0.0,0.0,0.0,0.0,0.0,0.0,0.0,0.0,0.0,0.0,0.0,0.0,0.0,0.0,0.0,0.0,0.0,0.0,0.0,0.0,0.0,0.0,0.0,0.0,0.0,0.0,0.0,0.0,0.0,0.0,0.0,0.0,0.0,0.0,0.0,0.0,2.0859,2.2435,0.0,0.0,0.0,0.0,0.0,0.0,0.0,0.0,2.3616,0.0,0.0,0.0,0.0,0.0,0.0,0.0,0.0,0.0,0.0,0.0,0.0,0.0,0.0,0.0,0.0,0.0,0.0,0.0,0.0,0.0,0.0,0.0,0.0,0.0,0.0,0.0,0.0,0.0,0.0,0.0,0.0,0.0,0.0,0.0,0.0,0.0,0.0,0.0,0.0,0.0,0.0,0.0,0.0,0.0,0.0,0.0,0.0,0.0,0.0,0.0,0.0,0.0,0.0,0.0,1.9738,2.1109,2.2217,2.2846,2.332,2.3267,2.2652,2.163,2.0334,0.0,0.0,0.0,0.0,0.0,0.0,0.0,0.0,0.0,0.0,0.0,0.0,0.0,0.0,0.0,0.0,0.0,0.0,0.0,0.0,0.0,0.0,0.0,0.0,0.0,0.0,0.0,0.0,0.0,0.0,0.0,0.0,0.0,0.0,0.0,0.0,0.0,0.0,0.0,0.0,2.0436,2.1078,2.3087,0.0,0.0,0.0,0.0,0.0,0.0,2.422,2.3502,0.0,0.0,0.0,0.0,0.0,0.0,0.0,0.0,0.0,0.0,0.0,0.0,0.0,0.0,0.0,0.0,0.0,0.0,0.0,0.0,0.0,0.0,0.0,0.0,0.0,0.0,0.0,0.0,0.0,0.0,0.0,0.0,0.0,0.0,0.0,0.0,0.0,0.0,0.0,0.0,0.0,0.0,0.0,0.0,0.0,0.0,0.0,0.0,0.0,0.0,0.0,0.0,0.0,0.0,0.0,1.9025,2.1316,2.2693,2.2941,2.3394,2.3367,2.2692,2.1269,1.992,0.0,0.0,0.0,0.0,0.0,0.0,0.0,0.0,0.0,0.0,0.0,0.0,0.0,0.0,0.0,0.0,0.0,0.0,0.0,0.0,0.0,0.0,0.0,0.0,0.0,0.0,0.0,0.0,0.0,0.0,0.0,0.0,0.0,0.0,0.0,0.0,0.0,0.0,0.0,0.0,0.0,2.0766,2.279,2.3265,0.0,0.0,0.0,0.0,2.463,2.4049,0.0,0.0,0.0,0.0,0.0,0.0,0.0,0.0,0.0,0.0,0.0,0.0,0.0,0.0,0.0,0.0,0.0,0.0,0.0,0.0,0.0,0.0,0.0,0.0,0.0,0.0,0.0,0.0,0.0,0.0,0.0,0.0,0.0,0.0,0.0,0.0,0.0,0.0,0.0,0.0,0.0,0.0,0.0,0.0,0.0,0.0,0.0,0.0,0.0,0.0,0.0,0.0,0.0,0.0,0.0,0.0,1.9252,2.0628,2.1817,2.2881,2.32,2.2959,2.2118,2.1643,2.0308,0.0,0.0,0.0,0.0,0.0,0.0,0.0,0.0,0.0,0.0,0.0,0.0,0.0,0.0,0.0,0.0,0.0,0.0,0.0,0.0,0.0,0.0,0.0,0.0,0.0,0.0,0.0,0.0,0.0,0.0,0.0,0.0,0.0,0.0,0.0,0.0,0.0,0.0,0.0,0.0,0.0,2.4576,2.2844,2.5154,2.6027,0.0,0.0,2.6493,2.3815,2.3691,0.0,0.0,0.0,0.0,0.0,0.0,0.0,0.0,0.0,0.0,0.0,0.0,0.0,0.0,0.0,0.0,0.0,0.0,0.0,0.0,0.0,0.0,0.0,0.0,0.0,0.0,0.0,0.0,0.0,0.0,0.0,0.0,0.0,0.0,0.0,0.0,0.0,0.0,0.0,0.0,0.0,0.0,0.0,0.0,0.0,0.0,0.0,0.0,0.0,0.0,0.0,0.0,0.0,0.0,0.0,1.7201,1.939,2.1002,2.2178,2.2839,2.3166,2.2979,2.2245,2.1149,1.9619,0.0,0.0,0.0,0.0,0.0,0.0,0.0,0.0,0.0,0.0,0.0,0.0,0.0,0.0,0.0,0.0,0.0,0.0,0.0,0.0,0.0,0.0,0.0,0.0,0.0,0.0,0.0,0.0,0.0,0.0,0.0,0.0,0.0,0.0,0.0,0.0,0.0,0.0,0.0,0.0,0.0,0.0,2.2479,2.515,0.0,0.0,0.0,2.5951,2.3235,0.0,0.0,0.0,0.0,0.0,0.0,0.0,0.0,0.0,0.0,0.0,0.0,0.0,0.0,0.0,0.0,0.0,0.0,0.0,0.0,0.0,0.0,0.0,0.0,0.0,0.0,0.0,0.0,0.0,0.0,0.0,0.0,0.0,0.0,0.0,0.0,0.0,0.0,0.0,0.0,0.0,0.0,0.0,0.0,0.0,0.0,0.0,0.0,0.0,0.0,0.0,0.0,0.0,0.0,0.0,0.0,0.0,1.9417,2.1309,2.2492,2.2921,2.302,2.2846,2.2305,2.0755,0.0,0.0,0.0,0.0,0.0,0.0,0.0,0.0,0.0,0.0,0.0,0.0,0.0,0.0,0.0,0.0,0.0,0.0,0.0,0.0,0.0,0.0,0.0,0.0,0.0,0.0,0.0,1.81,0.0,0.0,0.0,0.0,0.0,0.0,0.0,0.0,0.0,0.0,0.0,0.0,0.0,0.0,2.4474,2.2998,2.521,2.5898,0.0,0.0,2.5202,2.246,2.2267,2.2027,0.0,0.0,0.0,0.0,0.0,0.0,0.0,0.0,0.0,0.0,0.0,0.0,0.0,0.0,0.0,0.0,0.0,0.0,0.0,0.0,0.0,0.0,0.0,0.0,0.0,0.0,0.0,0.0,0.0,0.0,0.0,0.0,0.0,0.0,0.0,0.0,0.0,0.0,0.0,0.0,0.0,0.0,0.0,0.0,0.0,0.0,0.0,0.0,0.0,0.0,0.0,0.0,0.0,0.0,0.0,1.941,2.1116,2.2291,2.2832,2.2612,2.2331,2.2004,2.0835,1.9259,0.0,0.0,0.0,0.0,0.0,0.0,0.0,0.0,0.0,0.0,0.0,0.0,0.0,0.0,0.0,0.0,0.0,0.0,0.0,0.0,0.0,0.0,0.0,0.0,0.0,0.0,0.0,0.0,0.0,0.0,0.0,0.0,0.0,0.0,0.0,0.0,0.0,0.0,0.0,0.0,0.0,2.6166,2.5027,2.5941,2.5541,0.0,0.0,2.4688,2.1348,2.2319,2.3179,2.2282,0.0,0.0,0.0,0.0,0.0,0.0,0.0,0.0,0.0,0.0,0.0,0.0,0.0,0.0,0.0,0.0,0.0,0.0,0.0,0.0,0.0,0.0,0.0,0.0,0.0,0.0,0.0,0.0,0.0,0.0,0.0,0.0,0.0,0.0,0.0,0.0,0.0,0.0,0.0,0.0,0.0,0.0,0.0,0.0,0.0,0.0,0.0,0.0,0.0,0.0,0.0,0.0,0.0,1.7589,1.9417,2.1096,2.2271,2.2887,2.2572,2.2285,2.1991,2.1029,1.9539,0.0,0.0,0.0,0.0,0.0,0.0,0.0,0.0,0.0,0.0,0.0,0.0,0.0,0.0,0.0,0.0,0.0,0.0,0.0,0.0,0.0,0.0,0.0,0.0,0.0,0.0,0.0,0.0,1.9404,1.9961,2.0283,0.0,0.0,0.0,0.0,0.0,0.0,0.0,0.0,0.0,0.0,2.7073,2.4851,2.5985,0.0,0.0,2.3383,2.382,2.1604,2.2352,2.3006,2.2502,2.2704,0.0,0.0,0.0,0.0,0.0,0.0,0.0,0.0,0.0,0.0,0.0,0.0,0.0,0.0,0.0,0.0,0.0,0.0,0.0,0.0,0.0,0.0,0.0,0.0,0.0,0.0,0.0,0.0,0.0,0.0,0.0,0.0,0.0,0.0,0.0,0.0,0.0,0.0,0.0,0.0,0.0,0.0,0.0,0.0,0.0,0.0,0.0,0.0,0.0,0.0,0.0,0.0,1.7582,1.9352,2.1009,2.2138,2.2712,2.2352,2.2064,2.1837,2.0922,1.9566,0.0,0.0,0.0,0.0,0.0,0.0,0.0,0.0,0.0,0.0,0.0,0.0,0.0,0.0,0.0,0.0,0.0,0.0,0.0,0.0,0.0,0.0,0.0,0.0,0.0,0.0,0.0,0.0,1.9932,2.0371,2.04,0.0,0.0,0.0,0.0,0.0,0.0,0.0,0.0,0.0,0.0,2.7244,2.49,2.5444,2.5189,2.274,2.319,2.3432,2.2431,2.3234,2.393,2.3716,0.0,0.0,0.0,0.0,0.0,0.0,0.0,0.0,0.0,0.0,0.0,0.0,0.0,0.0,0.0,0.0,0.0,0.0,0.0,0.0,0.0,0.0,0.0,0.0,0.0,0.0,0.0,2.3,0.0,0.0,2.043,0.0,0.0,0.0,0.0,0.0,0.0,0.0,0.0,0.0,0.0,0.0,0.0,0.0,0.0,0.0,0.0,0.0,0.0,0.0,0.0,0.0,0.0,1.7582,1.9345,2.0877,2.185,2.2392,2.1871,2.1648,2.1608,2.0441,1.9265,1.7989,0.0,0.0,0.0,0.0,0.0,0.0,0.0,0.0,0.0,0.0,0.0,0.0,0.0,0.0,0.0,0.0,0.0,0.0,0.0,0.0,0.0,0.0,0.0,0.0,0.0,0.0,1.9258,1.9668,1.9951,0.0,0.0,0.0,0.0,0.0,0.0,0.0,0.0,0.0,0.0,2.6803,2.6359,2.5346,2.4183,2.3489,2.335,2.3615,2.3828,2.3858,2.5337,2.6495,0.0,0.0,0.0,0.0,0.0,0.0,0.0,0.0,0.0,0.0,0.0,0.0,0.0,0.0,0.0,0.0,0.0,0.0,0.0,0.0,0.0,0.0,0.0,0.0,0.0,0.0,0.0,2.6241,2.4966,0.0,0.0,0.0,0.0,0.0,0.0,0.0,0.0,0.0,0.0,0.0,2.5003,2.4553,0.0,0.0,0.0,0.0,0.0,0.0,0.0,0.0,0.0,0.0,0.0,0.0,1.7488,1.9065,2.0715,2.1802,2.2104,2.175,2.1621,2.1608,2.0601,1.9259,1.7554,0.0,0.0,0.0,0.0,0.0,0.0,0.0,0.0,0.0,0.0,0.0,0.0,0.0,0.0,0.0,0.0,0.0,0.0,0.0,0.0,0.0,0.0,0.0,0.0,0.0,1.9238,0.0,0.0,0.0,0.0,0.0,0.0,0.0,0.0,0.0,0.0,0.0,2.6912,2.6499,2.628,2.5682,2.4428,2.39,2.4102,0.0,0.0,0.0,0.0,0.0,0.0,0.0,0.0,0.0,0.0,0.0,0.0,0.0,0.0,2.9163,2.5117,2.3619,2.3209,2.3665,0.0,0.0,0.0,0.0,0.0,0.0,0.0,0.0,0.0,0.0,0.0,0.0,0.0,0.0,2.7427,0.0,2.5261,0.0,0.0,0.0,0.0,0.0,0.0,0.0,0.0,2.3309,2.4183,2.553,2.5667,2.5888,0.0,2.665,2.5199,0.0,0.0,0.0,0.0,0.0,0.0,0.0,0.0,1.7789,1.9359,2.0708,2.1543,2.1804,2.155,2.1396,2.1383,2.0548,1.9802,1.9206,1.9514,1.9479,0.0,0.0,0.0,0.0,0.0,0.0,0.0,0.0,0.0,0.0,0.0,0.0,0.0,0.0,0.0,0.0,0.0,0.0,0.0,0.0,0.0,0.0,0.0,2.001,0.0,0.0,0.0,0.0,0.0,0.0,0.0,0.0,0.0,2.7101,2.8342,2.885,2.8294,2.7982,2.7053,2.5236,0.0,0.0,0.0,0.0,0.0,0.0,0.0,3.1083,3.1855,3.1912,3.1715,3.1423,3.1643,3.0831,2.7516,0.0,0.0,2.5673,2.4647,2.4257,2.4727,2.5043,2.5081,2.4695,2.5182,2.5324,0.0,0.0,0.0,0.0,0.0,0.0,0.0,0.0,2.6911,2.69,0.0,2.5891,0.0,0.0,0.0,0.0,0.0,2.2848,0.0,0.0,2.5359,2.5685,2.5423,2.685,2.7401,2.7194,2.9013,2.8096,2.4551,2.1377,0.0,0.0,0.0,0.0,0.0,0.0,1.8477,2.0087,2.0802,2.1249,2.1588,2.1263,2.1109,2.1076,2.0267,2.0728,2.267,2.2213,2.1761,2.1257,2.1556,0.0,0.0,0.0,0.0,0.0,0.0,0.0,0.0,0.0,0.0,0.0,0.0,0.0,0.0,0.0,0.0,0.0,0.0,0.0,0.0,2.0654,0.0,0.0,0.0,0.0,0.0,0.0,0.0,0.0,0.0,0.0,2.8461,3.0537,3.2013,3.1887,0.0,0.0,0.0,0.0,2.8128,2.6845,2.9336,3.1361,3.1454,3.3671,3.5002,3.4187,0.0,0.0,2.9241,2.9975,2.913,2.3584,2.3504,2.5384,2.9021,2.8271,2.7757,2.795,2.724,2.6817,2.6176,2.6113,2.6005,2.9597,0.0,0.0,0.0,0.0,2.9148,3.0011,3.1683,3.1197,3.0259,2.904,2.8669,0.0,0.0,0.0,0.0,0.0,0.0,2.4106,2.5397,2.3679,2.3873,2.5759,2.5116,2.5303,2.6338,2.6918,2.6489,2.505,2.2903,2.0456,1.7835,0.0,0.0,0.0,0.0,1.8998,1.9907,2.0708,2.1149,2.1236,2.1156,2.1015,2.0808,2.0354,2.0183,2.0437,2.0881,2.0811,2.0206,2.0184,0.0,0.0,0.0,0.0,0.0,0.0,0.0,0.0,0.0,0.0,0.0,0.0,0.0,0.0,0.0,0.0,0.0,0.0,0.0,1.9019,1.9824,2.0171,0.0,0.0,0.0,0.0,0.0,0.0,0.0,0.0,0.0,2.8541,2.8279,2.8429,0.0,0.0,2.6505,2.6945,2.6203,2.6012,2.7331,2.9527,0.0,3.3151,3.4539,3.5114,3.4302,3.3167,3.1614,2.9498,2.8271,2.6433,2.3226,2.0522,1.9071,2.0061,2.0631,2.1444,2.3041,2.3404,2.3878,2.5283,2.5732,2.5711,3.04,2.8559,2.942,3.0338,3.1204,3.0895,3.1636,3.3021,3.2321,3.1467,3.054,3.0181,2.8179,2.4944,2.3755,0.0,0.0,0.0,2.3489,2.4928,2.2505,2.2316,2.3962,2.388,2.4253,2.5222,2.5985,2.5875,2.4919,2.3878,2.1759,1.866,0.0,0.0,1.7695,1.8738,1.9619,2.0307,2.0835,2.1102,2.1102,2.1102,2.0969,2.0681,2.0388,2.0361,2.0707,2.1177,2.1222,2.057,2.075,1.987,0.0,0.0,0.0,0.0,0.0,0.0,0.0,0.0,0.0,0.0,0.0,2.1401,1.9259,0.0,0.0,0.0,1.8914,1.9094,1.9349,2.0198,0.0,0.0,0.0,0.0,0.0,0.0,0.0,2.5551,2.5614,2.5952,2.7142,2.6496,2.6973,2.9867,2.8208,2.6975,2.7722,0.0,2.7078,2.7955,2.9897,3.1733,3.3042,3.3831,3.3795,3.2527,3.156,2.9862,2.7337,2.5714,2.3502,1.9835,1.6844,1.4483,1.2645,1.2833,1.4602,1.8667,2.0944,2.2637,2.42,2.5217,2.5859,3.0301,2.7247,2.9978,3.1554,3.2201,3.2201,3.2066,3.1706,3.0894,3.0837,3.1256,3.0345,2.8446,2.5823,2.3116,0.0,2.3602,2.2354,2.2475,2.3579,2.1894,2.1156,2.1253,2.302,2.3843,2.3921,2.5675,2.5689,2.4265,2.4207,2.2794,2.0184,1.9325,1.9205,1.978,1.986,2.0301,2.1089,2.1102,2.1102,2.1102,2.1102,2.0969,2.0681,2.0388,2.0865,2.2379,2.2431,2.2207,2.171,2.2292,2.1159,1.7945,0.0,0.0,0.0,0.0,0.0,0.0,0.0,0.0,0.0,0.0,0.0,0.0,0.0,0.0,0.0,1.977,0.0,2.0334,2.1273,0.0,0.0,0.0,2.2826,2.396,2.3701,2.3905,2.5012,0.0,0.0,2.4645,2.4908,2.6447,3.0343,3.0295,2.9543,2.8511,2.8727,2.9174,2.7423,2.9446,3.0932,3.0573,3.1113,3.0849,2.9483,2.9046,2.7457,2.4154,2.2928,2.0222,1.4639,1.3007,1.1592,0.7136,0.7037,0.8507,1.4681,1.8966,2.1958,2.2525,2.4315,2.578,2.8773,2.7948,2.8673,2.8726,2.8297,2.8297,2.8232,2.8154,2.792,2.8641,2.9886,2.8341,2.7127,2.6206,2.5316,2.5195,2.5626,2.3886,2.3542,2.4084,2.2302,2.157,2.1777,2.2295,2.2453,2.2525,2.2979,2.2948,2.2555,2.2562,2.149,1.9524,1.9265,1.9362,1.9807,2.0454,2.0902,2.1102,2.1102,2.1102,2.1102,2.1102,2.0969,2.0681,2.0388,2.0301,2.0495,2.0481,2.0413,2.0254,2.0038,1.9278,1.7966,1.6351,0.0,0.0,0.0,0.0,0.0,0.0,0.0,0.0,0.0,2.4071,1.9401,0.0,2.2292,0.0,2.0588,2.0911,2.0248,2.1082,0.0,0.0,2.1776,2.2333,2.3704,2.3791,2.3346,2.247,2.2402,2.2065,2.0932,2.0873,2.1383,2.2611,2.3452,2.3856,2.3267,2.2127,2.1407,2.1521,2.3107,2.451,2.4778,2.5069,2.5583,2.6762,2.5629,2.4246,2.3294,2.1604,1.8879,1.4143,1.164,0.9601,0.6971,0.7787,0.926,1.1141,1.3475,1.6327,1.9531,2.2103,2.3727,2.7382,2.592,2.6647,2.6296,2.5242,2.6801,2.7513,2.7432,2.7276,2.7704,2.8521,2.6639,2.5707,2.5439,2.4629,2.4336,2.4415,2.4145,2.4194,2.4458,2.34,2.3033,2.3138,2.2508,2.2178,2.2178,2.2311,2.2372,2.2372,2.1552,2.0527,1.9396,1.8564,1.8115,1.8226,1.9382,2.0387,2.1102,2.1102,2.1102,2.1102,2.1102,2.0848,2.0314,2.0254,1.9913,1.9239,1.9339,1.9345,1.9212,1.8778,1.8046,1.7034,1.5563,1.4378,0.0,0.0,0.0,0.0,0.0,0.0,0.0,0.0,0.0,0.0,0.0,2.2551,2.174,2.1699,2.1906,2.2519,2.1797,2.128,2.1388,2.045,2.0272,2.1303,2.1404,2.0797,1.9259,1.9208,1.8617,1.6905,1.6699,1.6304,1.5537,1.6073,1.7185,1.8785,1.8208,1.7304,1.6595,1.7363,1.8186,1.844,1.9389,2.0457,2.1598,2.1767,2.1356,2.0377,1.9145,1.6875,1.2713,1.0681,0.9203,0.7135,0.7549,0.8614,0.971,1.0703,1.3036,1.7121,1.9884,2.1697,2.5574,2.2815,2.4481,2.4353,2.3187,2.627,2.7511,2.7487,2.7115,2.6913,2.6832,2.5195,2.4346,2.4021,2.2635,2.2136,2.2492,2.3912,2.4777,2.5039,2.4807,2.4678,2.4673,2.3206,2.2478,2.2485,2.2732,2.2866,2.2859,2.0969,1.9801,1.9238,1.7432,1.625,1.5914,1.7356,1.8936,2.0722,2.0976,2.1102,2.1102,2.1102,2.0708,1.992,2.0067,1.9653,1.8564,1.8804,1.8844,1.8557,1.815,1.7311,1.5998,1.4796,1.3375,0.0,1.1726,0.0,0.0,0.0,0.0,0.0,0.0,0.0,0.0,2.2332,2.3594,2.4738,2.3252,2.3029,2.4889,2.223,2.0285,1.9953,1.8209,1.7171,1.7544,1.7621,1.7061,1.5469,1.5297,1.455,1.2697,1.2386,1.1534,1.0011,0.9726,1.0947,1.3828,1.4608,1.4044,1.2485,1.2348,1.255,1.2664,1.4023,1.5291,1.5784,1.7124,1.7919,1.6041,1.5713,1.4317,1.0696,0.9868,0.9371,0.7452,0.7452,0.8341,1.0086,1.0558,1.1728,1.4982,1.7712,1.9936,2.1583,2.1286,2.2757,2.3344,2.3283,2.3701,2.3924,2.3924,2.38,2.3772,2.3812,2.4628,2.4159,2.2772,2.2217,2.2884,2.4466,2.4528,2.5662,2.7425,2.577,2.5142,2.5189,2.3609,2.2779,2.2786,2.2832,2.2866,2.2866,2.1032,1.9264,1.7607,1.5784,1.4671,1.4244,0.0,0.0,0.0,2.0392,2.1102,2.1102,2.1102,2.0802,2.018,1.9973,0.0,1.8571,1.9005,1.9145,1.8821,1.7992,0.0,0.0,0.0,0.0,0.0,0.0,0.0,0.0,0.0,0.0,0.0,1.7052,1.8429,1.8913,2.2719,2.5839,2.7302,2.6413,2.4558,2.1791,1.9737,1.7242,1.4046,1.3401,1.3391,1.3417,1.3626,1.3099,1.1065,1.0933,1.0272,0.8082,0.7932,0.7675,0.6989,0.711,0.6775,0.5921,0.7382,0.8103,0.7631,0.7703,0.7741,0.7741,0.8297,0.9574,1.0628,1.1361,1.1703,1.1379,1.1296,1.0567,0.7946,0.879,0.9878,0.9459,1.0882,1.1964,1.2608,1.2685,1.2857,1.3496,1.5409,1.7145,1.9224,0.0,1.9974,2.0315,0.0,2.1361,2.1653,2.1596,2.251,2.2866,2.2983,2.3695,2.3498,2.2632,2.2485,2.3479,2.5322,2.6079,2.7034,2.8089,2.7128,2.621,2.545,2.3734,2.2866,2.2866,2.2866,2.2866,2.2722,2.0051,1.8164,1.7183,1.4436,1.2856,1.2593,1.4092,1.607,1.8442,2.0195,2.1102,2.1102,2.1102,2.0828,2.0207,2.0241,0.0,0.0,0.0,0.0,0.0,0.0,0.0,0.0,0.0,0.0,1.1671,1.1217,1.1109,1.1515,1.165,1.2574,1.451,1.7628,2.0234,2.179,2.5259,2.7833,2.8876,2.6081,2.2773,1.9809,1.5321,1.1112,0.8125,0.6797,0.6164,0.6237,0.6307,0.5499,0.361,0.3307,0.2576,0.0417,0.0084,0.0084,0.0084,0.0,-0.0249,-0.0918,0.2064,0.442,0.3379,0.3231,0.3329,0.3413,0.4425,0.5361,0.6513,0.7589,0.8256,0.8339,0.8337,0.8265,0.8284,0.9293,1.0294,1.1552,1.2647,1.34,1.34,1.34,1.3366,1.3288,1.4126,1.5279,1.7492,1.7341,1.7449,1.758,1.776,1.9733,2.0603,2.0826,0.0,0.0,0.0,2.2893,2.2866,2.2928,2.3195,2.4331,2.6046,2.7503,2.8369,2.8624,2.8032,2.6906,2.545,2.3727,2.2866,2.2866,2.2866,2.2722,2.2297,1.8863,1.7042,1.6409,1.3313,1.1605,1.1844,1.4492,1.6759,1.8506,2.0195,2.1102,2.1102,2.1102,2.0855,2.0321,2.0494,2.0207,1.9457,1.9472,1.9379,1.9028,1.6926,1.5374,1.4651,1.2586,1.1321,1.1056,1.1069,1.1297,1.1814,1.1981,1.305,1.5339,1.932,2.2904,2.5733,2.733,2.8397,2.8969,2.3674,1.9223,1.6621,0.9886,0.4443,0.2024,-0.0078,-0.1185,-0.1121,-0.1213,-0.1717,-0.3572,-0.3583,-0.4506,-0.6027,-0.6281,-0.6702,-0.6618,-0.594,-0.6702,-0.6024,-0.1662,0.1494,0.0587,0.0,0.0,0.0,0.1513,0.2688,0.2938,0.436,0.5449,0.5533,0.5533,0.6536,0.879,0.9459,1.0463,1.2727,1.3317,1.34,1.34,1.34,1.34,1.34,1.3397,1.4009,1.5638,1.5885,1.7154,1.7824,1.8132,1.9915,2.1699,2.3234,2.3024,2.3013,2.3247,2.2979,2.2866,2.2996,2.4452,2.6113,2.7776,2.8106,2.9017,3.0254,2.7288,2.5778,2.5383,2.3727,2.2866,2.2866,2.2866,2.2091,2.0403,1.8234,1.6404,1.4716,1.2678,1.2232,1.3468,1.5087,1.6754,1.8506,2.0195,2.1102,2.1102,2.1102,2.0955,2.0628,2.0414,2.0007,1.9406,1.9853,1.9973,1.9647,1.7164,1.5684,1.5568,1.2539,1.1353,1.2935,1.3236,1.42,1.6118,1.6496,1.7647,2.0194,2.2535,2.4657,2.6569,2.5712,2.5212,2.5234,1.953,1.3852,0.8777,0.3633,-0.0927,-0.4286,-0.5237,-0.5523,-0.5714,-0.5823,-0.6123,-0.6663,-0.6194,-0.6525,-0.7361,-0.7281,-0.7531,-0.7032,-0.7863,-0.6951,-0.6531,-0.4271,-0.1844,0.0,0.0,0.0,0.0,0.0168,0.0505,0.0505,0.0,0.0,0.0,0.0,0.0,0.6451,0.7287,0.8876,1.2392,1.34,1.34,1.34,1.34,1.34,1.34,1.34,1.3556,1.3724,1.3915,1.4513,1.4823,1.5186,1.8001,2.1136,2.4083,2.344,2.3193,2.3287,2.2999,2.3461,2.4317,2.5113,2.6514,2.8172,2.8172,2.8089,2.7817,2.6239,2.4986,2.406,2.3263,2.2866,2.2866,2.1809,2.0969,1.9912,1.7102,1.5208,1.4344,1.3263,1.3155,1.393,1.6136,1.7661,1.8506,2.0195,2.1102,2.1102,2.1102,2.1049,2.0909,2.0775,2.0595,2.0327,2.0561,2.0722,2.081,1.7638,1.5983,1.6181,1.273,1.1632,1.368,1.4075,1.52,1.7318,1.8806,2.0587,2.2721,2.2831,2.3082,2.3839,2.3109,2.123,1.8059,1.1224,0.4348,-0.1448,-0.491,-0.8033,-1.096,-1.1349,-1.1444,-1.1722,-1.2818,-1.3591,-1.3647,-1.3746,-1.3877,-1.3881,-1.3881,-1.3881,-1.3802,-1.2982,-1.1346,-0.895,-0.7702,-0.6199,0.0,0.0,0.0,-0.21,-0.1849,-0.1346,-0.0253,0.0,0.0,0.0,0.0,0.0,0.4195,0.5784,0.7873,1.1134,1.2644,1.3231,1.34,1.34,1.34,1.34,1.34,1.34,1.2501,1.2491,1.2383,1.2865,1.3979,1.7319,2.1005,2.4395,2.3841,2.3487,2.338,2.3033,2.3863,2.5442,2.551,2.6506,2.7966,2.7776,2.6839,2.5584,2.5113,2.4188,2.2996,2.2866,2.2654,2.216,2.0756,1.971,1.8578,1.5839,1.4432,1.439,1.3991,1.4215,1.5086,1.7315,1.8698,1.9158,2.0392,2.1102,2.1102,2.1102,2.1102,2.1102,2.1102,2.1102,2.1102,2.1102,2.1052,2.0786,1.7722,1.5998,1.5871,1.2905,1.2033,1.404,1.4937,1.6492,1.9029,2.0965,2.2752,2.4083,2.2184,2.0409,1.9296,1.6893,1.3982,0.9242,0.1941,-0.503,-0.9569,-1.2364,-1.442,-1.5994,-1.6359,-1.6224,-1.6614,-1.8568,-2.0058,-2.0147,-2.0708,-2.1055,-2.1275,-2.1291,-2.0798,-2.0003,-1.8665,-1.5893,-1.2926,-1.2268,-1.1431,-0.9933,-0.8109,-0.6033,-0.4362,-0.3525,-0.2604,-0.0925,0.0,0.0,0.0,0.0,0.0,0.3023,0.4695,0.6618,0.8874,1.0546,1.1469,1.1469,1.1804,1.2644,1.3317,1.34,1.34,1.2579,1.2501,1.2646,1.4685,1.8089,2.0319,2.246,2.4435,2.4262,2.3968,2.3688,2.312,2.387,2.5383,2.551,2.6447,2.7908,2.6506,2.5644,2.5256,2.3856,2.3065,2.2784,2.2791,2.2016,2.0548,2.0051,1.8159,1.5345,1.4712,1.4432,1.439,1.3987,1.5503,1.8284,1.8576,1.9291,2.0786,2.1046,2.1102,2.1102,2.1102,2.1102,2.1102,2.1102,2.1102,2.1102,2.1102,2.0464,1.9007,1.71,1.5486,1.4298,1.2529,1.2477,1.4499,1.6484,1.933,2.3056,2.4036,2.4194,2.4255,2.074,1.7118,1.3426,0.4755,-0.0075,-0.0687,-0.6403,-1.2026,-1.4576,-1.6703,-1.7952,-1.8184,-1.8299,-1.8374,-1.8845,-2.0233,-2.1601,-2.2145,-2.394,-2.503,-2.5335,-2.5407,-2.4648,-2.2823,-2.113,-1.94,-1.8181,-1.7932,-1.7932,-1.6768,-1.2316,-0.7613,-0.653,-0.4612,-0.3939,-0.3103,-0.1345,0.0,0.0,0.0,0.0673,0.2177,0.3524,0.4778,0.62,0.7287,0.762,0.8457,0.9462,1.0882,1.2644,1.2979,1.2813,1.4555,1.4718,1.6056,1.8193,2.0608,2.1517,2.288,2.4536,2.4322,2.4135,2.3981,2.3581,2.4212,2.5517,2.551,2.5912,2.6514,2.5845,2.4918,2.3849,2.2072,2.1252,2.1183,1.9987,1.9072,1.8304,1.7313,1.5976,1.4641,1.4432,1.4432,1.4686,1.6234,1.7939,1.9209,1.9986,2.0708,2.1363,2.1196,2.1189,2.1329,2.1196,2.1102,2.1102,2.1102,2.1102,2.0976,2.0132,1.9352,1.8818,1.6315,1.4609,1.4231,1.2658,1.2634,1.4583,1.6819,1.9381,2.2405,2.1692,2.2034,2.413,1.7419,1.2296,1.0202,0.0,-0.7164,-0.9499,-1.4366,-1.8632,-2.0366,-2.0575,-2.0386,-2.0386,-2.0386,-2.0789,-2.2029,-2.3977,-2.5826,-2.7225,-2.8215,-2.8973,-2.9374,-2.9679,-2.8383,-2.576,-2.3989,-2.2984,-2.07,-1.9912,-1.9912,-1.9496,-1.6515,-1.3631,-1.1237,-0.9998,-0.8152,-0.5648,-0.3406,-0.1994,-0.1735,-0.0581,0.0333,0.1249,0.2171,0.3182,0.4445,0.5949,0.6702,0.6869,0.6952,0.8373,0.9293,0.9459,0.9878,1.6979,1.7309,1.9403,2.0974,2.2059,2.2597,2.3524,2.4482,2.4416,2.4282,2.4182,2.3981,2.4286,2.4973,2.5052,2.5249,2.5635,2.5162,2.3906,2.2257,2.0723,1.9849,1.9217,1.7954,1.6936,1.6349,1.5221,1.4508,1.4571,1.5008,1.5416,1.6295,1.8407,1.9778,2.0197,2.1215,2.1742,2.165,2.145,2.1456,2.1617,2.1463,2.1276,2.1079,2.0746,2.0528,2.0381,1.8812,1.7856,1.7666,1.5242,1.3776,1.3634,1.2532,1.2805,1.4731,1.6443,1.8395,2.06,1.8849,1.8886,2.0642,1.3074,0.7461,0.5004,-0.3558,-1.1055,-1.4501,-1.8584,-2.144,-2.4025,-2.3264,-2.2509,-2.2428,-2.2428,-2.3214,-2.5029,-2.7239,-2.9229,-3.1223,-3.21,-3.2861,-3.3167,-3.3123,-3.1796,-2.9372,-2.8243,-2.7146,-2.4068,-2.3176,-2.2584,-2.2345,-2.1912,-1.9549,-1.5914,-1.4027,-1.226,-0.9339,-0.654,-0.4899,-0.4218,-0.2538,-0.1152,-0.1151,0.058,0.1832,0.2335,0.3921,0.5352,0.5612,0.5782,0.6115,0.7203,0.6785,0.7453,1.9292,1.961,2.1507,2.2319,2.2217,2.4078,2.4767,2.4629,2.4609,2.4462,2.4242,2.4202,2.4087,2.3941,2.3927,2.4742,2.5842,2.4365,2.2574,2.0826,2.0198,1.9083,1.7393,1.7188,1.6306,1.4911,1.4826,1.4762,1.4907,1.6377,1.8019,1.9698,1.9834,2.0576,2.1795,2.1959,2.1964,2.1957,2.1911,2.1872,2.1898,2.1885,2.154,2.0803,1.9918,1.9243,1.8679,1.7302,1.5832,1.4336,1.4071,1.333,1.215,1.2039,1.306,1.4898,1.5425,1.6429,1.7867,1.6375,1.5409,1.472,0.8265,0.2748,0.0738,-0.6757,-1.243,-1.4921,-1.7278,-2.023,-2.3493,-2.3568,-2.3722,-2.4025,-2.4179,-2.5038,-2.7055,-2.8565,-3.1069,-3.2976,-3.4437,-3.5304,-3.6408,-3.5745,-3.4609,-3.3648,-3.291,-3.1562,-3.0551,-2.9251,-2.806,-2.7374,-2.604,-2.3748,-1.9973,-1.7755,-1.5401,-1.2815,-1.0611,-0.8442,-0.7104,-0.5831,-0.4699,-0.3571,-0.2363,-0.1311,-0.0248,0.083,0.1915,0.2672,0.3353,0.4026,0.4779,0.6115,0.6617,2.2548,2.3896,2.4701,2.4681,2.4354,2.5047,2.5084,2.4649,2.4629,2.4583,2.4496,2.4476,2.4422,2.4249,2.2974,2.3273,2.46,2.3931,2.2517,2.0602,1.9289,1.7662,1.5709,1.4456,1.3562,1.3258,1.4269,1.5569,1.6981,1.8715,1.9813,2.0456,2.1495,2.2196,2.233,2.2311,2.2258,2.2245,2.2091,2.1528,2.068,2.0484,1.9759,1.8232,1.8844,1.8568,1.7267,1.5658,1.4508,1.4014,1.3087,1.2262,1.19,1.2071,1.1977,1.1664,1.1612,1.1898,1.2319,1.0709,0.9495,0.8824,0.3305,-0.1413,-0.4064,-0.8782,-1.2989,-1.4757,-1.5922,-1.7947,-1.9935,-2.0767,-2.1291,-2.2434,-2.2732,-2.3912,-2.6699,-2.8141,-2.9314,-3.1157,-3.249,-3.3536,-3.455,-3.4818,-3.4604,-3.4405,-3.393,-3.3063,-3.1638,-2.9891,-2.8656,-2.8347,-2.6849,-2.5006,-2.3629,-2.1451,-1.9308,-1.7019,-1.4801,-1.2698,-1.1056,-0.906,-0.7721,-0.5923,-0.4899,-0.3317,-0.1877,-0.0247,0.0,0.0,0.0,0.0,0.2184,0.0,0.0,2.4986,2.6281,2.6293,2.5965,2.5525,2.5418,2.509,2.4656,2.4629,2.4629,2.4482,2.3951,2.3648,2.3271,2.1527,2.1129,2.2055,2.1963,2.0883,1.8957,1.757,1.5856,1.4018,1.2536,1.1986,1.2618,1.4813,1.6712,1.8279,2.0645,2.1681,2.1728,2.2799,2.3133,2.2759,2.2619,2.2559,2.2519,2.2365,2.1761,2.0743,2.0072,1.8748,1.7092,1.7339,1.703,1.5607,1.3953,1.3177,1.3133,1.2269,1.1775,1.1979,1.222,1.1465,0.9674,0.9452,0.8731,0.7224,0.5374,0.3877,0.2822,-0.1739,-0.5555,-0.7053,-1.0139,-1.2607,-1.3834,-1.4346,-1.5238,-1.6223,-1.6604,-1.7734,-2.001,-2.0611,-2.1933,-2.5009,-2.5448,-2.6358,-2.7954,-2.9266,-3.0351,-3.1514,-3.2652,-3.3068,-3.3184,-3.3281,-3.2715,-3.1473,-2.9614,-2.832,-2.8163,-2.6512,-2.5343,-2.4403,-2.3082,-2.1672,-1.9656,-1.8622,-1.6653,-1.4548,-1.2508,-1.0448,-0.8526,-0.6596,-0.4884,-0.307,-0.1306,0.0,0.0,0.0,0.0,0.0,0.0,0.0,2.6294,2.6333,2.6079,2.5792,2.5464,2.5217,2.4923,2.4663,2.4629,2.4488,2.4025,2.2583,2.1826,2.1147,1.9478,1.8628,1.8712,1.8319,1.7346,1.5839,1.5393,1.4151,1.2393,1.2227,1.235,1.2788,1.6226,1.808,1.8599,2.1831,2.3607,2.3656,2.3128,2.29,2.3147,2.2546,2.249,2.232,2.2151,2.232,2.251,2.0437,1.8535,1.6787,1.5304,1.4388,1.3969,1.2518,1.1873,1.1928,1.1906,1.1982,1.224,1.2253,1.1399,0.9449,0.9138,0.7014,0.3421,0.109,-0.0935,-0.2863,-0.6692,-0.8604,-0.9223,-1.096,-1.2368,-1.2456,-1.2626,-1.2804,-1.2958,-1.3112,-1.4552,-1.781,-1.8572,-1.9441,-2.1032,-2.1523,-2.2159,-2.403,-2.57,-2.7058,-2.7716,-2.8857,-3.005,-3.0477,-3.0972,-3.1299,-3.0738,-2.9194,-2.8293,-2.7718,-2.6323,-2.4891,-2.4716,-2.4421,-2.329,-2.2073,-2.1568,-2.0305,-1.8113,-1.5998,-1.3861,-1.1805,-0.9029,-0.7116,-0.3426,-0.1771,-0.073,0.0,0.0,0.0,0.0,0.0,0.0,2.6273,2.6092,2.6077,2.5665,2.5237,2.5117,2.4917,2.4649,2.4629,2.3803,2.2589,2.19,2.0841,1.9252,1.7431,1.6451,1.6366,1.5023,1.4626,1.5286,1.5308,1.423,1.264,1.226,1.2982,1.4608,1.7119,1.9147,2.0705,2.3037,2.4275,2.3897,2.2437,2.1552,2.1304,1.9837,1.8932,1.8932,1.9002,1.8363,1.7168,1.654,1.5278,1.3523,1.2749,1.2481,1.2475,1.2025,1.1786,1.184,1.2033,1.2237,1.2169,1.1071,0.9452,0.7265,0.4368,0.1871,-0.0858,-0.3122,-0.515,-0.708,-0.8643,-0.9813,-1.1002,-1.1799,-1.2274,-1.2233,-1.2393,-1.2501,-1.2501,-1.2501,-1.3718,-1.6223,-1.6528,-1.7198,-1.8833,-1.9355,-1.9725,-2.0228,-2.0963,-2.1763,-2.2915,-2.4282,-2.5036,-2.6423,-2.7573,-2.8397,-2.8366,-2.77,-2.7728,-2.7487,-2.5866,-2.4025,-2.3648,-2.3493,-2.3042,-2.2812,-2.2887,-2.2732,-2.0916,-1.8492,-1.6577,-1.398,-1.13,-0.845,-0.4805,-0.246,-0.1441,-0.0483,0.0,0.0,0.0,0.0,0.0,2.6126,2.6016,2.5718,2.5431,2.5077,2.497,2.481,2.4495,2.3796,2.2738,2.1527,1.993,1.8648,1.7208,1.5314,1.4406,1.4253,1.3035,1.3186,1.4249,1.4399,1.3645,1.2568,1.2416,1.2894,1.4406,1.6389,1.8497,2.0536,2.2422,2.3353,2.2847,2.171,2.0471,1.9569,1.8125,1.7303,1.7293,1.7293,1.6615,1.5557,1.4783,1.3833,1.2831,1.2056,1.1772,1.1831,1.1289,1.1172,1.1888,1.224,1.2099,1.1321,0.9356,0.7014,0.3977,0.0857,-0.2338,-0.5078,-0.6642,-0.8361,-1.0062,-1.0469,-1.0868,-1.2083,-1.2325,-1.2355,-1.2318,-1.242,-1.2501,-1.2501,-1.2501,-1.3109,-1.4176,-1.4402,-1.4931,-1.6151,-1.6299,-1.5824,-1.5578,-1.5794,-1.6835,-1.7699,-1.8955,-1.9927,-2.1846,-2.327,-2.409,-2.4103,-2.4035,-2.4275,-2.4228,-2.2769,-2.182,-2.213,-2.2279,-2.2509,-2.3042,-2.3655,-2.3574,-2.2732,-1.9779,-1.7346,-1.3995,-1.1083,-0.9684,-0.6436,-0.3936,-0.2377,-0.1434,-0.056,0.0,0.0,0.0,0.0,2.6023,2.5936,2.5324,2.509,2.5003,2.477,2.4428,2.4031,2.2509,2.1446,2.0311,1.7507,1.5688,1.5008,1.3568,1.2807,1.2579,1.2579,1.2579,1.273,1.2807,1.2656,1.2494,1.2481,1.2625,1.3014,1.4774,1.6599,1.8492,2.0461,2.1398,2.1199,2.0614,1.9762,1.791,1.7342,1.6716,1.652,1.6666,1.6442,1.6207,1.4703,1.3797,1.3668,1.1945,1.1001,1.0853,0.975,0.9894,1.1539,1.1558,1.0606,0.9046,0.7073,0.3963,0.0312,-0.2178,-0.5216,-0.835,-0.9294,-1.0311,-1.1872,-1.2172,-1.245,-1.2355,-1.2413,-1.2433,-1.2345,-1.243,-1.2501,-1.2501,-1.2501,-1.2579,-1.2579,-1.2884,-1.2958,-1.2652,-1.2884,-1.2481,-1.0993,-1.1204,-1.2493,-1.3096,-1.4377,-1.6223,-1.7691,-1.8612,-1.9135,-1.9285,-1.9666,-1.9015,-1.9176,-1.9924,-2.008,-2.0461,-2.0536,-2.0767,-2.1297,-2.2211,-2.2583,-2.2583,-1.993,-1.7132,-1.3853,-1.1634,-1.023,-0.8521,-0.6035,-0.3846,-0.2599,-0.1576,-0.055,0.0,0.0,0.0,2.5825,2.5591,2.5231,2.4957,2.4763,2.4656,2.3722,2.2434,2.1826,1.9779,1.7431,1.607,1.4629,1.3337,1.2807,1.2501,1.2501,1.2501,1.2501,1.2501,1.2501,1.2501,1.2501,1.2501,1.2501,1.2807,1.4402,1.5769,1.6447,1.8421,1.935,1.9233,1.7862,1.6722,1.5895,1.4482,1.3467,1.3283,1.3306,1.3274,1.2892,1.1357,1.0272,1.0096,0.8502,0.7631,0.7623,0.7265,0.7234,0.778,0.7875,0.6942,0.498,0.28,0.0389,-0.2333,-0.5685,-0.8032,-0.9369,-1.0779,-1.1876,-1.2343,-1.2501,-1.2484,-1.2454,-1.2478,-1.2481,-1.245,-1.2488,-1.2501,-1.2501,-1.2501,-1.2501,-1.2501,-1.2424,-1.2501,-1.2501,-1.2424,-1.1718,-1.0072,-1.1235,-1.146,-1.1139,-1.1914,-1.3542,-1.4395,-1.5463,-1.6294,-1.6523,-1.7284,-1.7588,-1.827,-1.8869,-1.8799,-1.8799,-1.8799,-1.895,-1.9252,-1.986,-2.0386,-2.0005,-1.8643,-1.5841,-1.2951,-1.2337,-1.1169,-0.9998,-0.8212,-0.6252,-0.4223,-0.3131,-0.2194,-0.0706,0.0,0.0,2.5671,2.5471,2.507,2.4796,2.4495,2.3729,2.2657,2.1371,1.9629,1.781,1.5612,1.4556,1.3568,1.2579,1.2501,1.2501,1.2501,1.2501,1.2501,1.2501,1.2501,1.2501,1.2501,1.2501,1.2501,1.2579,1.3641,1.4629,1.554,1.6751,1.7194,1.6988,1.5957,1.493,1.3948,1.2849,1.2097,1.1992,1.1746,1.1329,1.0311,0.9285,0.8324,0.7679,0.6392,0.566,0.5016,0.491,0.5318,0.5861,0.5464,0.3974,0.179,-0.1088,-0.3578,-0.568,-0.8891,-1.0701,-1.0856,-1.1876,-1.2424,-1.2501,-1.2501,-1.2501,-1.2498,-1.2501,-1.2501,-1.2498,-1.2501,-1.2501,-1.2501,-1.2501,-1.2108,-1.1405,-1.1953,-1.2424,-1.2501,-1.2501,-1.1482,-1.0388,-1.0311,-1.0859,-0.9532,-1.0624,-1.1563,-1.2491,-1.3641,-1.4099,-1.4402,-1.5544,-1.6299,-1.6604,-1.6528,-1.607,-1.5922,-1.5922,-1.6675,-1.7056,-1.7436,-1.8038,-1.7734,-1.6904,-1.5238,-1.3186,-1.2807,-1.2189,-1.1092,-0.992,-0.8437,-0.664,-0.5315,-0.4146,-0.2819,-0.1334,-0.1334,2.5511,2.5458,2.4877,2.4629,2.4327,2.2732,2.2055,2.0916,1.7962,1.607,1.5161,1.3417,1.273,1.2501,1.2501,1.2501,1.2501,1.2501,1.2501,1.2501,1.2501,1.2501,1.2501,1.2501,1.2501,1.2501,1.2501,1.3491,1.4552,1.5161,1.508,1.4973,1.497,1.4082,1.2889,1.2196,1.2159,1.1928,1.1288,1.0357,0.9002,0.7979,0.6566,0.5018,0.3733,0.2809,0.1933,0.1871,0.2495,0.4687,0.327,0.109,-0.1169,-0.4894,-0.7307,-0.9201,-1.1011,-1.2266,-1.2347,-1.2343,-1.2501,-1.2501,-1.2501,-1.2501,-1.2501,-1.2501,-1.2501,-1.2501,-1.2501,-1.2343,-1.1798,-1.1876,-1.0701,-0.9607,-1.0701,-1.164,-1.2189,-1.2343,-1.1718,-0.9842,-0.9532,-0.9765,-0.9452,-0.9765,-1.0469,-1.2266,-1.2958,-1.3109,-1.3263,-1.3795,-1.3949,-1.3718,-1.3414,-1.2958,-1.2958,-1.2958,-1.4022,-1.4855,-1.5085,-1.5463,-1.5467,-1.4859,-1.4176,-1.3263,-1.273,-1.2501,-1.2189,-1.1014,-0.992,-0.8747,-0.7187,-0.6564,-0.5864,-0.4147,-0.3445,2.5511,2.5464,2.4883,2.4629,2.4562,2.4105,2.2967,2.1297,1.8874,1.6599,1.531,1.334,1.2579,1.2501,1.2501,1.2501,1.2501,1.2501,1.2501,1.2501,1.2501,1.2501,1.2501,1.2501,1.2501,1.2501,1.2501,1.2807,1.3186,1.341,1.3157,1.318,1.31,1.2923,1.2376,1.1786,1.2172,1.1826,1.039,0.9167,0.7858,0.5522,0.3359,0.1329,-0.1269,-0.3105,-0.3835,-0.4082,-0.3867,-0.3426,-0.2576,-0.3276,-0.6237,-0.7952,-0.9594,-1.1163,-1.203,-1.2501,-1.2501,-1.2501,-1.2501,-1.2501,-1.2501,-1.2501,-1.2501,-1.2501,-1.2501,-1.2501,-1.2501,-1.1795,-1.0233,-0.8594,-0.7736,-0.7345,-0.7581,-0.8517,-0.992,-1.1482,-1.1247,-1.0388,-1.0779,-1.125,-0.9842,-1.1014,-1.1718,-1.2424,-1.2501,-1.2501,-1.2501,-1.2501,-1.2501,-1.2501,-1.2501,-1.2501,-1.2501,-1.2501,-1.2958,-1.3564,-1.3718,-1.3718,-1.3718,-1.3645,-1.3186,-1.2881,-1.2652,-1.2501,-1.2498,-1.2343,-1.1172,-1.0075,-0.9138,-0.8514,-0.7656,-0.6332,-0.5084,2.5438,2.5264,2.4823,2.4629,2.426,2.2657,2.1141,1.9704,1.698,1.5161,1.4099,1.2881,1.2501,1.2501,1.2501,1.2501,1.2501,1.2501,1.2501,1.2501,1.2501,1.2501,1.2501,1.2501,1.2501,1.2501,1.2501,1.2501,1.2501,1.2494,1.2538,1.2259,1.1602,1.0992,1.0706,1.005,0.9218,0.8978,0.816,0.7059,0.5619,0.3156,0.0,-0.2215,-0.4693,-0.5874,-0.5824,-0.5912,-0.6568,-0.7086,-0.672,-0.6876,-0.9061,-1.0311,-1.1405,-1.2189,-1.2501,-1.2501,-1.2501,-1.2501,-1.2501,-1.2501,-1.2501,-1.2501,-1.2501,-1.2501,-1.2501,-1.2501,-1.2266,-1.1402,-0.8361,-0.7267,-0.6098,-0.5162,-0.571,-0.6724,-0.7972,-0.9765,-1.1247,-1.0859,-1.1798,-1.1798,-1.1798,-1.2111,-1.2266,-1.2501,-1.2501,-1.2501,-1.2501,-1.2501,-1.2501,-1.2501,-1.2501,-1.2501,-1.2501,-1.2501,-1.2501,-1.2881,-1.2958,-1.2958,-1.2958,-1.2807,-1.2579,-1.2501,-1.2501,-1.2501,-1.2501,-1.2424,-1.2347,-1.164,-1.0779,-1.0153,-0.9452,-0.8594,-0.7033,2.5304,2.5057,2.4378,2.4179,2.3568,2.0311,1.8799,1.8118,1.4633,1.3645,1.2881,1.273,1.2501,1.2501,1.2501,1.2501,1.2494,1.2534,1.2521,1.3202,1.3275,1.3574,1.3662,1.3538,1.3263,1.2958,1.2656,1.2579,1.2501,1.2417,1.2146,1.1667,1.0383,0.9436,0.8547,0.7151,0.6543,0.6557,0.5851,0.4414,0.2688,0.0518,-0.228,-0.5372,-0.6856,-0.7317,-0.7519,-0.757,-0.8002,-0.9674,-0.9842,-0.9842,-1.0311,-1.1327,-1.2501,-1.2501,-1.2501,-1.2501,-1.2501,-1.2501,-1.2501,-1.2501,-1.2501,-1.2501,-1.2501,-1.2501,-1.2501,-1.2266,-1.1872,-1.0311,-0.688,-0.5708,-0.4615,-0.3522,-0.4304,-0.5318,-0.6098,-0.7501,-0.8903,-1.1327,-1.1953,-1.2111,-1.2189,-1.2424,-1.2501,-1.2501,-1.2501,-1.2501,-1.2501,-1.2501,-1.2501,-1.2501,-1.2501,-1.2501,-1.2501,-1.2501,-1.2501,-1.2501,-1.2501,-1.2501,-1.2501,-1.2501,-1.2501,-1.2501,-1.2501,-1.2501,-1.2501,-1.2501,-1.2501,-1.2501,-1.2266,-1.1405,-1.1014,-1.0859,-0.8905,2.5124,2.49,2.2924,2.2124,2.1751,1.9553,1.8497,1.8189,1.5769,1.5008,1.4629,1.3263,1.2501,1.2494,1.2498,1.2494,1.2675,1.2748,1.3369,1.449,1.4784,1.5307,1.6148,1.5341,1.4895,1.4479,1.3557,1.2713,1.2501,1.2417,1.1439,1.0177,0.9264,0.8375,0.6986,0.6194,0.5378,0.49,0.3824,0.2092,0.0373,-0.1846,-0.4462,-0.7977,-0.9372,-1.0152,-1.0607,-1.0902,-1.1378,-1.1921,-1.195,-1.1876,-1.1872,-1.2266,-1.2501,-1.2501,-1.2501,-1.2501,-1.2501,-1.2501,-1.2501,-1.2501,-1.2501,-1.2501,-1.2501,-1.2501,-1.2501,-1.203,-1.0934,-0.8983,-0.6568,-0.5318,-0.2976,-0.1568,-0.149,-0.2351,-0.3522,-0.4613,-0.6095,-0.8903,-1.0698,-1.2266,-1.1953,-1.1953,-1.2111,-1.2266,-1.2501,-1.2501,-1.2501,-1.2501,-1.2501,-1.2501,-1.2501,-1.2501,-1.2501,-1.2501,-1.2501,-1.2501,-1.2501,-1.2501,-1.2501,-1.2501,-1.2501,-1.2501,-1.2501,-1.2501,-1.2501,-1.2501,-1.2501,-1.2501,-1.2501,-1.2501,-1.203,-1.1482,-0.992,2.437,2.3154,2.2029,2.0991,1.9779,1.7886,1.698,1.6675,1.4855,1.3945,1.3641,1.2954,1.2457,1.241,1.2393,1.2807,1.3536,1.3694,1.4753,1.6152,1.6596,1.6887,1.7998,1.701,1.6135,1.5291,1.4269,1.3271,1.2404,1.1324,1.038,0.918,0.7494,0.5556,0.4573,0.3354,0.0,0.0,0.1056,-0.0529,-0.1971,-0.4428,-0.7653,-0.9705,-1.1062,-1.1848,-1.1874,-1.0929,-1.1276,-1.1908,-1.1408,-1.164,-1.2108,-1.2424,-1.2501,-1.2424,-1.2501,-1.2501,-1.2501,-1.2501,-1.2501,-1.2501,-1.2501,-1.2501,-1.2501,-1.2501,-1.2501,-1.2034,-1.0701,-0.9061,-0.797,-0.5942,-0.446,-0.3366,-0.235,-0.2194,-0.274,-0.3052,-0.4456,-0.6251,-0.7501,-0.9061,-1.0701,-1.0937,-1.1482,-1.1953,-1.2343,-1.2501,-1.2501,-1.2501,-1.2501,-1.2501,-1.2501,-1.2501,-1.2501,-1.2501,-1.2501,-1.2501,-1.2501,-1.2501,-1.2501,-1.2501,-1.2501,-1.2501,-1.2501,-1.2501,-1.2501,-1.2501,-1.2501,-1.2501,-1.2501,-1.2501,-1.2501,-1.1872,-1.0466,2.3086,2.0991,2.0536,1.9478,1.7815,1.5769,1.4935,1.4552,1.3263,1.2652,1.2501,1.2494,1.2423,1.2464,1.2842,1.3585,1.4982,1.5112,1.6529,1.7917,1.828,1.842,1.8803,1.8258,1.7665,1.6178,1.514,1.4218,1.2326,1.0608,0.9384,0.7803,0.4779,0.2788,0.2254,0.1292,0.0,0.0,-0.19,-0.3069,-0.4912,-0.7733,-1.0064,-1.1059,-1.1305,-1.1155,-1.0303,-0.9225,-0.9376,-1.0007,-0.9818,-0.9439,-1.0904,-1.1624,-1.1872,-1.1953,-1.2189,-1.2501,-1.2501,-1.2501,-1.2501,-1.2501,-1.2501,-1.2501,-1.2501,-1.2501,-1.2501,-1.2189,-1.125,-0.9842,-0.9063,-0.7894,-0.6724,-0.5788,-0.4537,-0.3599,-0.3208,-0.2974,-0.2584,-0.3835,-0.4538,-0.6098,-0.8125,-0.9923,-1.0546,-1.125,-1.1718,-1.2501,-1.2501,-1.2501,-1.2501,-1.2501,-1.2501,-1.2501,-1.2501,-1.2501,-1.2501,-1.2501,-1.2501,-1.2501,-1.2501,-1.2501,-1.2501,-1.2501,-1.2501,-1.2501,-1.2501,-1.2501,-1.2501,-1.2501,-1.2501,-1.2501,-1.2501,-1.2266,-1.125,2.0795,1.8799,1.7051,1.607,1.5688,1.4022,1.3035,1.3035,1.2807,1.2501,1.2481,1.2488,1.241,1.2633,1.3882,1.456,1.5363,1.6615,1.819,1.977,2.0125,2.0846,2.1934,2.1293,1.9168,1.7245,1.5799,1.4227,1.2129,1.0196,0.8299,0.6445,0.4328,0.2286,0.0826,0.0,0.0,0.0,-0.1939,-0.4453,-0.7383,-0.9953,-1.0182,-0.9536,-0.913,-0.8762,-0.7602,-0.6797,-0.6982,-0.7229,-0.6991,-0.6835,-0.7336,-0.8862,-0.9599,-1.0311,-1.125,-1.2501,-1.2498,-1.2501,-1.2501,-1.2501,-1.2501,-1.2501,-1.2501,-1.2501,-1.2501,-1.2501,-1.2034,-1.125,-1.0075,-0.9296,-0.8125,-0.7269,-0.6412,-0.5004,-0.4145,-0.3912,-0.3366,-0.2428,-0.3523,-0.4538,-0.6098,-0.797,-0.9609,-1.0311,-1.1092,-1.1953,-1.2501,-1.2501,-1.2501,-1.2501,-1.2501,-1.2501,-1.2501,-1.2501,-1.2501,-1.2501,-1.2501,-1.2501,-1.2501,-1.2501,-1.2501,-1.2501,-1.2501,-1.2501,-1.2501,-1.2501,-1.2501,-1.2501,-1.2501,-1.2501,-1.2501,-1.2189,-1.1798,1.7659,1.6904,1.7132,1.6523,1.5612,1.5769,1.5238,1.4326,1.4172,1.3516,1.2543,1.2383,1.2257,1.249,1.3816,1.5174,1.6367,1.8149,2.0011,2.1368,2.1792,2.2285,2.2324,2.131,1.9514,1.7807,1.5825,1.3905,1.1739,0.9128,0.6765,0.5833,0.3061,0.0967,0.0297,0.0,0.0,0.0,-0.2014,-0.4368,-0.6753,-0.8079,-0.8306,-0.7252,-0.7331,-0.6771,-0.5951,-0.4776,-0.5166,-0.5629,-0.5355,-0.5201,-0.6394,-0.8087,-0.9332,-0.9484,-1.1169,-1.2245,-1.2464,-1.2488,-1.2488,-1.2494,-1.2494,-1.2501,-1.2501,-1.2491,-1.2491,-1.2501,-1.2501,-1.195,-1.1324,-1.1169,-1.0701,-0.9842,-0.8517,-0.7581,-0.633,-0.524,-0.4693,-0.3522,-0.2663,-0.4069,-0.5397,-0.688,-0.875,-0.992,-1.1014,-1.2189,-1.2501,-1.2501,-1.2501,-1.2501,-1.2501,-1.2501,-1.2501,-1.2501,-1.2501,-1.2501,-1.2501,-1.2501,-1.2501,-1.2501,-1.2082,-1.2165,-1.2333,-1.2337,-1.2333,-1.2501,-1.2501,-1.2501,-1.2501,-1.2501,-1.2501,-1.2501,-1.1876,1.4705,1.4931,1.6975,1.6904,1.576,1.7606,1.7577,1.6219,1.548,1.4422,1.3137,1.2484,1.2253,1.293,1.4483,1.631,1.804,1.9912,2.1452,2.251,2.2866,2.2811,2.2388,2.108,1.9312,1.7423,1.5705,1.3751,1.1384,0.8856,0.6858,0.5816,0.2965,0.1174,0.0949,0.0,0.0,0.0,-0.0512,-0.2324,-0.4175,-0.5264,-0.5142,-0.4936,-0.5044,-0.5231,-0.4383,-0.3227,-0.3324,-0.3683,-0.3174,-0.295,-0.4288,-0.6484,-0.7933,-0.8692,-1.0436,-1.2172,-1.2318,-1.2386,-1.242,-1.2403,-1.2389,-1.2349,-1.2366,-1.2393,-1.2423,-1.2423,-1.2433,-1.2454,-1.2491,-1.2424,-1.2111,-1.1563,-1.0937,-1.0233,-0.9374,-0.8043,-0.6486,-0.5006,-0.4382,-0.4616,-0.571,-0.6568,-0.7892,-0.9374,-1.0779,-1.2189,-1.2501,-1.2501,-1.2501,-1.2501,-1.2501,-1.2501,-1.2501,-1.2501,-1.2501,-1.2491,-1.2488,-1.1988,-1.1648,-1.1241,-1.0827,-1.1158,-1.1407,-1.0503,-0.9519,-1.1075,-1.2501,-1.2501,-1.2501,-1.2501,-1.2501,-1.2501,-1.1876,1.273,1.2881,1.4923,1.576,1.5756,1.7372,1.812,1.7748,1.593,1.4893,1.3964,1.2949,1.3021,1.4452,1.6155,1.8019,1.9843,2.1809,2.251,2.2791,2.2866,2.2722,2.2005,2.0716,1.9145,1.725,1.5246,1.3386,1.1703,0.9401,0.7419,0.5678,0.3825,0.2925,0.2899,0.3537,0.3439,0.269,0.1836,0.0985,-0.077,-0.1978,-0.2424,-0.1508,-0.2191,-0.2449,-0.0669,0.0,0.0,0.0,0.0,0.0,0.0,0.0,-0.606,-0.7333,-0.9805,-1.1421,-1.2019,-1.2213,-1.2223,-1.2149,-1.2121,-1.2166,-1.221,-1.2207,-1.2162,-1.2305,-1.2345,-1.2386,-1.2447,-1.2579,-1.3035,-1.3105,-1.294,-1.2772,-1.184,-1.0529,-0.8893,-0.6876,-0.6405,-0.6937,-0.7094,-0.8101,-0.8196,-0.9602,-1.1092,-1.2501,-1.2501,-1.2501,-1.2501,-1.2501,-1.2501,-1.2501,-1.2501,-1.2498,-1.2488,-1.2457,-1.244,-1.1287,-1.0145,-0.9824,-0.9881,-0.8628,-0.8391,-0.7515,-0.7354,-0.9114,-1.0747,-1.1995,-1.2494,-1.2467,-1.2484,-1.2501,-1.164,1.223,1.2457,1.439,1.6082,1.7568,1.9229,2.0025,1.9613,1.7708,1.5199,1.3139,1.3271,1.383,1.5154,1.7741,1.9286,2.034,2.2022,2.2654,2.2866,2.2859,2.2229,2.1163,1.9494,1.7435,1.5738,1.3901,1.2698,1.1529,0.9732,0.8612,0.7058,0.5589,0.4766,0.4936,0.5384,0.5105,0.4859,0.4359,0.3811,0.3102,0.1462,0.0773,0.1269,-0.0215,-0.0797,0.0,0.0,0.0,0.0,0.0,0.0,0.0,0.0,-0.4577,-0.576,-0.8563,-1.0334,-1.163,-1.1928,-1.2183,-1.2091,-1.2071,-1.2152,-1.2186,-1.2179,-1.2224,-1.2233,-1.2498,-1.2823,-1.2501,-1.3578,-1.4552,-1.4705,-1.4851,-1.4915,-1.4448,-1.3216,-1.1805,-1.0009,-0.9613,-0.9757,-0.9844,-1.0009,-0.9802,-0.9826,-1.1318,-1.2494,-1.2481,-1.2461,-1.2444,-1.2461,-1.2464,-1.2471,-1.2471,-1.2467,-1.2464,-1.2423,-1.2303,-1.0735,-0.928,-0.9333,-0.9005,-0.731,-0.5942,-0.5866,-0.6334,-0.7593,-0.9023,-1.0471,-1.1603,-1.2406,-1.2437,-1.2484,-1.1798,1.206,1.2281,1.3601,1.5799,1.8479,2.0281,2.1353,2.1378,1.9454,1.6697,1.3477,1.4273,1.5203,1.661,1.8578,2.0548,2.1183,2.2297,2.2722,2.2866,2.2722,2.1971,2.0377,1.8522,1.6758,1.4714,1.2671,1.1474,1.1386,0.9939,0.9482,0.8971,0.7958,0.7172,0.6514,0.7346,0.7735,0.7772,0.7713,0.6859,0.6262,0.4388,0.2829,0.249,0.0771,0.0,0.0,0.0,0.0,0.0,0.0,0.0,0.0,-0.1748,-0.3416,-0.5082,-0.6821,-0.8706,-1.036,-1.1554,-1.1948,-1.1962,-1.1915,-1.1972,-1.2101,-1.2434,-1.3052,-1.3278,-1.3543,-1.3818,-1.3879,-1.5522,-1.6317,-1.6559,-1.7051,-1.7198,-1.7046,-1.6277,-1.4762,-1.3261,-1.2934,-1.2212,-1.1255,-1.1109,-1.1002,-1.0785,-1.1454,-1.2335,-1.2386,-1.2366,-1.2342,-1.2369,-1.2406,-1.242,-1.2433,-1.24,-1.2289,-1.1947,-1.1501,-0.9855,-0.8808,-0.8629,-0.6939,-0.4231,-0.3489,-0.4249,-0.4699,-0.4996,-0.6846,-0.9054,-1.0483,-1.2099,-1.2386,-1.2433,-1.2488,1.2047,1.2135,1.2196,1.4395,1.7729,1.9707,2.1211,2.2025,2.0256,1.8082,1.5886,1.5066,1.6399,1.8863,1.9912,2.1176,2.2229,2.2722,2.2839,2.2806,2.2766,2.2523,2.078,1.855,1.6235,1.5569,1.3279,1.1253,1.1282,1.0763,1.075,1.0708,0.9951,0.9467,0.8402,1.1434,1.2943,1.2939,1.2568,1.0578,0.7925,0.5865,0.4323,0.2647,0.0962,0.0,0.0,0.0,0.0,0.0,0.0,0.0,0.0,0.0,-0.2691,-0.3342,-0.5084,-0.6966,-0.8858,-1.0615,-1.15,-1.1813,-1.1772,-1.189,-1.219,-1.3092,-1.4386,-1.4619,-1.5754,-1.6917,-1.7532,-1.7946,-1.8126,-1.8647,-1.907,-1.9682,-1.9677,-1.8945,-1.7421,-1.5554,-1.5035,-1.4453,-1.2938,-1.2009,-1.1998,-1.1933,-1.2043,-1.2159,-1.2247,-1.226,-1.2233,-1.2247,-1.2291,-1.2288,-1.2288,-1.2291,-1.2191,-1.1776,-1.0932,-0.9526,-0.7586,-0.6371,-0.4199,-0.1392,0.0,0.0,0.0,-0.1898,-0.4726,-0.7634,-1.0265,-1.1808,-1.2096,-1.2383,-1.2433,1.1769,1.1769,1.1769,1.3202,1.5452,1.6282,1.7796,1.8976,1.7283,1.5278,1.4298,1.507,1.6685,1.8514,2.0863,2.219,2.2696,2.2921,2.2881,2.2572,2.2565,2.0583,1.9003,1.7771,1.5623,1.3352,1.1503,1.1276,1.1244,1.1073,1.1023,1.0982,1.1089,1.1122,1.1946,1.3787,1.4558,1.3517,1.2865,1.1604,0.8227,0.6231,0.4427,0.2619,0.0818,0.0,0.0,0.0,0.0,0.0,0.0,0.0,0.0,0.0,-0.1675,-0.2836,-0.4794,-0.7331,-0.9579,-1.141,-1.1568,-1.1664,-1.166,-1.2158,-1.3453,-1.3924,-1.5056,-1.6286,-1.7393,-1.8089,-1.7794,-1.9182,-1.9914,-2.0763,-2.1456,-2.2485,-2.2559,-2.1256,-1.9779,-1.7604,-1.6438,-1.4568,-1.2908,-1.2497,-1.2473,-1.208,-1.1976,-1.203,-1.2118,-1.2128,-1.2115,-1.2118,-1.2138,-1.2135,-1.2135,-1.2135,-1.2094,-1.1813,-1.1064,-0.9925,-0.7721,-0.5204,-0.3074,-0.1023,0.0,0.0,0.0,-0.1457,-0.3717,-0.6332,-0.8374,-1.0854,-1.2075,-1.2298,-1.2376,1.1541,1.1535,1.1484,1.2096,1.3219,1.4106,1.5621,1.6801,1.5201,1.3825,1.4097,1.6113,1.7489,1.8735,2.0966,2.2559,2.2559,2.2552,2.2512,2.2278,2.2271,2.093,1.9223,1.7401,1.6121,1.3384,1.2018,1.18,1.1046,1.0907,1.0806,1.0974,1.1294,1.218,1.3263,1.404,1.4297,1.3251,1.2521,1.0462,0.7488,0.5227,0.3489,0.1683,0.0136,0.0,0.0,-0.0914,-0.0925,-0.0792,0.0,0.0,0.0,0.0,0.0,-0.2837,-0.5589,-0.791,-0.9795,-1.1329,-1.1479,-1.1626,-1.1616,-1.2586,-1.4301,-1.5123,-1.6547,-1.7824,-1.8665,-1.9442,-2.0008,-2.1437,-2.1728,-2.2607,-2.2929,-2.3955,-2.3632,-2.2255,-2.1185,-1.908,-1.7693,-1.5516,-1.3172,-1.2921,-1.2844,-1.231,-1.1837,-1.1911,-1.1969,-1.1959,-1.1969,-1.1982,-1.1986,-1.1982,-1.1982,-1.1979,-1.1928,-1.1847,-1.0897,-0.9817,-0.7306,-0.4666,-0.2695,0.0,0.0,0.0,0.0,-0.1313,-0.2843,-0.4163,-0.559,-0.8276,-1.1342,-1.2038,-1.2026,1.1399,1.1362,1.1302,1.1244,1.1593,1.3151,1.4913,1.6335,1.4646,1.4714,1.633,1.5963,1.6943,1.8988,2.0939,2.172,2.1952,2.1939,2.2024,2.1991,2.1971,2.1235,2.0427,1.9143,1.7085,1.5633,1.4225,1.2726,1.107,1.0222,1.0216,1.0532,1.0833,1.1336,1.1794,1.1922,1.2316,1.2115,1.1574,0.8996,0.5823,0.3891,0.2014,0.0269,-0.1349,-0.231,-0.2536,-0.2485,-0.2378,-0.191,0.0,0.0,0.0,0.0,0.0,-0.3416,-0.6675,-0.8268,-0.9574,-1.1034,-1.1472,-1.1616,-1.1616,-1.2678,-1.4164,-1.5792,-1.7499,-1.9332,-2.0714,-2.2084,-2.3291,-2.3281,-2.3282,-2.3509,-2.3635,-2.3767,-2.3677,-2.2836,-2.194,-2.074,-1.9848,-1.7796,-1.4774,-1.3845,-1.3379,-1.2186,-1.1728,-1.1755,-1.1792,-1.1752,-1.1772,-1.183,-1.183,-1.183,-1.183,-1.1833,-1.1813,-1.1752,-1.0601,-0.9388,-0.6751,-0.4576,-0.2837,0.0,0.0,0.0,0.0,0.0,-0.1166,-0.2483,-0.4095,-0.6549,-0.9934,-1.1039,-1.1323,1.143,1.124,1.1297,1.1206,1.1081,1.1539,1.2135,1.2643,1.2185,1.2456,1.2856,1.422,1.5325,1.5774,1.8741,1.9935,2.0611,2.1279,2.17,2.1757,2.167,2.0683,1.9834,1.9028,1.7529,1.6398,1.5204,1.4036,1.2215,1.0558,0.8903,0.8831,0.8687,0.835,0.8013,0.7749,0.9194,1.004,0.9695,0.7263,0.4416,0.2482,0.0537,-0.1477,-0.2684,-0.3582,-0.429,-0.3352,-0.3046,-0.2523,-0.0986,0.0,0.0,0.0,-0.1152,-0.4717,-0.7327,-0.9211,-1.0521,-1.1253,-1.1616,-1.1616,-1.1616,-1.2602,-1.4223,-1.6051,-1.7949,-2.0196,-2.1822,-2.2875,-2.3207,-2.3212,-2.2937,-2.2715,-2.2453,-2.1805,-2.1558,-2.1018,-2.0286,-2.0489,-1.968,-1.8659,-1.5717,-1.472,-1.4043,-1.2474,-1.163,-1.1657,-1.1664,-1.1636,-1.164,-1.1704,-1.1718,-1.1728,-1.1701,-1.1697,-1.1687,-1.1444,-1.0609,-0.936,-0.704,-0.5011,-0.32,0.0,0.0,0.0,0.0,0.0,0.0,-0.1893,-0.3498,-0.593,-0.8101,-0.9408,-1.0804,1.1246,1.1094,1.1111,1.1019,1.0863,1.0761,1.0833,1.0975,1.0985,1.0989,1.1257,1.2982,1.3726,1.4446,1.7351,1.9143,1.9274,2.0773,2.1496,2.1423,2.139,2.0752,1.9851,1.9285,1.8582,1.7404,1.6043,1.4749,1.2783,1.0082,0.803,0.7964,0.6231,0.5088,0.4747,0.4669,0.446,0.518,0.5114,0.4199,0.254,0.0402,-0.1944,-0.3286,-0.4156,-0.5324,-0.5897,-0.4551,-0.3835,-0.3254,-0.1597,0.0,0.0,0.0,-0.3444,-0.6801,-0.885,-1.0305,-1.1253,-1.1472,-1.1616,-1.1616,-1.1616,-1.2112,-1.3662,-1.5495,-1.8299,-2.0969,-2.2048,-2.2966,-2.2796,-2.2523,-2.1839,-2.1202,-2.0325,-1.9376,-1.8906,-1.8512,-1.8712,-1.9211,-1.8845,-1.82,-1.7032,-1.6051,-1.4578,-1.2606,-1.1616,-1.1626,-1.1636,-1.163,-1.1619,-1.165,-1.1647,-1.164,-1.1616,-1.1616,-1.163,-1.164,-1.141,-0.987,-0.7548,-0.552,-0.3635,0.0,0.0,0.0,0.0,0.0,-0.0438,-0.1748,-0.3127,-0.4956,-0.6942,-0.8343,-0.9866,1.089,1.0853,1.0575,1.0209,1.0253,1.005,1.0057,1.0253,1.0006,1.0459,1.0933,1.2363,1.291,1.3413,1.6014,1.7433,1.8108,1.9478,2.0605,2.0932,2.1176,2.0876,2.0869,2.0906,1.9871,1.8506,1.7017,1.5524,1.2779,0.9681,0.7296,0.7629,0.5427,0.3751,0.2673,0.2003,0.1267,0.0067,-0.0067,-0.0801,-0.1203,-0.3281,-0.5498,-0.5763,-0.6696,-0.7774,-0.7369,-0.6514,-0.5326,-0.4016,0.0,0.0,0.0,-0.3812,-0.6494,-0.805,-0.9729,-1.0547,-1.1067,-1.1302,-1.1544,-1.1616,-1.1616,-1.2115,-1.3523,-1.5566,-1.8444,-2.0334,-2.1408,-2.2651,-2.2826,-2.1754,-2.0763,-1.967,-1.8508,-1.7832,-1.7326,-1.7736,-1.9227,-1.9807,-2.0554,-1.9779,-1.8369,-1.7388,-1.5981,-1.3309,-1.2112,-1.2183,-1.1616,-1.1616,-1.1616,-1.1616,-1.1616,-1.1616,-1.1616,-1.1616,-1.1616,-1.1619,-1.1472,-1.0593,-0.8343,-0.6242,-0.4143,0.0,0.0,0.0,0.0,-0.1093,-0.1675,-0.2111,-0.3344,-0.4213,-0.5812,-0.7779,-0.9401,1.0975,1.0575,0.9253,0.7902,0.6767,0.6633,0.6767,0.6635,0.6633,0.8238,1.0382,1.1042,1.1303,1.1754,1.3635,1.48,1.5459,1.7859,1.8896,1.9744,2.0329,2.0912,2.1102,2.1039,2.0722,2.0132,1.857,1.5978,1.291,0.9146,0.6028,0.5694,0.3623,0.161,0.0603,-0.0268,-0.2007,-0.341,-0.4878,-0.4747,-0.4551,-0.4754,-0.5832,-0.6898,-0.8097,-0.8233,-0.7631,-0.65,-0.4835,-0.3169,-0.1284,0.0,-0.2067,-0.571,-0.6875,-0.7191,-0.9536,-1.014,-0.9962,-1.0298,-1.093,-1.1315,-1.1606,-1.2527,-1.3943,-1.5985,-1.7814,-1.9356,-2.0843,-2.2156,-2.2408,-2.0965,-1.9532,-1.8112,-1.6942,-1.6386,-1.5893,-1.779,-1.9637,-2.0771,-2.1949,-2.127,-1.9779,-1.8374,-1.7107,-1.5703,-1.4294,-1.3448,-1.204,-1.1616,-1.1616,-1.1616,-1.1616,-1.1616,-1.1616,-1.1178,-1.0959,-1.0962,-1.0815,-0.9939,-0.8848,-0.653,-0.4071,-0.2256,0.0,-0.1602,-0.2619,-0.378,-0.4142,-0.378,-0.4432,-0.5662,-0.6819,-0.8567,-0.9801,0.9235,0.8243,0.7298,0.6297,0.5498,0.5431,0.5431,0.5431,0.5431,0.65,0.8171,0.844,0.8773,0.9634,1.1329,1.2648,1.3439,1.6113,1.7731,1.8768,1.9419,2.0329,2.0716,2.1102,2.1039,2.0583,1.825,1.5584,1.2849,0.9347,0.6429,0.5228,0.2484,0.0403,-0.0806,-0.2819,-0.4223,-0.5223,-0.7764,-0.8235,-0.75,-0.7769,-0.8038,-0.9105,-0.9172,-0.9105,-0.8637,-0.75,-0.5761,-0.4024,-0.2286,-0.2572,-0.4032,-0.6615,-0.7562,-0.7822,-0.8645,-0.931,-0.8421,-0.8553,-0.9709,-1.015,-1.0359,-1.0846,-1.2885,-1.5004,-1.7879,-1.9495,-2.1459,-2.2837,-2.1144,-1.9698,-1.7806,-1.6264,-1.5797,-1.5484,-1.652,-1.8388,-1.9579,-2.0302,-2.1264,-2.1753,-2.0196,-1.8304,-1.6896,-1.5066,-1.4152,-1.3309,-1.2183,-1.1616,-1.1616,-1.1472,-1.1325,-1.1472,-1.1548,-1.0815,-0.9939,-1.0014,-1.0014,-0.8562,-0.711,-0.5662,-0.3924,-0.3199,-0.3055,-0.378,-0.4795,-0.5736,-0.5592,-0.5013,-0.6025,-0.7399,-0.8485,-0.9357,-1.0377,0.6702,0.5162,0.5029,0.4894,0.4693,0.4626,0.4561,0.4561,0.4626,0.4559,0.4693,0.4693,0.5828,0.7752,0.9465,1.1125,1.2775,1.4544,1.6302,1.7731,1.8442,1.9744,2.0716,2.1102,2.0843,1.9871,1.7923,1.5589,1.3185,0.9937,0.7486,0.5693,0.3419,0.1208,-0.1744,-0.429,-0.5628,-0.6896,-0.8704,-1.0246,-1.0585,-1.0721,-1.0452,-1.0518,-1.0721,-1.0588,-0.9915,-0.9099,-0.736,-0.583,-0.4293,-0.4853,-0.5824,-0.7764,-0.8012,-0.8481,-0.8326,-0.7857,-0.6629,-0.634,-0.7504,-0.8252,-0.8479,-0.9738,-1.197,-1.4461,-1.7327,-1.9472,-2.1365,-2.2222,-2.0542,-1.9008,-1.7117,-1.5995,-1.5858,-1.5787,-1.7619,-1.9315,-1.9999,-2.0479,-2.0831,-2.1527,-2.0265,-1.8374,-1.6545,-1.4645,-1.3381,-1.2395,-1.1688,-1.1616,-1.1616,-1.1178,-1.0815,-1.0962,-1.1329,-1.0305,-0.9139,-0.8776,-0.8559,-0.6968,-0.581,-0.5881,-0.5806,-0.5446,-0.5518,-0.6025,-0.646,-0.7185,-0.6823,-0.6751,-0.791,-0.9213,-0.9504,-1.0377,-1.1034,0.4827,0.3221,0.3221,0.2417,0.0,0.0,0.1009,0.0,0.0,0.1008,0.0,0.0,0.2684,0.5962,0.7693,0.9151,1.0141,1.2447,1.4614,1.6237,1.7538,1.9285,2.0589,2.0912,2.0138,1.9221,1.8116,1.6302,1.4288,1.164,0.92,0.7491,0.4158,0.2281,0.1207,-0.1942,-0.5559,-0.6896,-0.8773,-1.0386,-1.0518,-1.0585,-1.0717,-1.0721,-1.0721,-0.9779,-0.9163,-0.9666,-0.801,-0.6689,-0.6623,-0.7431,-0.8382,-0.9479,-0.9789,-0.9151,-0.8937,-0.7672,-0.6744,-0.5912,-0.685,-0.8196,-0.8757,-0.9437,-1.1569,-1.3652,-1.6192,-1.8138,-2.0113,-2.2265,-2.1365,-2.0196,-1.8659,-1.8659,-1.8589,-1.8729,-1.9715,-2.0906,-2.1816,-2.139,-2.09,-2.0756,-1.9918,-1.8089,-1.6333,-1.4787,-1.3868,-1.2885,-1.1688,-1.1616,-1.1616,-1.1106,-1.0524,-1.074,-1.1178,-0.9504,-0.834,-0.7905,-0.7472,-0.6677,-0.6604,-0.7544,-0.7544,-0.7329,-0.7618,-0.8052,-0.8559,-0.8781,-0.9432,-0.9651,-1.0377,-1.1106,-1.1106,-1.1034,-1.1472]},{"header":{"parameterUnit":"m.s-1","parameterCategory":1,"la1":31.0,"la2":29.5877,"lo1":-88.7671,"lo2":-86.6584,"dy":0.0162,"dx":0.0185,"nx":115,"ny":88,"refTime":"2024-09-05T00:00:00:Z","depth":0,"parameterNumber":3,"parameterNumberName":"V-component_of_WINDS"},"data":[0.0,0.0,0.0,0.0,0.0,0.0,0.0,0.0,0.0,0.0,0.0,0.0,0.0,0.0,0.0,0.0,0.0,0.0,0.0,0.0,0.0,0.0,0.0,0.0,0.0,0.0,0.0,0.0,0.0,0.0,0.0,0.0,0.0,0.0,0.0,0.0,0.0,0.0,0.0,0.0,0.0,0.0,0.0,0.0,0.0,0.0,0.0,0.0,0.0,0.0,0.0,0.0,0.0,0.0,0.0,0.0,0.0,0.0,0.0,0.0,0.0,0.0,0.0,0.0,0.0,0.0,0.0,0.0,0.0,0.0,0.0,0.0,0.0,0.0,0.0,0.0,0.0,0.0,0.0,0.0,0.0,0.0,0.0,0.0,0.0,0.0,0.0,0.0,0.0,0.0,0.0,0.0,0.0,0.0,0.0,0.0,0.0,0.0,0.0,0.0,0.0,0.0,0.0,0.0,0.0,0.0,0.0,0.0,0.0,0.0,0.0,0.0,0.0,0.0,0.0,0.0,0.0,0.0,0.0,0.0,0.0,0.0,0.0,0.0,0.0,0.0,0.0,0.0,0.0,0.0,0.0,0.0,0.0,0.0,0.0,0.0,0.0,0.0,0.0,0.0,0.0,0.0,0.0,0.0,0.0,0.0,0.0,0.0,0.0,0.0,0.0,0.0,0.0,0.0,0.0,0.0,0.0,0.0,0.0,0.0,0.0,0.0,0.0,0.0,0.0,0.0,0.0,0.0,0.0,0.0,0.0,0.0,0.0,0.0,0.0,0.0,0.0,0.0,0.0,0.0,0.0,0.0,0.0,0.0,0.0,0.0,0.0,0.0,0.0,0.0,0.0,0.0,0.0,0.0,0.0,0.0,0.0,0.0,0.0,0.0,0.0,0.0,0.0,0.0,0.0,0.0,0.0,0.0,0.0,0.0,0.0,0.0,0.0,0.0,0.0,0.0,0.0,0.0,0.0,0.0,0.0,0.0,0.0,0.0,0.0,0.0,0.0,0.0,0.0,0.0,0.0,0.0,0.0,0.0,0.0,0.0,0.0,0.0,0.0,0.0,0.0,0.0,0.0,0.0,0.0,0.0,0.0,0.0,0.0,0.0,0.0,0.0,0.0,0.0,0.0,0.0,0.0,0.0,0.0,0.0,0.0,0.0,0.0,0.0,0.0,0.0,0.0,0.0,0.0,0.0,0.0,0.0,0.0,0.0,0.0,0.0,0.0,0.0,0.0,0.0,0.0,0.0,0.0,0.0,0.0,0.0,0.0,0.0,0.0,0.0,0.0,0.0,0.0,0.0,0.0,0.0,0.0,0.0,0.0,0.0,0.0,0.0,0.0,0.0,0.0,0.0,0.0,0.0,0.0,0.0,0.0,0.0,0.0,0.0,0.0,0.0,0.0,0.0,0.0,0.0,0.0,0.0,0.0,0.0,0.0,0.0,0.0,0.0,0.0,0.0,0.0,0.0,0.0,0.0,0.0,0.0,0.0,0.0,0.0,0.0,0.0,0.0,0.0,0.0,0.0,0.0,0.0,0.0,0.0,0.0,0.0,0.0,0.0,0.0,0.0,0.0,0.0,0.0,0.0,0.0,0.0,0.0,0.0,0.0,0.0,0.0,0.0,0.0,0.0,0.0,0.0,0.0,0.0,0.0,0.0,0.0,0.0,0.0,0.0,0.0,0.0,0.0,0.0,0.0,0.0,0.0,0.0,0.0,0.0,0.0,0.0,0.0,0.0,0.0,0.0,0.0,0.0,0.0,0.0,0.0,0.0,0.0,0.0,0.0,0.0,0.0,0.0,0.0,0.0,0.0,0.0,0.0,0.0,0.0,0.0,0.0,0.0,0.0,0.0,0.0,0.0,0.0,0.0,0.0,0.0,0.0,0.0,0.0,0.0,0.0,0.0,0.0,0.0,0.0,0.0,0.0,0.0,0.0,0.0,0.0,0.0,0.0,0.0,0.0,0.0,0.0,0.0,0.0,0.0,0.0,0.0,0.0,0.0,0.0,0.0,0.0,0.0,0.0,0.0,0.0,0.0,0.0,0.0,0.0,0.0,0.0,0.0,0.0,0.0,0.0,0.0,0.0,0.0,0.0,0.0,0.0,0.0,0.0,0.0,0.0,0.0,0.0,0.0,0.0,0.0,0.0,0.0,0.0,0.0,0.0,0.0,0.0,0.0,0.0,0.0,0.0,0.0,0.0,0.0,0.0,0.0,0.0,0.0,0.0,0.0,0.0,0.0,0.0,0.0,0.0,0.0,0.0,0.0,0.0,0.0,0.0,0.0,0.0,0.0,0.0,0.0,0.0,0.0,0.0,0.0,0.0,0.0,0.0,0.0,0.0,0.0,0.0,0.0,0.0,0.0,0.0,0.0,0.0,0.0,0.0,0.0,0.0,0.0,0.0,0.0,0.0,0.0,0.0,0.0,0.0,0.0,0.0,0.0,0.0,0.0,0.0,0.0,0.0,0.0,0.0,0.0,0.0,0.0,0.0,0.0,0.0,0.0,0.0,0.0,0.0,0.0,0.0,0.0,0.0,0.0,0.0,0.0,0.0,0.0,0.0,0.0,0.0,0.0,0.0,0.0,0.0,0.0,0.0,0.0,0.0,0.0,0.0,0.0,0.0,0.0,0.0,0.0,0.0,0.0,0.0,0.0,0.0,0.0,0.0,0.0,0.0,0.0,0.0,0.0,0.0,0.0,0.0,0.0,0.0,0.0,0.0,0.0,0.0,0.0,0.0,0.0,0.0,0.0,0.0,0.0,0.0,0.0,0.0,0.0,0.0,0.0,0.0,0.0,0.0,0.0,0.0,0.0,0.0,0.0,0.0,0.0,0.0,0.0,0.0,0.0,0.0,0.0,0.0,0.0,0.0,0.0,0.0,0.0,0.0,0.0,0.0,0.0,0.0,0.0,0.0,0.0,0.0,0.0,0.0,0.0,0.0,0.0,0.0,0.0,0.0,0.0,0.0,0.0,0.0,0.0,0.0,0.0,0.0,0.0,0.0,0.0,0.0,0.0,0.0,0.0,0.0,0.0,0.0,0.0,0.0,0.0,0.0,0.0,0.0,0.0,0.0,0.0,0.0,0.0,0.0,0.0,0.0,0.0,0.0,0.0,0.0,0.0,0.0,0.0,0.0,0.0,0.0,0.0,0.0,0.0,0.0,0.0,0.0,0.0,0.0,0.0,0.0,0.0,0.0,0.0,0.0,0.0,0.0,0.0,0.0,0.0,0.0,0.0,0.0,0.0,0.0,0.0,0.0,0.0,0.0,0.0,0.0,0.0,0.0,0.0,0.0,0.0,0.0,0.0,0.0,0.0,0.0,0.0,0.0,0.0,0.0,0.0,0.0,0.0,0.0,0.0,0.0,0.0,0.0,0.0,0.0,0.0,0.0,0.0,0.0,0.0,0.0,0.0,0.0,0.0,0.0,0.0,0.0,0.0,0.0,0.0,0.0,0.0,0.0,0.0,0.0,0.0,0.0,0.0,0.0,0.0,0.0,0.0,0.0,0.0,0.0,0.0,0.0,0.0,0.0,0.0,0.0,0.0,0.0,0.0,0.0,0.0,0.0,0.0,0.0,0.0,0.0,0.0,0.0,0.0,0.0,0.0,0.0,0.0,0.0,0.0,0.0,0.0,0.0,0.0,0.0,0.0,0.0,0.0,0.0,0.0,0.0,0.0,0.0,0.0,0.0,0.0,0.0,0.0,0.0,0.0,0.0,0.0,0.0,0.0,0.0,0.0,0.0,0.0,0.0,0.0,0.0,0.0,0.0,0.0,0.0,0.0,0.0,0.0,0.0,0.0,0.0,0.0,0.0,0.0,0.0,0.0,0.0,0.0,0.0,0.0,0.0,0.0,0.0,0.0,0.0,0.0,0.0,0.0,0.0,0.0,0.0,0.0,0.0,0.0,0.0,0.0,0.0,0.0,0.0,0.0,0.0,0.0,0.0,0.0,0.0,0.0,0.0,0.0,0.0,0.0,0.0,0.0,0.0,0.0,0.0,0.0,0.0,0.0,0.0,0.0,0.0,0.0,0.0,0.0,0.0,0.0,0.0,0.0,0.0,0.0,0.0,0.0,0.0,0.0,0.0,0.0,0.0,0.0,0.0,0.0,0.0,0.0,0.0,0.0,0.0,0.0,0.0,0.0,0.0,0.0,0.0,0.0,0.0,0.0,0.0,0.0,0.0,0.0,0.0,0.0,0.0,0.0,0.0,0.0,0.0,0.0,0.0,0.0,0.0,0.0,0.0,0.0,0.0,0.0,0.0,3.527,0.0,0.0,0.0,0.0,0.0,0.0,0.0,0.0,0.0,0.0,0.0,0.0,0.0,0.0,0.0,0.0,0.0,0.0,0.0,0.0,0.0,0.0,0.0,0.0,0.0,0.0,0.0,0.0,0.0,0.0,0.0,0.0,0.0,0.0,0.0,0.0,0.0,0.0,0.0,0.0,0.0,0.0,0.0,0.0,0.0,0.0,0.0,0.0,0.0,0.0,0.0,0.0,0.0,0.0,0.0,0.0,0.0,0.0,0.0,0.0,0.0,0.0,0.0,0.0,0.0,0.0,0.0,0.0,0.0,0.0,0.0,0.0,0.0,0.0,0.0,0.0,0.0,0.0,0.0,0.0,0.0,0.0,0.0,0.0,0.0,0.0,0.0,0.0,0.0,0.0,0.0,0.0,0.0,0.0,0.0,0.0,0.0,0.0,0.0,0.0,0.0,0.0,0.0,0.0,0.0,0.0,0.0,0.0,0.0,0.0,3.2922,3.3582,3.426,3.4914,3.5609,0.0,0.0,0.0,0.0,0.0,0.0,0.0,0.0,0.0,0.0,0.0,0.0,0.0,0.0,0.0,0.0,0.0,0.0,0.0,0.0,0.0,0.0,0.0,0.0,0.0,0.0,0.0,0.0,0.0,0.0,0.0,0.0,0.0,0.0,0.0,0.0,0.0,0.0,0.0,0.0,0.0,0.0,0.0,0.0,0.0,0.0,0.0,0.0,0.0,0.0,0.0,0.0,0.0,0.0,0.0,0.0,0.0,0.0,0.0,0.0,0.0,0.0,0.0,0.0,0.0,0.0,0.0,0.0,0.0,0.0,0.0,0.0,0.0,0.0,0.0,0.0,0.0,0.0,0.0,0.0,0.0,0.0,0.0,0.0,0.0,0.0,0.0,0.0,0.0,0.0,0.0,0.0,0.0,0.0,0.0,0.0,0.0,0.0,0.0,0.0,0.0,0.0,0.0,0.0,0.0,0.0,0.0,0.0,0.0,0.0,0.0,0.0,3.5136,3.5943,3.6669,0.0,0.0,0.0,0.0,0.0,0.0,0.0,0.0,0.0,0.0,0.0,0.0,0.0,0.0,0.0,0.0,0.0,0.0,0.0,0.0,0.0,0.0,0.0,0.0,0.0,0.0,0.0,0.0,0.0,0.0,0.0,0.0,0.0,0.0,0.0,0.0,0.0,0.0,0.0,0.0,0.0,0.0,0.0,0.0,0.0,0.0,0.0,0.0,0.0,0.0,0.0,0.0,0.0,0.0,0.0,0.0,0.0,0.0,0.0,0.0,0.0,0.0,0.0,0.0,0.0,0.0,0.0,0.0,0.0,0.0,0.0,0.0,0.0,0.0,0.0,0.0,0.0,0.0,0.0,0.0,0.0,0.0,0.0,0.0,0.0,0.0,0.0,0.0,0.0,0.0,0.0,0.0,0.0,0.0,0.0,0.0,0.0,0.0,0.0,0.0,0.0,0.0,0.0,0.0,0.0,0.0,0.0,0.0,0.0,0.0,3.4388,3.6198,3.7748,0.0,3.9042,0.0,0.0,0.0,0.0,0.0,0.0,0.0,0.0,0.0,0.0,0.0,0.0,0.0,0.0,0.0,0.0,0.0,0.0,0.0,0.0,0.0,0.0,0.0,0.0,0.0,0.0,0.0,0.0,0.0,0.0,0.0,0.0,0.0,0.0,0.0,0.0,0.0,0.0,0.0,0.0,0.0,0.0,0.0,0.0,0.0,0.0,0.0,0.0,0.0,0.0,0.0,0.0,0.0,0.0,0.0,0.0,0.0,0.0,0.0,0.0,0.0,0.0,0.0,0.0,0.0,0.0,0.0,0.0,0.0,0.0,0.0,0.0,0.0,0.0,0.0,0.0,0.0,0.0,0.0,0.0,0.0,0.0,0.0,0.0,0.0,0.0,0.0,0.0,0.0,0.0,0.0,0.0,0.0,0.0,0.0,0.0,0.0,0.0,0.0,0.0,0.0,0.0,0.0,0.0,0.0,0.0,0.0,0.0,0.0,0.0,3.6152,3.734,3.8092,3.8992,0.0,0.0,0.0,0.0,0.0,0.0,0.0,0.0,0.0,0.0,0.0,0.0,0.0,0.0,0.0,0.0,0.0,0.0,0.0,0.0,0.0,0.0,0.0,0.0,0.0,0.0,0.0,0.0,0.0,0.0,0.0,0.0,0.0,0.0,0.0,0.0,0.0,0.0,0.0,0.0,0.0,0.0,0.0,0.0,0.0,0.0,0.0,0.0,0.0,0.0,0.0,0.0,0.0,0.0,0.0,0.0,0.0,0.0,0.0,0.0,0.0,0.0,0.0,0.0,0.0,0.0,0.0,0.0,0.0,0.0,0.0,0.0,0.0,0.0,0.0,0.0,0.0,0.0,0.0,0.0,0.0,0.0,0.0,0.0,0.0,0.0,0.0,0.0,0.0,0.0,0.0,0.0,0.0,0.0,0.0,0.0,0.0,0.0,0.0,0.0,0.0,0.0,0.0,0.0,0.0,0.0,0.0,0.0,0.0,0.0,3.6005,3.7576,3.8982,3.9371,3.9629,3.9847,0.0,0.0,0.0,0.0,0.0,0.0,0.0,0.0,0.0,0.0,0.0,0.0,0.0,0.0,0.0,0.0,0.0,0.0,0.0,0.0,0.0,0.0,0.0,0.0,0.0,0.0,0.0,0.0,0.0,0.0,0.0,0.0,0.0,0.0,0.0,0.0,0.0,0.0,0.0,0.0,0.0,0.0,0.0,0.0,0.0,0.0,0.0,0.0,0.0,0.0,0.0,0.0,0.0,0.0,0.0,0.0,0.0,0.0,0.0,0.0,0.0,0.0,0.0,0.0,0.0,0.0,0.0,0.0,0.0,0.0,0.0,0.0,0.0,0.0,0.0,0.0,0.0,0.0,0.0,0.0,0.0,0.0,0.0,0.0,0.0,0.0,0.0,0.0,0.0,0.0,0.0,0.0,0.0,0.0,0.0,0.0,0.0,0.0,0.0,0.0,0.0,0.0,0.0,0.0,0.0,0.0,0.0,0.0,0.0,3.7356,3.8405,4.1638,4.2586,4.1381,0.0,0.0,0.0,0.0,0.0,0.0,0.0,0.0,0.0,0.0,0.0,0.0,0.0,0.0,0.0,0.0,0.0,0.0,0.0,0.0,0.0,0.0,0.0,0.0,0.0,0.0,0.0,0.0,0.0,0.0,0.0,0.0,0.0,0.0,0.0,0.0,0.0,0.0,0.0,0.0,0.0,0.0,0.0,0.0,0.0,0.0,0.0,0.0,0.0,0.0,0.0,0.0,0.0,0.0,0.0,0.0,0.0,0.0,0.0,0.0,0.0,0.0,0.0,0.0,0.0,0.0,0.0,0.0,0.0,0.0,0.0,0.0,0.0,0.0,0.0,0.0,0.0,0.0,0.0,0.0,0.0,0.0,0.0,0.0,0.0,0.0,0.0,0.0,0.0,0.0,0.0,0.0,0.0,0.0,0.0,0.0,0.0,0.0,0.0,0.0,0.0,0.0,0.0,0.0,0.0,0.0,0.0,0.0,0.0,3.4682,3.6049,3.9433,4.456,4.131,3.9807,0.0,0.0,0.0,0.0,0.0,0.0,0.0,0.0,0.0,0.0,0.0,0.0,0.0,0.0,0.0,0.0,0.0,0.0,0.0,0.0,0.0,0.0,0.0,0.0,0.0,0.0,0.0,0.0,0.0,0.0,0.0,0.0,0.0,0.0,0.0,0.0,0.0,0.0,0.0,0.0,0.0,0.0,0.0,0.0,0.0,0.0,0.0,0.0,0.0,0.0,0.0,0.0,0.0,0.0,0.0,0.0,0.0,0.0,0.0,0.0,0.0,0.0,0.0,0.0,0.0,0.0,0.0,0.0,0.0,0.0,0.0,0.0,0.0,0.0,0.0,0.0,0.0,0.0,0.0,0.0,0.0,0.0,0.0,0.0,0.0,0.0,0.0,0.0,0.0,0.0,0.0,0.0,0.0,0.0,0.0,0.0,0.0,0.0,0.0,0.0,0.0,0.0,0.0,0.0,0.0,0.0,0.0,0.0,0.0,3.4901,0.0,4.1102,0.0,4.0612,3.8777,0.0,0.0,0.0,0.0,0.0,0.0,0.0,0.0,0.0,0.0,0.0,0.0,0.0,0.0,0.0,0.0,0.0,0.0,0.0,0.0,0.0,0.0,0.0,0.0,0.0,0.0,0.0,0.0,0.0,0.0,0.0,0.0,0.0,0.0,0.0,0.0,0.0,0.0,0.0,0.0,0.0,0.0,0.0,0.0,0.0,0.0,0.0,0.0,0.0,0.0,0.0,0.0,0.0,0.0,0.0,0.0,0.0,0.0,0.0,0.0,0.0,0.0,0.0,0.0,0.0,0.0,0.0,0.0,0.0,0.0,0.0,0.0,0.0,0.0,0.0,0.0,0.0,0.0,0.0,0.0,0.0,0.0,0.0,0.0,0.0,0.0,0.0,0.0,0.0,0.0,0.0,0.0,0.0,0.0,0.0,0.0,0.0,0.0,0.0,0.0,0.0,0.0,0.0,0.0,0.0,0.0,0.0,0.0,3.4895,3.9792,4.2753,4.3155,4.1019,4.0943,3.8617,0.0,0.0,0.0,0.0,0.0,0.0,0.0,0.0,0.0,0.0,0.0,0.0,0.0,0.0,0.0,0.0,0.0,0.0,0.0,0.0,0.0,0.0,0.0,0.0,0.0,0.0,0.0,0.0,0.0,0.0,0.0,0.0,0.0,0.0,0.0,0.0,0.0,0.0,0.0,0.0,0.0,0.0,0.0,0.0,0.0,0.0,0.0,0.0,0.0,0.0,0.0,0.0,0.0,0.0,0.0,0.0,0.0,0.0,0.0,0.0,0.0,0.0,0.0,0.0,0.0,0.0,0.0,0.0,0.0,0.0,0.0,0.0,0.0,0.0,0.0,0.0,0.0,0.0,0.0,0.0,0.0,0.0,0.0,0.0,0.0,0.0,0.0,0.0,0.0,0.0,0.0,0.0,0.0,0.0,0.0,0.0,0.0,0.0,0.0,0.0,0.0,0.0,0.0,0.0,0.0,0.0,0.0,0.0,0.0,3.7902,4.0138,4.2285,4.3956,4.0779,3.9177,0.0,0.0,0.0,0.0,0.0,0.0,0.0,0.0,0.0,0.0,0.0,0.0,0.0,0.0,0.0,0.0,0.0,0.0,0.0,0.0,0.0,0.0,0.0,0.0,0.0,0.0,0.0,0.0,0.0,0.0,0.0,0.0,0.0,0.0,0.0,0.0,0.0,0.0,0.0,0.0,0.0,0.0,0.0,0.0,0.0,0.0,0.0,0.0,0.0,0.0,0.0,0.0,0.0,0.0,0.0,0.0,0.0,0.0,0.0,0.0,0.0,0.0,0.0,0.0,0.0,0.0,0.0,0.0,0.0,0.0,0.0,0.0,0.0,0.0,0.0,0.0,0.0,0.0,0.0,0.0,0.0,0.0,0.0,0.0,0.0,0.0,0.0,0.0,0.0,0.0,0.0,0.0,0.0,0.0,0.0,0.0,0.0,0.0,0.0,0.0,0.0,0.0,0.0,0.0,0.0,0.0,0.0,0.0,0.0,4.1053,4.3277,4.499,4.5992,4.2316,4.0438,4.0707,0.0,0.0,0.0,0.0,0.0,0.0,0.0,0.0,0.0,0.0,0.0,0.0,0.0,0.0,0.0,0.0,0.0,0.0,0.0,0.0,0.0,0.0,0.0,0.0,0.0,0.0,0.0,0.0,0.0,0.0,0.0,0.0,0.0,0.0,0.0,0.0,0.0,0.0,0.0,0.0,0.0,0.0,0.0,0.0,0.0,0.0,0.0,0.0,0.0,0.0,0.0,0.0,0.0,0.0,0.0,0.0,0.0,0.0,0.0,0.0,0.0,0.0,0.0,0.0,0.0,0.0,0.0,0.0,0.0,0.0,0.0,0.0,0.0,0.0,0.0,0.0,0.0,0.0,0.0,0.0,0.0,0.0,0.0,0.0,0.0,0.0,0.0,0.0,0.0,0.0,0.0,0.0,0.0,0.0,0.0,0.0,0.0,0.0,0.0,0.0,0.0,0.0,0.0,0.0,0.0,0.0,0.0,0.0,4.8004,5.1079,5.0832,4.7151,4.5338,4.2524,0.0,0.0,0.0,0.0,0.0,0.0,0.0,0.0,0.0,0.0,0.0,0.0,0.0,0.0,0.0,0.0,0.0,0.0,0.0,0.0,0.0,0.0,0.0,0.0,0.0,0.0,0.0,0.0,0.0,0.0,0.0,0.0,0.0,0.0,0.0,0.0,0.0,0.0,0.0,0.0,0.0,0.0,0.0,0.0,0.0,0.0,0.0,0.0,0.0,0.0,0.0,0.0,0.0,0.0,0.0,0.0,0.0,0.0,0.0,0.0,0.0,0.0,0.0,0.0,0.0,0.0,0.0,0.0,0.0,0.0,0.0,0.0,0.0,0.0,0.0,0.0,0.0,0.0,0.0,0.0,0.0,0.0,0.0,0.0,0.0,0.0,0.0,0.0,0.0,0.0,0.0,0.0,0.0,0.0,0.0,0.0,0.0,0.0,0.0,0.0,0.0,0.0,0.0,0.0,0.0,0.0,0.0,0.0,0.0,5.1146,5.5245,5.5562,5.1799,4.8788,4.5914,0.0,0.0,0.0,0.0,0.0,0.0,0.0,0.0,0.0,0.0,0.0,0.0,0.0,0.0,0.0,0.0,0.0,0.0,0.0,0.0,0.0,0.0,0.0,0.0,0.0,0.0,0.0,0.0,0.0,0.0,0.0,0.0,0.0,0.0,0.0,0.0,0.0,0.0,0.0,0.0,0.0,0.0,0.0,0.0,0.0,0.0,0.0,0.0,0.0,0.0,0.0,0.0,0.0,0.0,0.0,0.0,0.0,0.0,0.0,0.0,0.0,0.0,0.0,0.0,0.0,0.0,0.0,0.0,0.0,0.0,0.0,0.0,0.0,0.0,0.0,0.0,0.0,0.0,0.0,0.0,0.0,0.0,0.0,0.0,0.0,0.0,0.0,0.0,0.0,0.0,0.0,0.0,0.0,0.0,0.0,0.0,0.0,0.0,0.0,0.0,0.0,0.0,0.0,0.0,0.0,0.0,0.0,0.0,5.1052,5.4656,5.8315,5.9006,5.6482,5.3134,4.945,0.0,0.0,0.0,0.0,0.0,0.0,0.0,0.0,0.0,0.0,0.0,0.0,0.0,0.0,0.0,0.0,0.0,0.0,0.0,0.0,0.0,0.0,0.0,0.0,0.0,0.0,0.0,0.0,0.0,0.0,0.0,0.0,0.0,0.0,0.0,0.0,0.0,0.0,0.0,0.0,0.0,0.0,0.0,0.0,0.0,0.0,0.0,0.0,0.0,0.0,0.0,0.0,0.0,0.0,0.0,0.0,0.0,0.0,0.0,0.0,0.0,0.0,0.0,0.0,0.0,0.0,0.0,0.0,0.0,0.0,0.0,0.0,0.0,0.0,0.0,0.0,0.0,0.0,0.0,0.0,0.0,0.0,0.0,0.0,0.0,0.0,0.0,0.0,0.0,0.0,0.0,0.0,0.0,0.0,0.0,0.0,0.0,0.0,0.0,0.0,0.0,0.0,0.0,0.0,0.0,0.0,0.0,0.0,5.3039,5.7992,6.0474,6.1337,6.0474,5.7336,5.2656,0.0,0.0,0.0,0.0,0.0,0.0,0.0,0.0,0.0,0.0,0.0,0.0,0.0,0.0,0.0,0.0,0.0,0.0,0.0,0.0,0.0,0.0,0.0,0.0,0.0,0.0,0.0,0.0,0.0,0.0,0.0,0.0,0.0,0.0,0.0,0.0,0.0,0.0,0.0,0.0,0.0,0.0,0.0,0.0,0.0,0.0,0.0,0.0,0.0,0.0,0.0,0.0,0.0,0.0,0.0,0.0,0.0,0.0,0.0,0.0,0.0,0.0,0.0,0.0,0.0,0.0,0.0,0.0,0.0,0.0,0.0,0.0,0.0,0.0,0.0,0.0,0.0,0.0,0.0,0.0,0.0,0.0,0.0,0.0,0.0,0.0,0.0,0.0,0.0,0.0,0.0,0.0,0.0,0.0,0.0,0.0,0.0,0.0,0.0,0.0,0.0,0.0,0.0,0.0,0.0,0.0,0.0,0.0,5.5888,5.8872,6.1294,6.2163,6.1355,5.7593,5.3427,0.0,0.0,0.0,0.0,0.0,0.0,0.0,0.0,0.0,0.0,0.0,0.0,0.0,0.0,0.0,0.0,0.0,0.0,0.0,0.0,0.0,0.0,0.0,0.0,0.0,0.0,0.0,0.0,0.0,0.0,0.0,0.0,0.0,0.0,0.0,0.0,0.0,0.0,0.0,0.0,0.0,0.0,0.0,0.0,0.0,0.0,0.0,0.0,4.0375,0.0,0.0,0.0,0.0,0.0,0.0,0.0,0.0,0.0,0.0,0.0,0.0,0.0,0.0,0.0,0.0,0.0,0.0,0.0,0.0,0.0,0.0,0.0,0.0,0.0,0.0,0.0,0.0,0.0,0.0,0.0,0.0,0.0,0.0,0.0,0.0,0.0,0.0,0.0,0.0,0.0,0.0,0.0,0.0,0.0,0.0,0.0,0.0,0.0,0.0,0.0,0.0,0.0,0.0,0.0,0.0,0.0,0.0,0.0,5.7886,6.0291,6.2346,6.3007,6.2108,5.8988,5.5023,0.0,0.0,0.0,0.0,0.0,0.0,0.0,0.0,0.0,0.0,0.0,0.0,0.0,0.0,0.0,0.0,0.0,0.0,0.0,0.0,0.0,0.0,0.0,0.0,0.0,0.0,0.0,0.0,0.0,0.0,0.0,0.0,0.0,0.0,0.0,0.0,0.0,0.0,0.0,0.0,0.0,0.0,0.0,0.0,0.0,0.0,0.0,0.0,0.0,0.0,0.0,0.0,0.0,0.0,0.0,0.0,0.0,0.0,0.0,0.0,0.0,0.0,0.0,0.0,0.0,0.0,0.0,0.0,0.0,0.0,0.0,0.0,0.0,0.0,0.0,0.0,0.0,0.0,0.0,0.0,0.0,0.0,0.0,0.0,0.0,0.0,0.0,0.0,0.0,0.0,0.0,0.0,0.0,0.0,0.0,0.0,0.0,0.0,0.0,0.0,0.0,0.0,0.0,0.0,0.0,0.0,0.0,5.5176,5.9098,6.1704,6.3282,6.3631,6.264,6.0505,5.6693,5.1041,0.0,0.0,0.0,0.0,0.0,0.0,0.0,0.0,0.0,0.0,0.0,0.0,0.0,0.0,0.0,0.0,0.0,0.0,0.0,0.0,0.0,0.0,0.0,0.0,0.0,0.0,0.0,0.0,0.0,0.0,0.0,0.0,0.0,0.0,0.0,0.0,0.0,0.0,3.9738,4.2661,0.0,0.0,0.0,0.0,0.0,0.0,0.0,0.0,4.3129,0.0,0.0,0.0,0.0,0.0,0.0,0.0,0.0,0.0,0.0,0.0,0.0,0.0,0.0,0.0,0.0,0.0,0.0,0.0,0.0,0.0,0.0,0.0,0.0,0.0,0.0,0.0,0.0,0.0,0.0,0.0,0.0,0.0,0.0,0.0,0.0,0.0,0.0,0.0,0.0,0.0,0.0,0.0,0.0,0.0,0.0,0.0,0.0,0.0,0.0,0.0,0.0,0.0,0.0,0.0,0.0,5.5335,5.6502,5.8822,6.253,6.3576,6.3356,6.1832,6.075,5.7244,5.1114,0.0,0.0,0.0,0.0,0.0,0.0,0.0,0.0,0.0,0.0,0.0,0.0,0.0,0.0,0.0,0.0,0.0,0.0,0.0,0.0,0.0,0.0,0.0,0.0,0.0,0.0,0.0,0.0,0.0,0.0,0.0,0.0,0.0,0.0,0.0,0.0,0.0,0.0,0.0,4.6171,4.6643,0.0,0.0,0.0,0.0,0.0,0.0,0.0,0.0,4.3494,0.0,0.0,0.0,0.0,0.0,0.0,0.0,0.0,0.0,0.0,0.0,0.0,0.0,0.0,0.0,0.0,0.0,0.0,0.0,0.0,0.0,0.0,0.0,0.0,0.0,0.0,0.0,0.0,0.0,0.0,0.0,0.0,0.0,0.0,0.0,0.0,0.0,0.0,0.0,0.0,0.0,0.0,0.0,0.0,0.0,0.0,0.0,0.0,0.0,0.0,0.0,0.0,0.0,0.0,0.0,5.4047,5.7997,6.0835,6.2768,6.4071,6.3925,6.2236,5.9428,5.5868,0.0,0.0,0.0,0.0,0.0,0.0,0.0,0.0,0.0,0.0,0.0,0.0,0.0,0.0,0.0,0.0,0.0,0.0,0.0,0.0,0.0,0.0,0.0,0.0,0.0,0.0,0.0,0.0,0.0,0.0,0.0,0.0,0.0,0.0,0.0,0.0,0.0,0.0,0.0,0.0,4.7998,4.8913,4.7998,0.0,0.0,0.0,0.0,0.0,0.0,4.5432,4.4552,0.0,0.0,0.0,0.0,0.0,0.0,0.0,0.0,0.0,0.0,0.0,0.0,0.0,0.0,0.0,0.0,0.0,0.0,0.0,0.0,0.0,0.0,0.0,0.0,0.0,0.0,0.0,0.0,0.0,0.0,0.0,0.0,0.0,0.0,0.0,0.0,0.0,0.0,0.0,0.0,0.0,0.0,0.0,0.0,0.0,0.0,0.0,0.0,0.0,0.0,0.0,0.0,0.0,0.0,0.0,5.227,5.8565,6.2138,6.2817,6.4273,6.42,6.2346,5.8437,5.473,0.0,0.0,0.0,0.0,0.0,0.0,0.0,0.0,0.0,0.0,0.0,0.0,0.0,0.0,0.0,0.0,0.0,0.0,0.0,0.0,0.0,0.0,0.0,0.0,0.0,0.0,0.0,0.0,0.0,0.0,0.0,0.0,0.0,0.0,0.0,0.0,0.0,0.0,0.0,0.0,0.0,5.0444,4.9863,4.919,0.0,0.0,0.0,0.0,4.795,4.7326,0.0,0.0,0.0,0.0,0.0,0.0,0.0,0.0,0.0,0.0,0.0,0.0,0.0,0.0,0.0,0.0,0.0,0.0,0.0,0.0,0.0,0.0,0.0,0.0,0.0,0.0,0.0,0.0,0.0,0.0,0.0,0.0,0.0,0.0,0.0,0.0,0.0,0.0,0.0,0.0,0.0,0.0,0.0,0.0,0.0,0.0,0.0,0.0,0.0,0.0,0.0,0.0,0.0,0.0,0.0,0.0,5.2894,5.6675,5.9942,6.2652,6.3741,6.308,6.0768,5.9465,5.5607,0.0,0.0,0.0,0.0,0.0,0.0,0.0,0.0,0.0,0.0,0.0,0.0,0.0,0.0,0.0,0.0,0.0,0.0,0.0,0.0,0.0,0.0,0.0,0.0,0.0,0.0,0.0,0.0,0.0,0.0,0.0,0.0,0.0,0.0,0.0,0.0,0.0,0.0,0.0,0.0,0.0,4.9836,4.9128,4.8449,4.8186,0.0,0.0,4.8042,4.9512,5.009,0.0,0.0,0.0,0.0,0.0,0.0,0.0,0.0,0.0,0.0,0.0,0.0,0.0,0.0,0.0,0.0,0.0,0.0,0.0,0.0,0.0,0.0,0.0,0.0,0.0,0.0,0.0,0.0,0.0,0.0,0.0,0.0,0.0,0.0,0.0,0.0,0.0,0.0,0.0,0.0,0.0,0.0,0.0,0.0,0.0,0.0,0.0,0.0,0.0,0.0,0.0,0.0,0.0,0.0,0.0,4.726,5.3093,5.7703,6.0933,6.275,6.3649,6.3135,6.1117,5.8107,5.3904,0.0,0.0,0.0,0.0,0.0,0.0,0.0,0.0,0.0,0.0,0.0,0.0,0.0,0.0,0.0,0.0,0.0,0.0,0.0,0.0,0.0,0.0,0.0,0.0,0.0,0.0,0.0,0.0,0.0,0.0,0.0,0.0,0.0,0.0,0.0,0.0,0.0,0.0,0.0,0.0,0.0,0.0,5.1392,5.0859,0.0,0.0,0.0,5.0522,5.234,0.0,0.0,0.0,0.0,0.0,0.0,0.0,0.0,0.0,0.0,0.0,0.0,0.0,0.0,0.0,0.0,0.0,0.0,0.0,0.0,0.0,0.0,0.0,0.0,0.0,0.0,0.0,0.0,0.0,0.0,0.0,0.0,0.0,0.0,0.0,0.0,0.0,0.0,0.0,0.0,0.0,0.0,0.0,0.0,0.0,0.0,0.0,0.0,0.0,0.0,0.0,0.0,0.0,0.0,0.0,0.0,0.0,5.3167,5.8547,6.1796,6.2762,6.3246,6.2768,6.1282,5.7024,0.0,0.0,0.0,0.0,0.0,0.0,0.0,0.0,0.0,0.0,0.0,0.0,0.0,0.0,0.0,0.0,0.0,0.0,0.0,0.0,0.0,0.0,0.0,0.0,0.0,0.0,0.0,3.143,0.0,0.0,0.0,0.0,0.0,0.0,0.0,0.0,0.0,0.0,0.0,0.0,0.0,0.0,5.2635,5.353,5.3757,5.4296,0.0,0.0,5.3135,5.49,5.4599,5.3177,0.0,0.0,0.0,0.0,0.0,0.0,0.0,0.0,0.0,0.0,0.0,0.0,0.0,0.0,0.0,0.0,0.0,0.0,0.0,0.0,0.0,0.0,0.0,0.0,0.0,0.0,0.0,0.0,0.0,0.0,0.0,0.0,0.0,0.0,0.0,0.0,0.0,0.0,0.0,0.0,0.0,0.0,0.0,0.0,0.0,0.0,0.0,0.0,0.0,0.0,0.0,0.0,0.0,0.0,0.0,5.3148,5.8015,6.1245,6.2732,6.2126,6.1355,6.0456,5.7244,5.2913,0.0,0.0,0.0,0.0,0.0,0.0,0.0,0.0,0.0,0.0,0.0,0.0,0.0,0.0,0.0,0.0,0.0,0.0,0.0,0.0,0.0,0.0,0.0,0.0,0.0,0.0,0.0,0.0,0.0,0.0,0.0,0.0,0.0,0.0,0.0,0.0,0.0,0.0,0.0,0.0,0.0,5.3059,5.4445,5.6432,5.8047,0.0,0.0,5.5777,5.6533,5.6661,5.4939,4.9899,0.0,0.0,0.0,0.0,0.0,0.0,0.0,0.0,0.0,0.0,0.0,0.0,0.0,0.0,0.0,0.0,0.0,0.0,0.0,0.0,0.0,0.0,0.0,0.0,0.0,0.0,0.0,0.0,0.0,0.0,0.0,0.0,0.0,0.0,0.0,0.0,0.0,0.0,0.0,0.0,0.0,0.0,0.0,0.0,0.0,0.0,0.0,0.0,0.0,0.0,0.0,0.0,0.0,4.8324,5.3167,5.796,6.119,6.267,6.2016,6.1227,6.0419,5.7776,5.3683,0.0,0.0,0.0,0.0,0.0,0.0,0.0,0.0,0.0,0.0,0.0,0.0,0.0,0.0,0.0,0.0,0.0,0.0,0.0,0.0,0.0,0.0,0.0,0.0,0.0,0.0,0.0,0.0,3.3609,3.4573,3.5131,0.0,0.0,0.0,0.0,0.0,0.0,0.0,0.0,0.0,0.0,5.5355,5.7325,5.8363,0.0,0.0,5.8424,5.7508,5.8168,5.711,5.5371,5.285,5.0845,0.0,0.0,0.0,0.0,0.0,0.0,0.0,0.0,0.0,0.0,0.0,0.0,0.0,0.0,0.0,0.0,0.0,0.0,0.0,0.0,0.0,0.0,0.0,0.0,0.0,0.0,0.0,0.0,0.0,0.0,0.0,0.0,0.0,0.0,0.0,0.0,0.0,0.0,0.0,0.0,0.0,0.0,0.0,0.0,0.0,0.0,0.0,0.0,0.0,0.0,0.0,0.0,4.8306,5.317,5.7721,6.0823,6.2401,6.141,6.0621,5.9997,5.7483,5.3757,0.0,0.0,0.0,0.0,0.0,0.0,0.0,0.0,0.0,0.0,0.0,0.0,0.0,0.0,0.0,0.0,0.0,0.0,0.0,0.0,0.0,0.0,0.0,0.0,0.0,0.0,0.0,0.0,3.4523,3.5284,3.5245,0.0,0.0,0.0,0.0,0.0,0.0,0.0,0.0,0.0,0.0,5.7441,5.9745,6.0492,6.1,6.1434,5.9634,5.8362,5.8817,5.7326,5.5532,5.39,0.0,0.0,0.0,0.0,0.0,0.0,0.0,0.0,0.0,0.0,0.0,0.0,0.0,0.0,0.0,0.0,0.0,0.0,0.0,0.0,0.0,0.0,0.0,0.0,0.0,0.0,0.0,2.7715,0.0,0.0,2.9518,0.0,0.0,0.0,0.0,0.0,0.0,0.0,0.0,0.0,0.0,0.0,0.0,0.0,0.0,0.0,0.0,0.0,0.0,0.0,0.0,0.0,0.0,4.8306,5.3151,5.7166,6.0034,6.152,6.0089,5.9276,5.9166,5.6161,5.2931,4.9592,0.0,0.0,0.0,0.0,0.0,0.0,0.0,0.0,0.0,0.0,0.0,0.0,0.0,0.0,0.0,0.0,0.0,0.0,0.0,0.0,0.0,0.0,0.0,0.0,0.0,0.0,3.3355,3.4066,3.4556,0.0,0.0,0.0,0.0,0.0,0.0,0.0,0.0,0.0,0.0,5.5725,5.903,6.1379,6.2998,6.3885,6.3936,6.0726,5.8244,5.8316,5.7412,5.5548,0.0,0.0,0.0,0.0,0.0,0.0,0.0,0.0,0.0,0.0,0.0,0.0,0.0,0.0,0.0,0.0,0.0,0.0,0.0,0.0,0.0,0.0,0.0,0.0,0.0,0.0,0.0,3.1903,3.1527,0.0,0.0,0.0,0.0,0.0,0.0,0.0,0.0,0.0,0.0,0.0,4.3525,4.4986,0.0,0.0,0.0,0.0,0.0,0.0,0.0,0.0,0.0,0.0,0.0,0.0,4.8049,5.238,5.6914,5.9698,6.0731,5.9758,5.9203,5.9166,5.6602,5.2913,4.8067,0.0,0.0,0.0,0.0,0.0,0.0,0.0,0.0,0.0,0.0,0.0,0.0,0.0,0.0,0.0,0.0,0.0,0.0,0.0,0.0,0.0,0.0,0.0,0.0,0.0,3.3322,0.0,0.0,0.0,0.0,0.0,0.0,0.0,0.0,0.0,0.0,0.0,5.2113,5.5091,5.8852,6.2001,6.3846,6.4566,6.4679,0.0,0.0,0.0,0.0,0.0,0.0,0.0,0.0,0.0,0.0,0.0,0.0,0.0,0.0,5.9137,5.1355,4.8695,4.7983,4.9063,0.0,0.0,0.0,0.0,0.0,0.0,0.0,0.0,0.0,0.0,0.0,0.0,0.0,0.0,3.6069,0.0,3.6245,0.0,0.0,0.0,0.0,0.0,0.0,0.0,0.0,4.5993,4.7849,4.8142,4.9305,4.8946,0.0,4.6746,4.42,0.0,0.0,0.0,0.0,0.0,0.0,0.0,0.0,4.8875,5.3188,5.6895,5.9189,5.9905,5.9208,5.8786,5.8749,5.6455,5.2962,4.8294,4.5014,4.2012,0.0,0.0,0.0,0.0,0.0,0.0,0.0,0.0,0.0,0.0,0.0,0.0,0.0,0.0,0.0,0.0,0.0,0.0,0.0,0.0,0.0,0.0,0.0,3.4658,0.0,0.0,0.0,0.0,0.0,0.0,0.0,0.0,0.0,4.7297,5.1394,5.5421,5.8172,6.0524,6.2778,6.4895,0.0,0.0,0.0,0.0,0.0,0.0,0.0,5.7397,5.8823,5.8169,5.7809,5.8789,6.1936,6.4277,6.4046,0.0,0.0,5.7326,5.4875,5.4322,5.5374,5.5918,5.6499,5.7308,5.8438,5.9121,0.0,0.0,0.0,0.0,0.0,0.0,0.0,0.0,3.9991,4.0069,0.0,4.0543,0.0,0.0,0.0,0.0,0.0,4.3197,0.0,0.0,5.3017,5.5238,5.452,5.3853,5.3202,5.2518,5.234,5.0817,4.7925,4.4074,0.0,0.0,0.0,0.0,0.0,0.0,5.0765,5.5376,5.7152,5.8382,5.9111,5.8419,5.7997,5.7905,5.5684,5.3131,5.0325,4.8602,4.5752,4.1383,3.9189,0.0,0.0,0.0,0.0,0.0,0.0,0.0,0.0,0.0,0.0,0.0,0.0,0.0,0.0,0.0,0.0,0.0,0.0,0.0,0.0,3.5955,0.0,0.0,0.0,0.0,0.0,0.0,0.0,0.0,0.0,0.0,5.1083,5.3837,5.7309,6.093,0.0,0.0,0.0,0.0,6.2261,6.3822,6.2026,6.0565,6.0583,6.0901,6.0778,5.9512,0.0,0.0,6.3428,6.5584,6.6795,6.4578,6.6143,6.7222,6.6545,6.425,6.2897,6.2962,6.1909,6.1859,6.3783,6.4631,6.539,4.6682,0.0,0.0,0.0,0.0,4.1821,4.3362,4.6099,4.5391,4.4966,4.4718,4.4679,0.0,0.0,0.0,0.0,0.0,0.0,4.7056,4.9576,5.2719,5.4577,5.5398,5.5756,5.5522,5.4757,5.4735,5.401,5.2666,5.144,4.7756,4.1889,0.0,0.0,0.0,0.0,5.2197,5.4693,5.6895,5.8107,5.8345,5.8125,5.774,5.7171,5.5923,5.4342,5.2385,5.0882,4.9028,4.6609,4.3408,0.0,0.0,0.0,0.0,0.0,0.0,0.0,0.0,0.0,0.0,0.0,0.0,0.0,0.0,0.0,0.0,0.0,0.0,0.0,3.5676,3.7284,3.8955,0.0,0.0,0.0,0.0,0.0,0.0,0.0,0.0,0.0,5.9007,6.0645,6.1845,0.0,0.0,6.4788,6.505,6.5058,6.5408,6.6391,6.5358,0.0,6.4367,6.2631,6.1906,6.3672,6.598,6.7796,6.8658,6.932,6.977,6.9668,7.0695,7.1484,7.1131,6.8279,6.6244,6.6678,6.6551,6.6735,6.8074,6.8594,6.8768,5.2655,4.9094,4.6516,4.6273,4.7481,4.7123,4.8598,5.1215,5.0249,4.9751,4.9593,4.9011,4.7483,4.535,4.4794,0.0,0.0,0.0,5.0228,5.2854,5.4501,5.5759,5.6623,5.7123,5.7136,5.665,5.6691,5.6613,5.6465,5.6425,5.3519,4.7984,0.0,0.0,4.8618,5.1481,5.3904,5.5794,5.7244,5.7978,5.7978,5.7978,5.7611,5.6822,5.6014,5.5005,5.3768,5.2912,5.1713,5.0123,4.7438,4.4367,0.0,0.0,0.0,0.0,0.0,0.0,0.0,0.0,0.0,0.0,0.0,3.4001,3.1583,0.0,0.0,0.0,3.5666,3.7575,3.9891,4.1758,0.0,0.0,0.0,0.0,0.0,0.0,0.0,5.8938,6.0526,6.2269,6.4926,6.5993,6.6137,6.5161,6.5853,6.6557,6.6927,0.0,6.6811,6.7908,6.7546,6.7093,6.7003,6.5686,6.5441,6.7623,6.8854,7.0138,7.1683,7.1866,7.2065,7.2755,7.3324,7.3648,7.3589,7.1414,6.9817,7.0278,7.0143,7.019,7.0782,7.0965,7.1046,5.7593,5.7936,5.2852,5.1491,5.2676,5.2676,5.3897,5.5756,5.4465,5.4228,5.4686,5.3362,5.1984,5.0543,4.9152,0.0,5.1789,5.3146,5.4936,5.71,5.7788,5.8125,5.8194,5.8253,5.828,5.829,5.8351,5.8729,5.931,5.9355,5.8237,5.6026,5.3823,5.3306,5.4344,5.4564,5.5776,5.7941,5.7978,5.7978,5.7978,5.7978,5.7611,5.6822,5.6014,5.5254,5.4532,5.4489,5.3779,5.2251,5.0963,4.8517,4.4696,0.0,0.0,0.0,0.0,0.0,0.0,0.0,0.0,0.0,0.0,0.0,0.0,0.0,0.0,0.0,4.1919,0.0,4.5806,4.8061,0.0,0.0,0.0,5.203,5.4454,5.7219,6.0108,6.3094,0.0,0.0,6.9116,6.9852,7.0036,6.9164,6.7647,6.734,6.9475,6.7882,6.7096,6.8735,6.8744,6.8667,6.887,6.9271,6.9902,7.0742,7.1219,7.1762,7.2982,7.3274,7.354,7.4015,7.424,7.4237,7.411,7.3923,7.3946,7.339,7.2683,7.2102,7.1988,7.2146,7.2299,5.9654,5.9764,5.8464,5.7458,5.6755,5.6755,5.7092,5.7566,5.7245,5.6823,5.6355,5.6689,5.6241,5.5252,5.429,5.4496,5.5588,5.5933,5.701,5.8688,5.8866,5.9263,5.9832,5.9829,5.9853,5.9847,5.9862,5.9978,6.0127,6.0145,6.006,5.9865,5.9292,5.745,5.4604,5.6198,5.7428,5.7978,5.7978,5.7978,5.7978,5.7978,5.7611,5.6822,5.6014,5.5214,5.4454,5.4418,5.4235,5.3814,5.2372,5.055,4.8373,4.3159,0.0,0.0,0.0,0.0,0.0,0.0,0.0,0.0,0.0,3.9766,3.5091,0.0,4.2937,0.0,4.5971,4.8092,4.8883,5.1053,0.0,0.0,5.7102,5.8562,6.2157,6.321,6.4581,6.6914,6.8438,6.9983,7.1816,7.2199,7.2478,7.282,7.0601,6.8794,6.8541,6.861,6.894,6.9845,6.9563,6.9454,7.0706,7.1535,7.1996,7.1816,7.2373,7.2992,7.3322,7.3227,7.3331,7.4052,7.4546,7.4816,7.4969,7.4869,7.4741,7.4543,7.3601,7.2521,7.1947,7.2016,7.2218,6.1141,6.1436,6.1102,6.0658,6.0195,5.9496,5.917,5.9165,5.8828,5.8411,5.7995,5.8454,5.8422,5.7985,5.7846,5.8034,5.8403,5.8113,5.841,5.9231,5.9216,5.9422,5.9885,6.0604,6.0933,6.0933,6.13,6.1465,6.1465,6.1716,6.1797,6.1752,6.1926,6.0429,5.737,5.8349,5.8585,5.7978,5.7978,5.7978,5.7978,5.7978,5.7281,5.5812,5.5647,5.4711,5.2858,5.3133,5.3151,5.2784,5.1591,5.0609,4.9825,4.5848,4.2971,0.0,0.0,0.0,0.0,0.0,0.0,0.0,0.0,0.0,0.0,0.0,4.728,4.798,5.143,5.405,5.5044,5.7533,6.0093,6.2558,6.2706,6.381,6.6802,6.7119,6.8024,7.0341,7.1063,7.1987,7.3591,7.3798,7.3926,7.4291,7.2877,7.1579,7.1035,7.1044,7.139,7.2239,7.1978,7.1936,7.2939,7.3319,7.3454,7.3208,7.3484,7.3869,7.4105,7.4029,7.4199,7.4965,7.5399,7.5633,7.5837,7.5797,7.5604,7.5019,7.439,7.3462,7.2357,7.262,7.2955,6.251,6.3112,6.2149,6.222,6.2851,6.1329,6.0718,6.0665,6.0018,5.9745,5.9739,5.9537,5.9509,5.9641,6.0139,6.0408,6.0359,5.9559,5.9268,5.9348,5.934,5.9394,5.9565,6.1051,6.1759,6.1777,6.2456,6.2823,6.2805,6.3358,6.3283,6.268,6.3125,6.2552,6.0985,6.0529,5.9603,5.8115,5.8024,5.7978,5.7978,5.7978,5.6895,5.473,5.5133,5.3995,5.1004,5.1665,5.1775,5.0986,5.0551,5.0453,5.0741,4.8394,4.6838,0.0,4.4537,0.0,0.0,0.0,0.0,0.0,0.0,0.0,0.0,5.0454,5.2072,5.3051,5.7192,6.0387,6.1797,6.4561,6.6608,6.7361,6.7368,6.7922,6.9399,6.9702,7.0725,7.3168,7.3543,7.3993,7.4868,7.5019,7.4938,7.4782,7.4504,7.4355,7.4608,7.3862,7.3534,7.4607,7.4788,7.4497,7.4676,7.4751,7.4741,7.4658,7.4543,7.4637,7.5063,7.5132,7.5411,7.6107,7.6239,7.6321,7.6513,7.6513,7.6166,7.5343,7.5121,7.4572,7.3229,7.3421,7.3759,6.4739,6.5269,6.3382,6.3064,6.3752,6.2764,6.2324,6.2324,6.2204,6.2131,6.2032,6.0765,6.0554,6.111,6.0628,6.04,6.0367,5.9582,5.955,6.0178,6.0162,6.0512,6.119,6.2109,6.2585,6.2603,6.2732,6.2823,6.2823,6.3317,6.3755,6.403,6.4503,6.3864,6.2318,0.0,0.0,0.0,5.819,5.7978,5.7978,5.7978,5.7152,5.5445,5.4876,0.0,5.1022,5.2215,5.2601,5.1887,5.3192,0.0,0.0,0.0,0.0,0.0,0.0,0.0,0.0,0.0,0.0,0.0,5.5343,5.4095,5.2498,5.6586,5.8898,5.7889,6.0927,6.3356,6.4195,6.6101,6.7581,6.8277,6.8944,6.9702,7.0671,7.1347,7.2438,7.4041,7.483,7.5476,7.6095,7.6268,7.6216,7.6066,7.5565,7.5536,7.6294,7.495,7.3991,7.4159,7.4858,7.5228,7.5228,7.5758,7.5922,7.5624,7.5458,7.5485,7.5574,7.5586,7.579,7.6404,7.641,7.6316,7.635,7.6219,7.6076,7.5854,7.5801,7.5317,7.3716,7.3679,7.3896,6.6495,0.0,6.4825,6.4432,0.0,6.4072,6.3561,6.3168,6.291,6.2823,6.2718,6.193,6.1817,6.2181,6.1777,6.1365,6.0945,6.0157,6.0012,6.041,6.0398,6.0823,6.1632,6.2438,6.2823,6.2823,6.2823,6.2823,6.2855,6.3593,6.4137,6.4407,6.5118,6.4632,6.2952,6.1652,6.0237,5.8715,5.8238,5.7978,5.7978,5.7978,5.7226,5.5706,5.5611,0.0,0.0,0.0,0.0,0.0,0.0,0.0,0.0,0.0,0.0,5.4327,5.3345,5.3408,5.5059,5.6008,5.7608,6.0149,6.1224,6.0474,5.7514,5.987,6.143,6.14,6.3948,6.5903,6.6609,6.8403,6.9666,6.9959,7.0591,7.1355,7.2192,7.3009,7.3995,7.5148,7.5748,7.6148,7.6542,7.6601,7.6601,7.6582,7.625,7.6132,7.6518,7.5655,7.4948,7.5491,7.5908,7.6236,7.6252,7.6454,7.6668,7.6363,7.6205,7.6155,7.6146,7.6127,7.6233,7.6408,7.637,7.6261,7.616,7.6085,7.5995,7.5995,7.5995,7.5803,7.4885,7.485,7.4683,6.7941,6.7354,6.6276,6.5898,6.5992,6.5306,6.4607,6.3858,0.0,0.0,0.0,6.2897,6.2823,6.278,6.2661,6.2166,6.1361,6.07,6.0322,6.018,6.0458,6.0967,6.1632,6.242,6.2823,6.2823,6.2823,6.2855,6.2965,6.3936,6.4445,6.4609,6.5437,6.4987,6.3137,6.0656,5.9176,5.8694,5.8238,5.7978,5.7978,5.7978,5.7299,5.5831,5.6308,5.5519,5.3277,5.35,5.3243,5.2456,5.1899,5.2746,5.5158,5.5064,5.6275,5.929,5.9725,6.0219,6.1134,6.1997,6.2739,6.3285,6.4961,6.4905,6.2318,6.2296,6.304,6.4496,6.6394,6.7877,6.8902,7.0344,7.1366,7.1338,7.1777,7.2432,7.3429,7.415,7.4941,7.6088,7.6322,7.641,7.6579,7.6598,7.6602,7.6609,7.6547,7.6602,7.654,7.6173,7.6079,7.6834,7.6992,7.7148,7.7168,7.7036,7.6965,7.6916,7.679,7.6721,7.6715,7.6715,7.6636,7.641,7.635,7.6258,7.6052,7.601,7.5995,7.5995,7.5995,7.5995,7.5995,7.5976,7.5588,6.9112,6.9497,6.7543,6.7107,6.7671,6.6434,6.5565,6.4933,6.3473,6.3227,6.387,6.3135,6.2823,6.2755,6.2076,6.1332,6.0598,6.0445,5.9991,5.9377,6.0754,6.1474,6.1659,6.242,6.2823,6.2823,6.2823,6.3038,6.3502,6.4118,6.459,6.5035,6.5603,6.4813,6.2691,6.0511,5.9158,5.8694,5.8238,5.7978,5.7978,5.7978,5.7574,5.6675,5.6088,5.4968,5.3316,5.4546,5.4876,5.4164,5.5921,5.7529,5.8612,5.8675,5.9095,5.9889,6.0643,6.1507,6.2607,6.3498,6.4727,6.631,6.6149,6.5513,6.4741,6.5694,6.6765,6.7717,6.783,6.8855,7.0845,7.0805,7.0834,7.1356,7.1527,7.2191,7.3626,7.399,7.4671,7.6154,7.6566,7.6499,7.6443,7.649,7.6466,7.6533,7.6413,7.656,7.6577,7.6697,7.6833,7.7129,7.7207,7.7207,7.7168,7.7168,7.7127,7.7166,7.7129,7.707,7.707,7.707,7.6953,7.6623,7.6548,7.642,7.6087,7.5995,7.5995,7.5995,7.5995,7.5995,7.5995,7.5995,7.5908,7.0194,7.0356,6.9018,6.8632,6.8853,6.7181,6.6528,6.6392,6.4402,6.3723,6.398,6.3191,6.2541,6.2129,6.177,6.116,6.0414,6.0414,6.041,6.0514,6.1257,6.1842,6.2271,6.2636,6.2823,6.2823,6.3115,6.3358,6.3637,6.4388,6.4902,6.5038,6.447,6.3595,6.251,6.0219,5.8914,5.8694,5.8238,5.7978,5.7978,5.7978,5.7831,5.7446,5.7079,5.6583,5.5849,5.6492,5.6932,5.6983,5.8145,5.9391,6.0652,6.087,6.1269,6.2025,6.2837,6.3619,6.4351,6.5315,6.6045,6.6457,6.7018,6.7036,6.6397,6.6406,6.6826,6.7691,6.7986,6.8632,6.9868,7.0219,7.0501,7.0698,7.1151,7.1749,7.2476,7.3163,7.3778,7.4542,7.508,7.5334,7.5353,7.5353,7.5353,7.5387,7.5553,7.5915,7.6332,7.6488,7.6624,7.6836,7.6875,7.6933,7.7002,7.7028,7.7097,7.7187,7.7207,7.7207,7.7207,7.7207,7.709,7.6839,7.6696,7.651,7.6202,7.6066,7.6005,7.5995,7.5995,7.5995,7.5995,7.5995,7.5995,7.0898,7.0841,7.0225,6.984,6.9486,6.7884,6.7388,6.7484,6.5503,6.453,6.4237,6.3282,6.2368,6.1614,6.1586,6.1142,6.0489,6.0598,6.0997,6.1576,6.177,6.22,6.2755,6.2823,6.288,6.3014,6.3408,6.372,6.3998,6.4731,6.5099,6.4908,6.3436,6.2505,6.2241,5.9891,5.8634,5.8526,5.819,5.7978,5.7978,5.7978,5.7978,5.7978,5.7978,5.7978,5.7978,5.7978,5.8433,5.9315,5.9588,6.0498,6.2206,6.2729,6.3379,6.4325,6.5025,6.5535,6.582,6.6746,6.7025,6.6392,6.7523,6.8081,6.7572,6.6823,6.6854,6.7909,6.8429,6.8703,6.9185,6.9673,7.0094,6.9973,7.051,7.0982,7.1253,7.1798,7.2329,7.2649,7.312,7.3427,7.3588,7.3644,7.3744,7.4004,7.4514,7.5174,7.5721,7.585,7.5921,7.6092,7.6348,7.6657,7.681,7.6892,7.6968,7.7104,7.7168,7.7207,7.7207,7.7207,7.7129,7.6933,7.677,7.6609,7.64,7.6247,7.6172,7.6172,7.6141,7.6066,7.601,7.5995,7.5995,7.0885,7.0898,7.0813,7.0219,6.9319,6.8597,6.8111,6.7594,6.6659,6.5852,6.5081,6.3521,6.2386,6.1659,6.1586,6.1189,6.0537,6.1142,6.153,6.1733,6.235,6.273,6.2812,6.283,6.3044,6.3476,6.3593,6.4119,6.485,6.5016,6.5099,6.4908,6.3417,6.2178,6.1235,5.9594,5.8503,5.8092,5.802,5.7978,5.7978,5.7978,5.7978,5.7978,5.7978,5.7978,5.7978,5.7978,5.86,5.9827,6.0379,6.1538,6.3508,6.4835,6.572,6.6084,6.6422,6.6587,6.6487,6.7177,6.7618,6.7555,6.7572,6.7713,6.7884,6.7998,6.8828,6.9957,6.9687,6.9534,7.0461,6.9907,6.9415,6.9375,6.9506,6.979,7.0331,6.9985,7.0107,7.1595,7.1035,7.0928,7.1545,7.1747,7.2094,7.2938,7.369,7.4346,7.4654,7.4694,7.4694,7.4864,7.5625,7.6438,7.6558,7.6775,7.6754,7.6851,7.7039,7.7012,7.6933,7.6992,7.7126,7.6746,7.6872,7.6746,7.6644,7.6548,7.6516,7.6448,7.6369,7.6219,7.6066,7.6029,7.6057,7.1143,7.115,7.132,7.0664,6.957,6.9295,6.863,6.764,6.6824,6.6311,6.5888,6.4787,6.328,6.1604,6.1586,6.1418,6.116,6.1446,6.187,6.2331,6.2983,6.3285,6.3308,6.3634,6.3873,6.4098,6.4332,6.4677,6.5032,6.5099,6.5099,6.4902,6.3343,6.2049,6.1156,5.9733,5.8887,5.8694,5.8235,5.8217,5.8602,5.8235,5.7978,5.7978,5.7978,5.7978,5.8024,5.826,5.912,6.0603,6.1425,6.2655,6.4523,6.5885,6.6546,6.6466,6.7144,6.7589,6.7697,6.8278,6.8065,6.6749,6.7657,6.7999,6.7258,6.8008,6.8886,6.9234,6.9068,6.8932,6.9031,6.8908,6.8821,6.8821,6.8821,6.8803,6.856,6.842,6.8392,6.8457,6.8541,6.8881,6.9623,7.0131,7.0918,7.1995,7.2748,7.3174,7.4015,7.4312,7.4312,7.4382,7.488,7.5379,7.5753,7.5946,7.597,7.6001,7.6115,7.6165,7.5722,7.613,7.6386,7.6298,7.6532,7.6731,7.6805,7.6664,7.6602,7.6587,7.6579,7.6457,7.637,7.635,7.6316,7.1407,7.1409,7.1476,7.0806,6.9698,6.9546,6.8805,6.7722,6.7081,6.6714,6.6439,6.5888,6.4526,6.2794,6.2595,6.2494,6.2273,6.2277,6.2686,6.329,6.3542,6.3677,6.385,6.4197,6.4614,6.4967,6.528,6.5442,6.5388,6.5009,6.4833,6.4456,6.3153,6.202,6.1248,6.0116,5.9533,5.9483,5.8933,5.8951,5.9391,5.8969,5.8455,5.8111,5.8584,5.8784,5.8567,5.9212,6.0282,6.1863,6.2585,6.3783,6.555,6.6803,6.7447,6.7493,6.8162,6.8652,6.8717,6.9137,6.8681,6.7255,6.8052,6.8128,6.7334,6.7895,6.835,6.8222,6.846,6.8521,6.7844,6.8047,6.8259,6.8265,6.8265,6.7899,6.7168,6.6998,6.6624,6.6016,6.6181,6.6635,6.7442,6.8289,6.9369,7.026,7.1016,7.1651,7.2722,7.295,7.3013,7.3086,7.3095,7.36,7.4471,7.477,7.4763,7.4711,7.4753,7.4742,7.4275,7.5016,7.5421,7.5343,7.5896,7.6306,7.6409,7.6403,7.6532,7.665,7.6677,7.6631,7.6556,7.6594,7.6532,7.1688,7.1621,7.1177,7.0517,6.9668,6.9192,6.8512,6.7669,6.7614,6.721,6.6604,6.6494,6.5954,6.5113,6.5076,6.4666,6.3961,6.389,6.4193,6.4576,6.4059,6.3911,6.4351,6.4426,6.5098,6.6233,6.6192,6.6246,6.6214,6.508,6.4158,6.3683,6.2904,6.2172,6.1548,6.0743,6.0346,6.0327,6.0199,6.0296,6.037,6.0333,5.9585,5.8542,5.9962,6.0571,6.0155,6.1093,6.2337,6.3679,6.3799,6.4795,6.6775,6.7846,6.8791,6.9715,6.994,6.9771,6.9397,6.9543,6.9504,6.9253,6.8546,6.805,6.7691,6.7848,6.7895,6.7651,6.866,6.8847,6.7989,6.7963,6.793,6.7844,6.781,6.7415,6.6546,6.5891,6.5138,6.4895,6.4597,6.4684,6.5011,6.6178,6.7197,6.7858,6.8804,6.9861,7.0054,7.0184,7.0332,7.0392,7.0584,7.0976,7.2636,7.325,7.3242,7.3144,7.318,7.3383,7.378,7.4087,7.4168,7.4348,7.4669,7.5106,7.5683,7.6089,7.6304,7.6516,7.6802,7.6828,7.6765,7.6631,7.659,7.2062,7.2203,7.1993,7.1174,6.9985,6.9761,6.8917,6.7724,6.7669,6.754,6.7302,6.7247,6.71,6.6851,6.7197,6.6411,6.493,6.4867,6.5164,6.559,6.5643,6.5917,6.6389,6.6234,6.6662,6.742,6.6773,6.6442,6.6559,6.5808,6.5058,6.4387,6.378,6.2898,6.1771,6.13,6.1153,6.1117,6.0694,6.0793,6.1581,6.1667,6.1267,6.0577,6.0922,6.121,6.1225,6.1938,6.2839,6.3871,6.4685,6.5761,6.7058,6.8456,6.9701,7.0645,7.0812,7.0626,7.0316,7.0599,7.0338,6.9363,6.8807,6.8169,6.7651,6.7852,6.8009,6.7967,6.8967,6.9396,6.8953,6.8728,6.8567,6.8284,6.8185,6.776,6.6711,6.6095,6.5647,6.5139,6.4987,6.5113,6.4979,6.5655,6.6297,6.6445,6.6952,6.7602,6.8237,6.8744,6.9183,6.9289,6.9716,7.0128,7.011,7.1275,7.1744,7.1578,7.1551,7.1558,7.183,7.2483,7.2696,7.3218,7.3509,7.4105,7.48,7.5566,7.582,7.6094,7.6406,7.6621,7.7,7.6543,7.6582,7.2308,7.2451,7.2239,7.1339,7.0128,6.9834,6.8935,6.7742,6.7669,6.7669,6.7722,6.787,6.7956,6.8065,6.8535,6.8045,6.664,6.6362,6.6485,6.6938,6.7032,6.7338,6.7764,6.7637,6.7975,6.8496,6.7515,6.703,6.7045,6.6232,6.5509,6.4938,6.4383,6.3558,6.253,6.2144,6.1979,6.1869,6.1447,6.1664,6.2446,6.2705,6.2788,6.2692,6.2523,6.2466,6.2595,6.3265,6.4049,6.4915,6.5799,6.6782,6.7936,6.9302,7.04,7.1083,7.1192,7.1106,7.0961,7.1262,7.1007,6.9884,6.9314,6.8662,6.7818,6.8353,6.8438,6.838,6.9352,7.0181,6.992,6.983,6.9511,6.8932,6.8754,6.8262,6.7113,6.6948,6.6489,6.5855,6.5732,6.5648,6.5336,6.567,6.5964,6.6015,6.6207,6.6706,6.7301,6.7905,6.8371,6.8414,6.8841,6.8926,6.8912,6.9489,7.0065,6.9987,7.0108,7.0039,7.0327,7.0937,7.1506,7.2036,7.265,7.3294,7.4018,7.4832,7.5254,7.5469,7.5605,7.5762,7.6015,7.6191,7.6074,7.2488,7.2349,7.1651,7.0862,6.9963,6.9284,6.8476,6.776,6.7669,6.7741,6.7844,6.8235,6.844,6.8632,6.9064,6.9217,6.8931,6.8369,6.83,6.8605,6.8026,6.8036,6.8537,6.8467,6.8723,6.9418,6.8575,6.8069,6.7929,6.6447,6.5526,6.5217,6.4639,6.4223,6.403,6.3229,6.2855,6.2812,6.2769,6.2812,6.291,6.3368,6.3848,6.433,6.4679,6.4568,6.4001,6.5156,6.607,6.6795,6.7096,6.7955,6.9417,7.0387,7.0965,7.1172,7.1213,7.1218,7.1226,7.1378,7.14,7.0899,7.0307,6.9449,6.8897,6.9196,6.9256,6.8883,6.9824,7.0805,7.0777,7.0748,7.0346,6.9492,6.9313,6.8932,6.8259,6.8003,6.7696,6.693,6.6516,6.5933,6.5893,6.6169,6.6322,6.6299,6.6608,6.693,6.706,6.7343,6.7472,6.7541,6.7909,6.8156,6.7907,6.7786,6.8121,6.8442,6.8665,6.8825,6.9414,6.9992,7.0486,7.1018,7.1601,7.2248,7.2986,7.3768,7.4352,7.4609,7.4746,7.4961,7.5195,7.5351,7.5117,7.2184,7.1688,7.1403,7.0513,6.9339,6.9009,6.8458,6.7724,6.7669,6.7923,6.8253,6.8416,6.8705,6.9127,6.9588,6.9866,6.9846,6.9928,6.9932,6.9671,6.9406,6.9555,6.9901,6.9533,6.9203,6.9097,6.8982,6.8751,6.8257,6.7382,6.6696,6.6106,6.5626,6.512,6.4605,6.4131,6.3915,6.3915,6.3894,6.404,6.4351,6.4535,6.4885,6.5374,6.5589,6.574,6.6099,6.6499,6.684,6.7148,6.8244,6.9398,7.0361,7.0899,7.1192,7.1369,7.1409,7.144,7.1518,7.1494,7.1416,7.1093,7.0389,6.9821,6.9466,6.9573,6.961,6.9379,7.0283,7.0898,7.0898,7.0898,7.0573,6.992,6.9848,6.9626,6.908,6.8915,6.879,6.8563,6.8301,6.7988,6.7506,6.74,6.7186,6.6653,6.6566,6.6495,6.6423,6.6873,6.6734,6.6771,6.7164,6.7844,6.7956,6.7989,6.8123,6.8179,6.8154,6.8185,6.8682,6.9314,6.9716,7.0283,7.0843,7.1396,7.2106,7.2712,7.3365,7.3846,7.4101,7.4316,7.4512,7.4433,7.418,7.178,7.1238,7.066,6.9871,6.8898,6.8605,6.8164,6.7759,6.7904,6.8204,6.8535,6.8935,6.9292,6.9664,7.0164,7.0416,7.0448,7.0762,7.0715,7.0428,7.0378,7.0608,7.0827,7.0417,6.9994,6.9639,6.96,6.9333,6.8777,6.8247,6.7583,6.6827,6.6569,6.6183,6.5539,6.5082,6.486,6.4823,6.454,6.4536,6.4799,6.5,6.5429,6.601,6.6256,6.6763,6.7526,6.7916,6.8133,6.8289,6.9417,7.0413,7.0978,7.1066,7.1218,7.1413,7.142,7.1407,7.1499,7.143,7.1308,7.1029,7.0575,7.01,6.9861,6.9898,7.0071,6.986,7.0437,7.0898,7.0898,7.0898,7.0729,7.0463,7.0397,7.0247,6.9957,6.9902,6.9931,6.9906,6.9798,6.9454,6.9057,6.8642,6.8366,6.7736,6.7343,6.7095,6.7132,6.7405,6.7381,6.7481,6.8049,6.8421,6.8363,6.8314,6.8259,6.8123,6.7974,6.7982,6.8185,6.8978,6.9569,7.036,7.0976,7.116,7.1763,7.2099,7.2598,7.3013,7.3338,7.3242,7.3262,7.3359,7.3203,7.1256,7.1017,6.9577,6.8935,6.8697,6.8054,6.7804,6.7863,6.8259,6.8539,6.8844,6.9569,7.0042,7.0231,7.0622,7.0824,7.0885,7.0885,7.0885,7.0838,7.0824,7.0871,7.086,7.0783,7.0698,7.0647,7.026,6.9811,6.9314,6.8799,6.8125,6.7491,6.7427,6.7254,6.6841,6.6163,6.582,6.5648,6.5027,6.4741,6.47,6.4978,6.5616,6.644,6.6891,6.7547,6.8521,6.9377,6.9849,6.9893,7.0484,7.0969,7.1106,7.1016,7.1159,7.1444,7.1295,7.1235,7.1211,7.1193,7.1112,7.0947,7.0837,7.061,7.0071,7.0398,7.0514,7.0014,7.0494,7.0898,7.0898,7.0898,7.0885,7.0885,7.081,7.0777,7.0852,7.081,7.0783,7.0911,7.0739,7.0404,7.0235,6.9884,6.9579,6.9341,6.916,6.8997,6.8955,6.8868,6.9152,6.9148,6.8916,6.8891,6.8799,6.8777,6.8728,6.8586,6.8357,6.8235,6.8235,6.8935,6.9683,7.0448,7.0947,7.1104,7.1329,7.168,7.1889,7.218,7.2229,7.2009,7.2148,7.2461,7.2578,7.0954,7.0312,6.9321,6.8568,6.8036,6.7742,6.793,6.8284,6.844,6.8978,6.9588,6.9955,7.033,7.0666,7.0824,7.0898,7.0898,7.0898,7.0898,7.0898,7.0898,7.0898,7.0898,7.0898,7.0898,7.0824,7.0397,7.0044,6.9847,6.9353,6.8897,6.8767,6.845,6.8335,6.8171,6.7767,6.7318,6.6778,6.6514,6.5982,6.5561,6.5666,6.6259,6.7057,6.7415,6.8305,6.9603,7.0604,7.1058,7.104,7.1187,7.1284,7.1213,7.1253,7.1268,7.127,7.1238,7.1189,7.1163,7.1062,7.0966,7.0906,7.0898,7.0802,7.0629,7.0764,7.0783,7.061,7.0821,7.0898,7.0898,7.0898,7.0898,7.0898,7.0912,7.0898,7.0898,7.0912,7.0973,7.1106,7.0932,7.0856,7.0829,7.0722,7.0488,7.0359,7.0112,6.9883,6.9829,6.9645,6.9569,6.9393,6.9212,6.9251,6.9251,6.9251,6.921,6.9127,6.8975,6.8821,6.8913,6.9273,7.0007,7.0738,7.0868,7.1021,7.1137,7.1384,7.1465,7.1614,7.1709,7.1802,7.1949,7.2168,7.2187,7.0532,6.9981,6.888,6.8128,6.7759,6.7948,6.821,6.8563,6.9021,6.9492,7.0059,7.0366,7.0622,7.0885,7.0898,7.0898,7.0898,7.0898,7.0898,7.0898,7.0898,7.0898,7.0898,7.0898,7.0898,7.0885,7.0588,7.033,7.0095,6.9775,6.9285,6.8773,6.9119,6.9129,6.8556,6.8493,6.8173,6.7577,6.7045,6.6364,6.6036,6.6069,6.6591,6.7396,6.7942,6.9026,7.0623,7.1335,7.156,7.1479,7.1412,7.1354,7.1325,7.1261,7.1238,7.118,7.1126,7.1074,7.105,7.0966,7.0912,7.0898,7.0898,7.0898,7.0879,7.0898,7.0898,7.0879,7.0898,7.0898,7.0898,7.0898,7.0927,7.1004,7.0953,7.0912,7.0898,7.0898,7.0991,7.11,7.1112,7.107,7.1201,7.1085,7.0998,7.0841,7.0588,7.0478,7.0397,7.0114,6.9902,6.983,6.9848,6.9955,7.0009,7.0009,6.9793,6.9701,6.9607,6.9433,6.9511,6.9738,7.0181,7.0715,7.0824,7.0933,7.1034,7.1148,7.128,7.1411,7.1521,7.1638,7.1761,7.1902,7.1902,7.0091,6.9945,6.8348,6.7669,6.7757,6.8185,6.8387,6.8682,6.9453,6.9955,7.0198,7.0671,7.0838,7.0898,7.0898,7.0898,7.0898,7.0898,7.0898,7.0898,7.0898,7.0898,7.0898,7.0898,7.0898,7.0898,7.0898,7.0637,7.0346,7.0198,6.9456,6.896,6.9679,6.9605,6.9121,6.8731,6.8519,6.8084,6.7005,6.6325,6.6148,6.6181,6.6669,6.7528,6.8375,6.9553,7.0852,7.144,7.146,7.1507,7.1331,7.1359,7.1436,7.1101,7.1012,7.1087,7.1026,7.092,7.0925,7.0906,7.0898,7.0898,7.0898,7.0898,7.0898,7.0898,7.0898,7.0898,7.0898,7.0906,7.0979,7.0966,7.1074,7.1171,7.1074,7.0985,7.0933,7.0906,7.0973,7.1158,7.1201,7.1169,7.1192,7.1169,7.1108,7.092,7.0777,7.0729,7.07,7.0558,7.0528,7.0573,7.0652,7.0777,7.0777,7.0777,7.0494,7.0263,7.0214,7.0112,7.0131,7.0282,7.0463,7.07,7.0838,7.0898,7.0933,7.1046,7.1148,7.1242,7.1377,7.1437,7.1518,7.1657,7.1714,7.0091,6.9963,6.8366,6.7669,6.7714,6.7836,6.8148,6.8586,6.9231,6.9811,7.0145,7.0686,7.0885,7.0898,7.0898,7.0898,7.0898,7.0898,7.0898,7.0898,7.0898,7.0898,7.0898,7.0898,7.0898,7.0898,7.0898,7.0824,7.0715,7.0633,7.0561,7.0259,7.0254,7.0584,7.0187,6.9496,6.9033,6.8379,6.7506,6.6815,6.6392,6.6451,6.6888,6.7663,6.8426,6.9384,7.0247,7.0526,7.0832,7.1324,7.1516,7.1448,7.129,7.1178,7.1074,7.0983,7.094,7.0898,7.0898,7.0898,7.0898,7.0898,7.0898,7.0898,7.0898,7.0898,7.0898,7.0898,7.0898,7.096,7.1123,7.128,7.1359,7.1381,7.1376,7.129,7.1148,7.0991,7.1009,7.11,7.1062,7.1029,7.1158,7.1046,7.0973,7.0912,7.0898,7.0898,7.0898,7.0898,7.0898,7.0898,7.0898,7.0898,7.0898,7.0898,7.0777,7.0603,7.0573,7.0573,7.0573,7.0608,7.0715,7.0791,7.0852,7.0898,7.0879,7.0906,7.1041,7.1126,7.1213,7.127,7.1348,7.1478,7.1577,6.9889,6.9412,6.8201,6.7669,6.7802,6.821,6.8614,6.8999,6.972,7.0198,7.0478,7.0791,7.0898,7.0898,7.0898,7.0898,7.0898,7.0898,7.0898,7.0898,7.0898,7.0898,7.0898,7.0898,7.0898,7.0898,7.0898,7.0898,7.0898,7.086,7.0654,7.0425,7.0754,7.0397,7.0066,6.9847,6.943,6.8772,6.8303,6.7876,6.7618,6.7231,6.7226,6.7659,6.8178,6.8871,7.009,7.022,7.0633,7.1152,7.1423,7.1408,7.1223,7.1112,7.1004,7.0933,7.0898,7.0898,7.0898,7.0898,7.0898,7.0898,7.0898,7.0898,7.0898,7.0898,7.0898,7.0898,7.092,7.0985,7.1308,7.1389,7.1498,7.1572,7.155,7.1462,7.1353,7.1169,7.1009,7.107,7.0979,7.0979,7.0979,7.0946,7.092,7.0898,7.0898,7.0898,7.0898,7.0898,7.0898,7.0898,7.0898,7.0898,7.0898,7.0898,7.0898,7.0791,7.0777,7.0777,7.0777,7.0824,7.0885,7.0898,7.0898,7.0898,7.0898,7.0912,7.0925,7.0985,7.1062,7.1115,7.1192,7.128,7.1412,6.9522,6.8843,6.8133,6.781,6.7963,6.8844,6.9251,6.9433,7.035,7.0608,7.0791,7.0838,7.0898,7.0898,7.0898,7.0898,7.086,7.0635,7.0558,7.0374,7.034,7.0243,7.0286,7.0469,7.07,7.0777,7.0871,7.0885,7.0898,7.0873,7.0683,7.0189,7.0529,7.0484,6.9614,6.9496,6.9536,6.8888,6.8598,6.8491,6.8424,6.7791,6.7403,6.7325,6.7347,6.8183,6.9359,6.9825,7.0229,7.1083,7.1158,7.1158,7.1112,7.1016,7.0898,7.0898,7.0898,7.0898,7.0898,7.0898,7.0898,7.0898,7.0898,7.0898,7.0898,7.0898,7.0898,7.092,7.0947,7.1112,7.1447,7.153,7.1609,7.1691,7.1648,7.156,7.1498,7.1365,7.1223,7.1016,7.0953,7.0946,7.0933,7.0912,7.0898,7.0898,7.0898,7.0898,7.0898,7.0898,7.0898,7.0898,7.0898,7.0898,7.0898,7.0898,7.0898,7.0898,7.0898,7.0898,7.0898,7.0898,7.0898,7.0898,7.0898,7.0898,7.0898,7.0898,7.0898,7.0898,7.092,7.1004,7.1046,7.107,7.1242,6.9027,6.8879,6.8513,6.8344,6.8464,6.9042,6.9333,6.9394,7.0044,7.0231,7.033,7.07,7.0898,7.086,7.0879,7.086,7.053,7.006,6.9587,6.9282,6.918,6.9046,6.8914,6.9559,7.0075,7.0381,7.0565,7.0742,7.0898,7.0873,7.0721,7.0736,7.0369,7.0107,7.0141,6.9921,6.9303,6.8986,6.8663,6.8464,6.83,6.769,6.6961,6.6771,6.6688,6.7423,6.8421,6.8829,6.9386,7.0761,7.0934,7.0966,7.0947,7.092,7.0898,7.0898,7.0898,7.0898,7.0898,7.0898,7.0898,7.0898,7.0898,7.0898,7.0898,7.0898,7.0898,7.094,7.1038,7.1233,7.1476,7.156,7.1755,7.1877,7.1879,7.1817,7.1691,7.157,7.1459,7.1223,7.1054,7.092,7.0953,7.0953,7.0946,7.092,7.0898,7.0898,7.0898,7.0898,7.0898,7.0898,7.0898,7.0898,7.0898,7.0898,7.0898,7.0898,7.0898,7.0898,7.0898,7.0898,7.0898,7.0898,7.0898,7.0898,7.0898,7.0898,7.0898,7.0898,7.0898,7.0898,7.094,7.0991,7.1148,6.882,6.8703,6.856,6.866,6.8978,6.9473,6.972,6.9793,7.0263,7.0509,7.0588,7.0757,7.0648,7.0379,7.0283,6.995,6.9236,6.8846,6.8308,6.793,6.7823,6.7731,6.7465,6.8224,6.8857,6.933,6.9747,7.0321,7.0796,7.0502,7.0509,7.0321,6.9833,6.9622,6.9772,6.9822,6.9433,6.9238,6.9132,6.9295,6.9464,6.8705,6.7831,6.6937,6.7003,6.7622,6.8212,6.9003,6.9719,7.0684,7.1023,7.0985,7.0927,7.0912,7.0898,7.0912,7.0898,7.0898,7.0898,7.0898,7.0898,7.0898,7.0898,7.0898,7.0898,7.0898,7.0898,7.0959,7.1074,7.1223,7.1333,7.1511,7.1638,7.1718,7.1797,7.1802,7.1744,7.1693,7.158,7.1446,7.1365,7.1223,7.1074,7.1058,7.0991,7.0953,7.0906,7.0898,7.0898,7.0898,7.0898,7.0898,7.0898,7.0898,7.0898,7.0898,7.0898,7.0898,7.0898,7.0898,7.0898,7.0898,7.0898,7.0898,7.0898,7.0898,7.0898,7.0898,7.0898,7.0898,7.0898,7.0898,7.0898,7.0947,7.1089,6.8747,6.866,6.8777,6.9064,6.9511,7.0044,7.0266,7.0346,7.07,7.0852,7.0898,7.086,7.0456,6.9794,6.9289,6.8689,6.7578,6.7469,6.6914,6.6576,6.6478,6.6419,6.6393,6.697,6.7694,6.8707,6.9003,6.9498,7.0354,7.0456,7.0097,6.9839,6.9425,6.9045,6.885,6.9656,6.9765,6.959,6.9642,7.0284,7.0238,6.9905,6.8878,6.7439,6.8012,6.8492,6.8941,6.9488,7.0039,7.0642,7.0984,7.1095,7.0845,7.0889,7.0947,7.0953,7.0933,7.0898,7.0898,7.0898,7.0898,7.0898,7.0898,7.0898,7.0898,7.0898,7.0898,7.0933,7.1029,7.1158,7.1242,7.1361,7.1462,7.1543,7.1614,7.1667,7.1686,7.1696,7.175,7.1675,7.1634,7.1498,7.1316,7.1167,7.1097,7.1029,7.0973,7.0898,7.0898,7.0898,7.0898,7.0898,7.0898,7.0898,7.0898,7.0898,7.0898,7.0898,7.0898,7.0898,7.0898,7.0898,7.0898,7.0898,7.0898,7.0898,7.0898,7.0898,7.0898,7.0898,7.0898,7.0898,7.0898,7.092,7.1029,6.8821,6.9251,6.9682,6.9955,7.0042,7.0494,7.0762,7.0762,7.0824,7.0898,7.0783,7.0821,7.0379,6.9426,6.8231,6.777,6.7212,6.633,6.5591,6.5173,6.5064,6.4878,6.4848,6.6519,6.7121,6.7903,6.8434,6.9157,6.9675,7.0319,7.0116,6.931,6.9514,6.9826,6.8803,6.9238,6.9101,6.8476,6.8351,6.794,6.7409,6.8124,6.813,6.7849,6.82,6.8878,6.9409,6.9787,7.0102,7.0254,7.0984,7.098,7.0537,7.0893,7.1113,7.1112,7.1029,7.0898,7.0879,7.0898,7.0898,7.0898,7.0898,7.0898,7.0898,7.0898,7.0898,7.0898,7.0959,7.1029,7.1126,7.1212,7.1316,7.1408,7.149,7.1563,7.1618,7.1651,7.1698,7.1775,7.171,7.1634,7.1498,7.1333,7.119,7.1112,7.1034,7.0953,7.0898,7.0898,7.0898,7.0898,7.0898,7.0898,7.0898,7.0898,7.0898,7.0898,7.0898,7.0898,7.0898,7.0898,7.0898,7.0898,7.0898,7.0898,7.0898,7.0898,7.0898,7.0898,7.0898,7.0898,7.0898,7.0933,7.0979,6.9531,6.9738,6.9683,6.9829,7.0059,7.0044,7.0181,7.0413,7.0444,7.0354,7.0236,7.0225,6.9513,6.8221,6.6789,6.6053,6.5646,6.4893,6.4199,6.3864,6.3741,6.3591,6.3702,6.4624,6.5617,6.6747,6.7205,6.7588,6.8315,6.8752,6.8691,6.8384,6.8388,6.8216,6.8144,6.8515,6.8496,6.8379,6.8349,6.7769,6.7063,6.7624,6.8266,6.7581,6.8319,6.8749,6.8884,6.9386,6.9515,6.9577,6.9991,6.9983,6.9589,6.9629,6.971,6.9689,6.9538,6.9892,7.0687,7.0821,7.0821,7.086,7.086,7.0898,7.0898,7.0841,7.0841,7.0898,7.0898,7.0934,7.0997,7.1021,7.1074,7.1158,7.129,7.1376,7.1458,7.1566,7.1604,7.1691,7.1767,7.1662,7.1574,7.1447,7.1262,7.1148,7.1046,7.0933,7.0898,7.0898,7.0898,7.0898,7.0898,7.0898,7.0898,7.0898,7.0898,7.0898,7.0898,7.0898,7.0898,7.0898,7.0773,7.0798,7.0848,7.0868,7.0848,7.0898,7.0898,7.0898,7.0898,7.0898,7.0898,7.0898,7.0966,7.0314,7.0247,6.9701,6.9738,7.0006,6.9323,6.9209,6.956,6.9468,6.9336,6.9194,6.9036,6.8185,6.6907,6.5668,6.4815,6.4233,6.3637,6.3196,6.291,6.2823,6.2885,6.3223,6.3692,6.4678,6.5596,6.637,6.6842,6.7127,6.7271,6.7367,6.7327,6.7904,6.7236,6.6907,6.7207,6.7441,6.6699,6.7068,6.6561,6.5903,6.6883,6.7206,6.7417,6.7879,6.8374,6.8003,6.8752,6.9197,6.8847,6.9224,6.9312,6.887,6.8914,6.8959,6.8927,6.8803,6.9033,6.986,7.0244,7.0437,7.0341,7.0264,7.0033,7.0129,7.0283,7.0456,7.0456,7.0514,7.0629,7.0841,7.0912,7.0946,7.0998,7.1058,7.1123,7.1202,7.1286,7.1444,7.1583,7.1643,7.1629,7.155,7.1476,7.1342,7.1202,7.1062,7.0933,7.0898,7.0898,7.0898,7.0898,7.0898,7.0898,7.0898,7.0898,7.0898,7.0841,7.0821,7.069,7.0549,7.0476,7.0343,7.045,7.0529,7.0274,6.9941,7.0423,7.0898,7.0898,7.0898,7.0898,7.0898,7.0898,7.0966,7.0838,7.0791,7.0209,7.0006,6.9986,6.8717,6.822,6.8318,6.7983,6.7877,6.7875,6.74,6.6988,6.6214,6.5096,6.4158,6.3659,6.3115,6.291,6.283,6.2823,6.2855,6.3234,6.3996,6.4891,6.5521,6.6036,6.6538,6.6795,6.6369,6.6403,6.6575,6.7352,6.6987,6.6401,6.6116,6.5613,6.4846,6.472,6.4504,6.4194,6.4755,6.5326,6.5803,6.6937,6.8003,6.8161,6.875,6.8887,6.8222,6.8691,6.8789,6.8281,6.834,6.8404,6.8338,6.8146,6.825,6.8603,6.9263,6.9321,6.8898,6.8744,6.8994,6.9244,6.8788,6.8975,6.9783,7.0014,7.0244,7.0591,7.0885,7.0762,7.071,7.068,7.0632,7.0754,7.0981,7.1145,7.1408,7.1412,7.1225,7.1229,7.1102,7.1249,7.1132,7.1034,7.0898,7.0898,7.0898,7.0898,7.0898,7.0898,7.0898,7.0898,7.0879,7.0821,7.0648,7.0552,7.0271,6.9971,6.9899,6.9753,6.9643,6.9593,6.932,6.9239,6.9818,7.0336,7.0728,7.086,7.0706,7.0802,7.0898,7.0985,6.936,6.9319,6.8804,6.897,6.9493,6.818,6.7604,6.7562,6.7259,6.7169,6.7204,6.6342,6.5769,6.5316,6.4519,6.3829,6.3543,6.3062,6.288,6.2823,6.2805,6.299,6.3479,6.4011,6.4785,6.5238,6.5753,6.6096,6.623,6.561,6.5412,6.5775,6.6386,6.6078,6.5459,6.4796,6.3976,6.3506,6.3327,6.344,6.3146,6.3792,6.4409,6.4616,6.5644,6.646,6.668,6.7441,6.7558,6.7617,6.7832,6.7734,6.7578,6.7617,6.7579,6.7528,6.7309,6.7139,6.7244,6.8084,6.8654,6.8571,6.8456,6.8481,6.8673,6.8635,6.8885,6.9379,6.955,6.961,7.0006,7.0262,7.0346,7.0314,7.0244,7.017,7.0228,7.0451,7.0542,7.0662,7.0638,7.0539,7.0606,7.0662,7.0868,7.1042,7.0958,7.086,7.0783,7.0667,7.0571,7.0667,7.0687,7.0725,7.0725,7.0706,7.0687,7.0456,7.0219,6.9745,6.9323,6.9138,6.8985,6.8831,6.8787,6.8774,6.8928,6.9331,6.9711,7.0062,7.0279,7.036,7.0533,7.0802,7.0979,6.8398,6.8339,6.7989,6.8093,6.8367,6.712,6.6458,6.6286,6.594,6.6047,6.624,6.5394,6.4883,6.4517,6.3998,6.3476,6.3308,6.2965,6.2855,6.2823,6.2855,6.2915,6.3182,6.3547,6.3934,6.4375,6.4808,6.507,6.4987,6.4572,6.4403,6.4338,6.4235,6.419,6.3986,6.3247,6.2433,6.2172,6.2258,6.2633,6.2185,6.2757,6.3218,6.3369,6.4273,6.5,6.543,6.6172,6.6777,6.6894,6.7031,6.6972,6.6855,6.6735,6.6572,6.6427,6.629,6.6128,6.6344,6.6801,6.7763,6.784,6.7571,6.7898,6.8192,6.7914,6.7539,6.8311,6.8478,6.8682,6.8989,6.9298,6.9637,6.964,6.9682,6.9626,6.9663,6.9807,6.9824,6.9846,6.9788,6.97,6.9584,6.9647,6.996,7.0073,6.9848,6.9956,7.0244,7.0129,6.9994,7.0148,7.036,7.0437,7.0514,7.0321,7.0142,6.9984,6.9662,6.9026,6.8636,6.8423,6.8163,6.7954,6.7996,6.8247,6.8276,6.8235,6.8742,6.9353,6.9625,6.9957,7.0244,7.0514,7.0821,6.8321,6.8385,6.8294,6.7725,6.6748,6.5478,6.48,6.4652,6.4245,6.4384,6.492,6.4935,6.4571,6.3936,6.3637,6.3289,6.299,6.2855,6.275,6.2658,6.2548,6.2304,6.233,6.2623,6.3061,6.2444,6.315,6.382,6.3577,6.3469,6.3392,6.3141,6.283,6.2411,6.2248,6.0948,6.0246,6.0227,6.0425,6.0766,6.1227,6.1616,6.1822,6.219,6.2981,6.3828,6.4629,6.543,6.6172,6.6797,6.6894,6.6894,6.6875,6.6738,6.6625,6.6557,6.6446,6.6275,6.6167,6.6086,6.6493,6.6994,6.6763,6.6583,6.6172,6.582,6.5909,6.6978,6.6579,6.6918,6.7486,6.8165,6.8542,6.8989,6.9056,6.8924,6.8906,6.9191,6.9228,6.9091,6.8886,6.8731,6.8555,6.8546,6.8924,6.8995,6.8738,6.8956,6.9456,6.9533,6.9379,6.9456,6.9706,6.9687,6.9687,6.9706,6.9584,6.9438,6.9022,6.8323,6.7898,6.7709,6.7447,6.7173,6.7285,6.7578,6.7246,6.6887,6.7589,6.8325,6.9204,6.9631,6.9938,7.0225,7.0514,6.6744,6.6744,6.6744,6.5997,6.4985,6.5607,6.5557,6.5103,6.4785,6.4885,6.5168,6.4954,6.4518,6.4037,6.327,6.2879,6.2781,6.2762,6.2652,6.2016,6.1998,6.1964,6.1915,6.1975,6.237,6.2815,6.322,6.3142,6.3365,6.2801,6.2512,6.2281,6.1707,6.1125,6.075,6.0019,5.9776,6.004,6.0203,6.0399,6.0951,6.1207,6.1383,6.1526,6.2455,6.3301,6.414,6.4961,6.5781,6.6621,6.6758,6.6836,6.6875,6.6797,6.6737,6.6619,6.6468,6.6275,6.6067,6.5973,6.6025,6.6147,6.6128,6.5999,6.6126,6.5509,6.5539,6.5626,6.5483,6.6064,6.6993,6.6894,6.723,6.8178,6.8311,6.7938,6.7914,6.8455,6.8693,6.8376,6.8143,6.7808,6.7587,6.7426,6.7708,6.8077,6.7917,6.8225,6.8725,6.8783,6.8706,6.8725,6.884,6.8821,6.8821,6.8821,6.859,6.8302,6.7933,6.7418,6.7116,6.7064,6.7058,6.6965,6.6933,6.6894,6.6836,6.6781,6.6752,6.73,6.8199,6.9015,6.9367,6.9744,7.0187,6.5455,6.5416,6.5128,6.4481,6.3901,6.497,6.5065,6.4387,6.4242,6.4352,6.4253,6.3737,6.3332,6.2996,6.2433,6.1979,6.1979,6.1961,6.1851,6.1208,6.119,6.1001,6.0967,6.1187,6.1234,6.1969,6.2189,6.2151,6.225,6.1858,6.1678,6.145,6.0935,6.0545,6.0137,5.992,5.9839,6.0079,6.0196,6.0489,6.0987,6.1281,6.1444,6.1696,6.2207,6.2832,6.3652,6.4446,6.5208,6.5991,6.6426,6.6601,6.6738,6.6855,6.6797,6.6639,6.6386,6.6209,6.6035,6.5928,6.5942,6.5936,6.5878,6.5899,6.5868,6.5182,6.4856,6.482,6.4827,6.5373,6.5958,6.5733,6.6378,6.7321,6.779,6.7413,6.7672,6.824,6.7966,6.7654,6.7202,6.6876,6.66,6.6471,6.6465,6.6825,6.7128,6.7552,6.7878,6.7821,6.7878,6.7955,6.7975,6.7955,6.7955,6.7936,6.7648,6.7186,6.6911,6.6683,6.671,6.6731,6.6742,6.6816,6.6855,6.6894,6.6875,6.6842,6.6795,6.6863,6.7268,6.8014,6.8699,6.9155,6.9534,6.4647,6.4436,6.3692,6.3365,6.3322,6.3576,6.3025,6.2046,6.2506,6.249,6.2027,6.2284,6.2146,6.1388,6.0812,6.0704,6.0724,6.0687,6.0511,6.0419,6.0364,5.9964,5.9749,5.9804,6.0079,5.9908,6.0117,6.0851,6.0837,6.1084,6.1046,6.0893,6.0661,6.043,6.0323,6.0278,6.0198,6.0219,6.0246,6.0645,6.1169,6.142,6.1529,6.1659,6.1821,6.2242,6.28,6.3252,6.4077,6.4835,6.5488,6.6055,6.6484,6.6816,6.6719,6.6572,6.6286,6.6145,6.6028,6.5938,6.5903,6.5878,6.5878,6.5603,6.5238,6.4843,6.4464,6.3979,6.375,6.4364,6.4871,6.529,6.5745,6.6618,6.7443,6.7583,6.7801,6.7759,6.7274,6.6795,6.621,6.584,6.5623,6.5486,6.5762,6.6152,6.6513,6.6667,6.6878,6.6647,6.6763,6.709,6.709,6.709,6.709,6.7109,6.6994,6.6647,6.6464,6.6272,6.6317,6.6483,6.6639,6.6777,6.6855,6.6894,6.6875,6.6855,6.6806,6.6907,6.6945,6.724,6.7989,6.8253,6.8583,6.482,6.3743,6.407,6.3551,6.2442,6.1882,6.2067,6.2842,6.3052,6.2979,6.2839,6.2524,6.2041,6.211,6.13,6.0902,6.0718,6.0508,6.0026,5.9777,5.9538,5.9227,5.9063,5.9,5.9177,5.9379,5.9595,5.9901,6.0378,6.065,6.0935,6.0906,6.0848,6.0855,6.0861,6.0915,6.0615,6.0402,6.0359,6.0798,6.1228,6.1454,6.154,6.1525,6.1484,6.1888,6.2333,6.2645,6.3423,6.4208,6.4582,6.5098,6.5879,6.5996,6.6005,6.6415,6.6236,6.606,6.5963,6.5921,6.5878,6.5878,6.5878,6.5597,6.5165,6.4679,6.4178,6.3568,6.3152,6.3713,6.4196,6.4651,6.5453,6.6439,6.7105,6.7359,6.7603,6.7691,6.7139,6.6239,6.5649,6.5073,6.4841,6.5054,6.5364,6.5701,6.5955,6.6109,6.6147,6.5994,6.6013,6.6378,6.6455,6.6513,6.6359,6.634,6.6282,6.6166,6.6048,6.6078,6.6287,6.6452,6.6622,6.6738,6.6855,6.6894,6.6894,6.6855,6.6836,6.6711,6.6744,6.6945,6.7189,6.7472,6.7737,6.3782,6.2916,6.3012,6.2493,6.1608,6.1031,6.1435,6.2243,6.23,6.232,6.2252,6.1736,6.1595,6.1349,6.0511,6.0029,5.9987,5.9485,5.9061,5.8859,5.8767,5.8602,5.848,5.8484,5.8711,5.899,5.9354,5.9709,6.0141,6.0652,6.0997,6.1006,6.1207,6.1234,6.1164,6.1032,6.0911,6.0736,6.0742,6.1008,6.1236,6.1424,6.1434,6.1416,6.1363,6.1626,6.1946,6.2158,6.2695,6.3413,6.3652,6.4199,6.498,6.5273,6.571,6.6096,6.6109,6.5997,6.5921,6.5903,6.5878,6.5878,6.5878,6.5749,6.5325,6.4854,6.4079,6.3358,6.3136,6.3099,6.3492,6.4046,6.5271,6.6486,6.6739,6.7021,6.7317,6.7609,6.6905,6.591,6.5182,6.4533,6.4407,6.4679,6.5086,6.5616,6.5878,6.5936,6.5994,6.5955,6.5897,6.607,6.6051,6.6013,6.5878,6.5878,6.5955,6.6013,6.5973,6.6044,6.6251,6.6431,6.658,6.6738,6.6875,6.6894,6.6855,6.6894,6.6854,6.6735,6.6606,6.6691,6.6749,6.6746,6.7012,6.2159,6.1947,6.1143,6.1007,6.0861,6.0875,6.0914,6.0861,6.1021,6.0866,6.0842,6.0428,6.0413,6.0504,5.9767,5.9328,5.9227,5.8853,5.8592,5.8102,5.818,5.8143,5.8125,5.8029,5.8329,5.8694,5.9103,5.9492,6.0122,6.0697,6.107,6.1029,6.1264,6.1331,6.1231,6.1178,6.11,6.1055,6.1035,6.1186,6.1258,6.1318,6.1297,6.1253,6.1138,6.1109,6.112,6.1335,6.1645,6.2312,6.2832,6.332,6.4004,6.4634,6.5205,6.5562,6.5591,6.5662,6.5695,6.5774,6.5891,6.5878,6.5878,6.5768,6.5374,6.4837,6.4058,6.3524,6.3294,6.3088,6.3357,6.3857,6.4863,6.5876,6.6455,6.6842,6.7297,6.7069,6.5966,6.5039,6.4212,6.3699,6.4059,6.4332,6.4696,6.5417,6.5749,6.5736,6.5878,6.5878,6.5878,6.5878,6.5878,6.5878,6.5878,6.5878,6.5878,6.5897,6.5903,6.5951,6.6156,6.6347,6.6551,6.6719,6.6855,6.6836,6.6816,6.6788,6.6756,6.6724,6.6596,6.6507,6.6426,6.6342,6.6369,6.2243,6.1143,6.1001,6.1053,6.117,6.1184,6.117,6.1204,6.1184,6.1028,6.0819,6.0683,6.0615,6.047,5.9953,5.9636,5.9509,5.8874,5.8591,5.8372,5.8213,5.8047,5.7978,5.8001,5.8115,5.826,5.8674,5.9372,6.0094,6.0741,6.1208,6.124,6.1436,6.1483,6.1442,6.1386,6.1295,6.1233,6.1134,6.1164,6.1237,6.1261,6.1266,6.1135,6.0988,6.099,6.1048,6.1199,6.1431,6.1755,6.192,6.2422,6.313,6.367,6.4066,6.4365,6.477,6.4936,6.52,6.5484,6.5758,6.5851,6.582,6.5592,6.5245,6.4715,6.4236,6.3808,6.3441,6.3222,6.3278,6.3812,6.4388,6.5308,6.6105,6.6648,6.7169,6.6105,6.4989,6.4163,6.3294,6.334,6.3699,6.4078,6.4407,6.4784,6.5149,6.5369,6.5762,6.5878,6.5878,6.5878,6.5878,6.5878,6.5878,6.5914,6.5931,6.595,6.5955,6.6014,6.609,6.63,6.6555,6.67,6.6816,6.6738,6.6667,6.6572,6.6531,6.6572,6.6512,6.638,6.6271,6.6186,6.6074,6.1794,6.1067,6.1089,6.12,6.1297,6.1303,6.1303,6.1303,6.1303,6.1199,6.1037,6.102,6.0974,6.0824,6.0392,6.0149,5.9998,5.9356,5.8913,5.8632,5.8461,5.8213,5.8097,5.7978,5.8001,5.8123,5.8775,5.9456,6.0127,6.073,6.1167,6.1301,6.1512,6.162,6.1596,6.1478,6.1359,6.1242,6.1031,6.1009,6.1084,6.107,6.1055,6.0925,6.0915,6.0925,6.0973,6.1084,6.1233,6.1392,6.1598,6.2017,6.2565,6.2934,6.33,6.3701,6.4048,6.4211,6.4511,6.4967,6.5456,6.5468,6.587,6.5693,6.5522,6.499,6.4197,6.3766,6.3215,6.2959,6.3424,6.3929,6.4481,6.5229,6.5485,6.576,6.5648,6.4927,6.4292,6.3903,6.3322,6.3176,6.3568,6.4098,6.4463,6.4935,6.518,6.5417,6.5736,6.5878,6.5878,6.5903,6.5909,6.5903,6.591,6.5955,6.6014,6.6022,6.6022,6.6147,6.626,6.638,6.6544,6.6603,6.6629,6.6572,6.6487,6.6393,6.6425,6.6471,6.6368,6.6228,6.6118,6.6059,6.5986,6.1196,6.1306,6.1337,6.1328,6.1344,6.1349,6.1374,6.1374,6.1349,6.1354,6.1344,6.1344,6.1227,6.0935,6.0613,6.039,6.0102,5.9719,5.9284,5.8913,5.8715,5.8372,5.8097,5.7978,5.8051,5.8329,5.8855,5.9475,6.0094,6.0597,6.0968,6.122,6.1389,6.1492,6.146,6.1354,6.1246,6.1116,6.0964,6.0823,6.0804,6.08,6.0827,6.0816,6.08,6.0823,6.0877,6.0886,6.1042,6.1246,6.1393,6.1665,6.1894,6.2114,6.2437,6.2828,6.3243,6.3421,6.3738,6.4376,6.4605,6.4868,6.5508,6.5649,6.5378,6.4893,6.4106,6.3691,6.3164,6.2971,6.3457,6.3913,6.4445,6.4753,6.4807,6.4824,6.435,6.3923,6.3671,6.3498,6.3404,6.3191,6.3546,6.4078,6.4554,6.5051,6.5403,6.5676,6.5865,6.5878,6.5878,6.5914,6.5955,6.595,6.5928,6.5997,6.607,6.61,6.6128,6.6295,6.6406,6.6381,6.6367,6.6418,6.6412,6.6368,6.6327,6.6272,6.631,6.6317,6.6209,6.6079,6.6058,6.5986,6.5938,6.1334,6.1458,6.1458,6.1515,6.1601,6.1601,6.1632,6.1621,6.1601,6.1613,6.1601,6.1601,6.1484,6.1214,6.1001,6.078,6.0602,6.0171,5.9722,5.9302,5.8971,5.8484,5.8142,5.8047,5.8279,5.8505,5.8796,5.9284,5.9801,6.0233,6.0654,6.1007,6.1383,6.1481,6.1472,6.1356,6.1232,6.1116,6.0974,6.0839,6.0816,6.0804,6.0781,6.08,6.08,6.088,6.0857,6.0601,6.0842,6.108,6.1087,6.1073,6.1088,6.1144,6.1373,6.1688,6.2114,6.248,6.2842,6.3573,6.3833,6.3871,6.4348,6.4588,6.4379,6.4229,6.3757,6.3779,6.3308,6.2873,6.3164,6.3568,6.4016,6.4016,6.4036,6.3995,6.3739,6.34,6.3134,6.3238,6.3381,6.3408,6.3656,6.4138,6.4608,6.5019,6.5242,6.5522,6.5865,6.5878,6.5878,6.5926,6.5982,6.5947,6.5914,6.6058,6.6136,6.617,6.622,6.6305,6.6312,6.6212,6.6212,6.6256,6.6223,6.6172,6.6128,6.6138,6.6068,6.6056,6.5986,6.5926,6.5926,6.5938,6.5903]}]]